[[{"header":{"parameterUnit":"m.s-1","parameterCategory":1,"la1":30.6,"la2":28.766,"lo1":-90.7593,"lo2":-88.6598,"dy":0.0162,"dx":0.0183,"nx":116,"ny":114,"refTime":"2024-04-04T12:00:00:Z","depth":0,"parameterNumber":2,"parameterNumberName":"U-component_of_WINDS"},"data":[0.0,0.0,0.0,0.0,0.0,0.0,0.0,0.0,0.0,0.0,0.0,0.0,0.0,0.0,0.0,0.0,0.0,0.0,0.0,0.0,0.0,0.0,0.0,0.0,0.0,0.0,0.0,0.0,0.0,0.0,0.0,0.0,0.0,0.0,0.0,0.0,0.0,0.0,0.0,0.0,0.0,0.0,0.0,0.0,0.0,0.0,0.0,0.0,0.0,0.0,0.0,0.0,0.0,0.0,0.0,0.0,0.0,0.0,0.0,0.0,0.0,0.0,0.0,0.0,0.0,0.0,0.0,0.0,0.0,0.0,0.0,0.0,0.0,0.0,0.0,0.0,0.0,0.0,0.0,0.0,0.0,0.0,0.0,0.0,0.0,0.0,0.0,0.0,0.0,0.0,0.0,0.0,0.0,0.0,0.0,0.0,0.0,0.0,0.0,0.0,0.0,0.0,0.0,0.0,0.0,0.0,0.0,0.0,0.0,0.0,0.0,0.0,0.0,0.0,0.0,0.0,0.0,0.0,0.0,0.0,0.0,0.0,0.0,0.0,0.0,0.0,0.0,0.0,0.0,0.0,0.0,0.0,0.0,0.0,0.0,0.0,0.0,0.0,0.0,0.0,0.0,0.0,0.0,0.0,0.0,0.0,0.0,0.0,0.0,0.0,0.0,0.0,0.0,0.0,0.0,0.0,0.0,0.0,0.0,0.0,0.0,0.0,0.0,0.0,0.0,0.0,0.0,0.0,0.0,0.0,0.0,0.0,0.0,0.0,0.0,0.0,0.0,0.0,0.0,0.0,0.0,0.0,0.0,0.0,0.0,0.0,0.0,0.0,0.0,0.0,0.0,0.0,0.0,0.0,0.0,0.0,0.0,0.0,0.0,0.0,0.0,0.0,0.0,0.0,0.0,0.0,0.0,0.0,0.0,0.0,0.0,0.0,0.0,0.0,0.0,0.0,0.0,0.0,0.0,0.0,0.0,0.0,0.0,0.0,0.0,0.0,0.0,0.0,0.0,0.0,0.0,0.0,0.0,0.0,0.0,0.0,0.0,0.0,0.0,0.0,0.0,0.0,0.0,0.0,0.0,0.0,0.0,0.0,0.0,0.0,0.0,0.0,0.0,0.0,0.0,0.0,0.0,0.0,0.0,0.0,0.0,0.0,0.0,0.0,0.0,0.0,0.0,0.0,0.0,0.0,0.0,0.0,0.0,0.0,0.0,0.0,0.0,0.0,0.0,0.0,0.0,0.0,0.0,0.0,0.0,0.0,0.0,0.0,0.0,0.0,0.0,0.0,0.0,0.0,0.0,0.0,0.0,0.0,0.0,0.0,0.0,0.0,0.0,0.0,0.0,0.0,0.0,0.0,0.0,0.0,0.0,0.0,0.0,0.0,0.0,0.0,0.0,0.0,0.0,0.0,0.0,0.0,0.0,0.0,0.0,0.0,0.0,0.0,0.0,0.0,0.0,0.0,0.0,0.0,0.0,0.0,0.0,0.0,0.0,0.0,0.0,0.0,0.0,0.0,0.0,0.0,0.0,0.0,0.0,0.0,0.0,0.0,0.0,0.0,0.0,0.0,0.0,0.0,0.0,0.0,0.0,0.0,0.0,0.0,0.0,0.0,0.0,0.0,0.0,0.0,0.0,0.0,0.0,0.0,0.0,0.0,0.0,0.0,0.0,0.0,0.0,0.0,0.0,0.0,0.0,0.0,0.0,0.0,0.0,0.0,0.0,0.0,0.0,0.0,0.0,0.0,0.0,0.0,0.0,0.0,0.0,0.0,0.0,0.0,0.0,0.0,0.0,0.0,0.0,0.0,0.0,0.0,0.0,0.0,0.0,0.0,0.0,0.0,0.0,0.0,0.0,0.0,0.0,0.0,0.0,0.0,0.0,0.0,0.0,0.0,0.0,0.0,0.0,0.0,0.0,0.0,0.0,0.0,0.0,0.0,0.0,0.0,0.0,0.0,0.0,0.0,0.0,0.0,0.0,0.0,0.0,0.0,0.0,0.0,0.0,0.0,0.0,0.0,0.0,0.0,0.0,0.0,0.0,0.0,0.0,0.0,0.0,0.0,0.0,0.0,0.0,0.0,0.0,0.0,0.0,0.0,0.0,0.0,0.0,0.0,0.0,0.0,0.0,0.0,0.0,0.0,0.0,0.0,0.0,0.0,0.0,0.0,0.0,0.0,0.0,0.0,0.0,0.0,0.0,0.0,0.0,0.0,0.0,0.0,0.0,0.0,0.0,0.0,0.0,0.0,0.0,0.0,0.0,0.0,0.0,0.0,0.0,0.0,0.0,0.0,0.0,0.0,0.0,0.0,0.0,0.0,0.0,0.0,0.0,0.0,0.0,0.0,0.0,0.0,0.0,0.0,0.0,0.0,0.0,0.0,0.0,0.0,0.0,0.0,0.0,0.0,0.0,0.0,0.0,0.0,0.0,0.0,0.0,0.0,0.0,0.0,0.0,0.0,0.0,0.0,0.0,0.0,0.0,0.0,0.0,0.0,0.0,0.0,0.0,0.0,0.0,0.0,0.0,0.0,0.0,0.0,0.0,0.0,0.0,0.0,0.0,0.0,0.0,0.0,0.0,0.0,0.0,0.0,0.0,0.0,0.0,0.0,0.0,0.0,0.0,0.0,0.0,0.0,0.0,0.0,0.0,0.0,0.0,0.0,0.0,0.0,0.0,0.0,0.0,0.0,0.0,0.0,0.0,0.0,0.0,0.0,0.0,0.0,0.0,0.0,0.0,0.0,0.0,0.0,0.0,0.0,0.0,0.0,0.0,0.0,0.0,0.0,0.0,0.0,0.0,0.0,0.0,0.0,0.0,0.0,0.0,0.0,0.0,0.0,0.0,0.0,0.0,0.0,0.0,0.0,0.0,0.0,0.0,0.0,0.0,0.0,0.0,0.0,0.0,0.0,0.0,0.0,0.0,0.0,0.0,0.0,0.0,0.0,0.0,0.0,0.0,0.0,0.0,0.0,0.0,0.0,0.0,0.0,0.0,0.0,0.0,0.0,0.0,0.0,0.0,0.0,0.0,0.0,0.0,0.0,0.0,0.0,0.0,0.0,0.0,0.0,0.0,0.0,0.0,0.0,0.0,0.0,0.0,0.0,0.0,0.0,0.0,0.0,0.0,0.0,0.0,0.0,0.0,0.0,0.0,0.0,0.0,0.0,0.0,0.0,0.0,0.0,0.0,0.0,0.0,0.0,0.0,0.0,0.0,0.0,0.0,0.0,0.0,0.0,0.0,0.0,0.0,0.0,0.0,0.0,0.0,0.0,0.0,0.0,0.0,0.0,0.0,0.0,0.0,0.0,0.0,0.0,0.0,0.0,0.0,0.0,0.0,0.0,0.0,0.0,0.0,0.0,0.0,0.0,0.0,0.0,0.0,0.0,0.0,0.0,0.0,0.0,0.0,0.0,0.0,0.0,0.0,0.0,0.0,0.0,0.0,0.0,0.0,0.0,0.0,0.0,0.0,0.0,0.0,0.0,0.0,0.0,0.0,0.0,0.0,0.0,0.0,0.0,0.0,0.0,0.0,0.0,0.0,0.0,0.0,0.0,0.0,0.0,0.0,0.0,0.0,0.0,0.0,0.0,0.0,0.0,0.0,0.0,0.0,0.0,0.0,0.0,0.0,0.0,0.0,0.0,0.0,0.0,0.0,0.0,0.0,0.0,0.0,0.0,0.0,0.0,0.0,0.0,0.0,0.0,0.0,0.0,0.0,0.0,0.0,0.0,0.0,0.0,0.0,0.0,0.0,0.0,0.0,0.0,0.0,0.0,0.0,0.0,0.0,0.0,0.0,0.0,0.0,0.0,0.0,0.0,0.0,0.0,0.0,0.0,0.0,0.0,0.0,0.0,0.0,0.0,0.0,0.0,0.0,0.0,0.0,0.0,0.0,0.0,0.0,0.0,0.0,0.0,0.0,0.0,0.0,0.0,0.0,0.0,0.0,0.0,0.0,0.0,0.0,0.0,0.0,0.0,0.0,0.0,0.0,0.0,0.0,0.0,0.0,0.0,0.0,0.0,0.0,0.0,0.0,0.0,0.0,0.0,0.0,0.0,0.0,0.0,0.0,0.0,0.0,0.0,0.0,0.0,0.0,0.0,0.0,0.0,0.0,0.0,0.0,0.0,0.0,0.0,0.0,0.0,0.0,0.0,0.0,0.0,0.0,0.0,0.0,0.0,0.0,0.0,0.0,0.0,0.0,0.0,0.0,0.0,0.0,0.0,0.0,0.0,0.0,0.0,0.0,0.0,0.0,0.0,0.0,0.0,0.0,0.0,0.0,0.0,0.0,0.0,0.0,0.0,0.0,0.0,0.0,0.0,0.0,0.0,0.0,0.0,0.0,0.0,0.0,0.0,0.0,0.0,0.0,0.0,0.0,0.0,0.0,0.0,0.0,0.0,0.0,0.0,0.0,0.0,0.0,0.0,0.0,0.0,0.0,0.0,0.0,0.0,0.0,0.0,0.0,0.0,0.0,0.0,0.0,0.0,0.0,0.0,0.0,0.0,0.0,0.0,0.0,0.0,0.0,0.0,0.0,0.0,0.0,0.0,0.0,0.0,0.0,0.0,0.0,0.0,0.0,0.0,0.0,0.0,0.0,0.0,0.0,0.0,0.0,0.0,0.0,0.0,0.0,0.0,0.0,0.0,0.0,0.0,0.0,0.0,0.0,0.0,0.0,0.0,0.0,0.0,0.0,0.0,0.0,0.0,0.0,0.0,0.0,0.0,0.0,0.0,0.0,0.0,0.0,0.0,0.0,0.0,0.0,0.0,0.0,0.0,0.0,0.0,0.0,0.0,0.0,0.0,0.0,0.0,0.0,0.0,0.0,0.0,0.0,0.0,0.0,0.0,0.0,0.0,0.0,0.0,0.0,0.0,0.0,0.0,0.0,0.0,0.0,0.0,0.0,0.0,0.0,0.0,0.0,0.0,0.0,0.0,0.0,0.0,0.0,0.0,0.0,0.0,0.0,0.0,0.0,0.0,0.0,0.0,0.0,0.0,0.0,0.0,0.0,0.0,0.0,0.0,0.0,0.0,0.0,0.0,0.0,0.0,0.0,0.0,0.0,0.0,0.0,0.0,0.0,0.0,0.0,0.0,0.0,0.0,0.0,0.0,0.0,0.0,0.0,0.0,0.0,0.0,0.0,0.0,0.0,0.0,0.0,0.0,0.0,0.0,0.0,0.0,0.0,0.0,0.0,0.0,0.0,0.0,0.0,0.0,0.0,0.0,0.0,0.0,0.0,0.0,0.0,0.0,0.0,0.0,0.0,0.0,0.0,0.0,0.0,0.0,0.0,0.0,0.0,0.0,0.0,0.0,0.0,0.0,0.0,0.0,0.0,0.0,0.0,0.0,0.0,0.0,0.0,0.0,0.0,0.0,0.0,0.0,0.0,0.0,0.0,0.0,0.0,0.0,0.0,0.0,0.0,0.0,0.0,0.0,0.0,0.0,0.0,0.0,0.0,0.0,0.0,0.0,0.0,0.0,0.0,0.0,0.0,0.0,0.0,0.0,0.0,0.0,0.0,0.0,0.0,0.0,0.0,0.0,0.0,0.0,0.0,0.0,0.0,0.0,0.0,0.0,0.0,0.0,0.0,0.0,0.0,0.0,0.0,0.0,0.0,0.0,0.0,0.0,0.0,0.0,0.0,0.0,0.0,0.0,0.0,0.0,0.0,0.0,0.0,0.0,0.0,0.0,0.0,0.0,0.0,0.0,0.0,0.0,0.0,0.0,0.0,0.0,0.0,0.0,0.0,0.0,0.0,0.0,0.0,0.0,0.0,0.0,0.0,0.0,0.0,0.0,0.0,0.0,0.0,0.0,0.0,0.0,0.0,0.0,0.0,0.0,0.0,0.0,0.0,0.0,0.0,0.0,0.0,0.0,0.0,0.0,0.0,0.0,0.0,0.0,0.0,0.0,0.0,0.0,0.0,0.0,0.0,0.0,0.0,0.0,0.0,0.0,0.0,0.0,0.0,0.0,0.0,0.0,0.0,0.0,0.0,0.0,0.0,0.0,0.0,0.0,0.0,0.0,0.0,0.0,0.0,0.0,0.0,0.0,0.0,0.0,0.0,0.0,0.0,0.0,-1.9789,0.0,0.0,0.0,0.0,0.0,0.0,0.0,0.0,0.0,0.0,0.0,0.0,0.0,0.0,0.0,0.0,0.0,0.0,0.0,0.0,0.0,0.0,0.0,0.0,-2.361,-2.3729,-2.4036,-2.4066,-2.4358,-2.4986,0.0,0.0,0.0,0.0,0.0,-2.4567,-2.5255,-2.5435,-2.5083,-2.5435,-2.6093,-2.7051,-2.7624,-2.7086,-2.5615,0.0,0.0,0.0,0.0,0.0,0.0,0.0,0.0,0.0,0.0,0.0,0.0,0.0,0.0,0.0,0.0,0.0,0.0,0.0,0.0,0.0,0.0,0.0,0.0,0.0,0.0,0.0,0.0,0.0,0.0,0.0,0.0,0.0,0.0,0.0,0.0,0.0,0.0,0.0,0.0,0.0,0.0,0.0,0.0,0.0,0.0,0.0,0.0,0.0,0.0,0.0,0.0,0.0,0.0,0.0,0.0,0.0,0.0,0.0,0.0,0.0,0.0,0.0,0.0,0.0,0.0,0.0,0.0,0.0,0.0,0.0,-2.0168,0.0,0.0,0.0,0.0,0.0,0.0,0.0,0.0,0.0,0.0,0.0,0.0,0.0,0.0,0.0,0.0,0.0,0.0,0.0,0.0,0.0,-2.364,-2.3759,-2.3789,-2.4036,-2.4724,-2.4784,-2.5232,-2.6333,-2.5914,0.0,0.0,0.0,-2.5734,-2.5615,-2.5824,-2.5944,-2.5944,-2.6542,-2.7709,-2.9505,-3.1331,-3.0434,-2.732,-2.729,0.0,0.0,0.0,0.0,0.0,0.0,0.0,0.0,0.0,0.0,0.0,0.0,0.0,0.0,0.0,0.0,0.0,0.0,0.0,0.0,0.0,0.0,0.0,0.0,0.0,0.0,0.0,0.0,0.0,0.0,0.0,0.0,0.0,0.0,0.0,0.0,0.0,0.0,0.0,0.0,0.0,0.0,0.0,0.0,0.0,0.0,0.0,0.0,0.0,0.0,0.0,0.0,0.0,0.0,0.0,0.0,0.0,0.0,0.0,0.0,0.0,0.0,0.0,-2.5202,-2.5681,-2.6123,-2.6123,-2.6123,-2.5974,-2.3229,-2.1754,-2.1196,-2.1196,0.0,0.0,0.0,0.0,0.0,0.0,0.0,0.0,0.0,0.0,0.0,0.0,0.0,0.0,0.0,0.0,0.0,0.0,0.0,-2.3819,-2.4395,-2.4485,-2.4724,-2.5412,-2.5465,-2.5555,-2.5734,-2.5644,-2.5644,-2.5734,-2.6183,-2.6183,-2.5615,-2.6746,-2.7345,-2.7345,-3.0193,-3.2018,-3.2886,-3.4322,-3.4711,-3.4083,-3.124,-3.0582,-3.145,0.0,0.0,0.0,0.0,0.0,0.0,0.0,0.0,0.0,0.0,0.0,0.0,0.0,0.0,0.0,0.0,0.0,0.0,0.0,0.0,0.0,0.0,0.0,0.0,0.0,0.0,0.0,0.0,0.0,0.0,0.0,0.0,0.0,0.0,0.0,0.0,0.0,0.0,0.0,0.0,0.0,-2.337,-2.346,0.0,0.0,0.0,0.0,0.0,0.0,0.0,0.0,0.0,0.0,0.0,0.0,0.0,-2.7106,-2.7679,-2.8364,-2.8723,-2.8813,-2.8903,-2.8667,-2.8218,-2.8218,-2.8218,-2.8188,-2.7739,0.0,-2.3221,-2.3221,0.0,0.0,0.0,0.0,0.0,0.0,0.0,0.0,0.0,0.0,0.0,0.0,0.0,0.0,0.0,0.0,0.0,0.0,0.0,0.0,0.0,-2.5615,-2.6542,-2.723,-2.8637,-2.9026,-2.7919,-2.8517,-2.8252,-2.6782,-2.7016,-2.7016,-2.6746,-2.7675,-2.9082,-3.0939,-3.3844,-3.5789,-3.6866,-3.8182,-3.8811,-3.8721,-3.6896,-3.4741,-3.2407,-3.13,0.0,0.0,0.0,0.0,0.0,0.0,0.0,0.0,0.0,0.0,0.0,0.0,0.0,0.0,0.0,0.0,0.0,0.0,0.0,0.0,0.0,0.0,0.0,0.0,0.0,0.0,0.0,0.0,0.0,0.0,0.0,0.0,0.0,0.0,0.0,0.0,0.0,0.0,0.0,-2.4088,-2.4559,-2.4118,-2.4437,-2.4662,0.0,0.0,0.0,0.0,0.0,0.0,0.0,0.0,0.0,-2.9448,-2.9848,-3.0176,-3.0465,-3.113,-3.1606,-3.1956,-3.2337,-3.2346,-3.2035,-3.2035,-3.1784,-3.136,-3.136,-3.0103,-2.7893,-2.6063,-2.4298,-2.2742,0.0,0.0,0.0,0.0,-2.2712,-2.3379,0.0,0.0,0.0,0.0,0.0,0.0,0.0,0.0,0.0,0.0,0.0,0.0,-2.5292,-2.7141,-2.8753,-2.9774,-3.148,-3.1898,-3.0432,-3.0612,-2.9976,-2.8168,-2.7926,-2.7926,-2.8077,-2.9432,-3.148,-3.4262,-3.7225,-3.9349,-4.0696,-4.1833,-4.2551,-4.2851,-4.1833,-3.8931,-3.4711,-3.3724,-3.2138,0.0,0.0,0.0,0.0,0.0,0.0,0.0,0.0,0.0,0.0,0.0,0.0,0.0,0.0,0.0,0.0,0.0,0.0,0.0,0.0,0.0,0.0,0.0,0.0,0.0,0.0,0.0,0.0,0.0,0.0,0.0,0.0,0.0,0.0,0.0,0.0,0.0,0.0,-2.5227,-2.5757,-2.4739,-2.5777,-2.6298,0.0,0.0,0.0,0.0,0.0,0.0,-2.9502,-3.0238,-3.1235,-3.255,-3.2797,-3.2991,-3.3128,-3.4007,-3.4659,-3.5122,-3.5803,-3.5879,-3.5481,-3.5481,-3.4941,-3.3993,-3.3993,-3.3365,-3.2019,-2.9086,-2.6782,-2.5076,-2.465,-2.447,-2.447,-2.447,-2.5076,-2.595,0.0,0.0,0.0,0.0,0.0,0.0,0.0,0.0,0.0,0.0,0.0,-2.5322,-2.7255,-2.9175,-3.115,-3.3066,-3.2796,-3.2467,-3.2377,-3.0103,-2.8953,-2.9404,-2.8779,-2.8748,-2.9398,-3.2579,-3.4923,-3.6327,-4.0254,-4.2791,-4.4077,-4.4766,-4.5783,-4.692,-4.4975,-4.294,-4.0733,-3.6956,-3.528,-3.4831,0.0,0.0,0.0,0.0,0.0,0.0,0.0,0.0,0.0,0.0,0.0,0.0,0.0,0.0,0.0,0.0,0.0,0.0,0.0,0.0,0.0,0.0,0.0,0.0,0.0,0.0,0.0,0.0,0.0,0.0,0.0,0.0,0.0,0.0,0.0,0.0,0.0,0.0,0.0,-2.538,-2.7666,0.0,0.0,0.0,0.0,-2.9307,-3.0511,-3.1583,-3.2332,-3.3036,-3.3749,-3.446,-3.5228,-3.591,-3.6529,-3.7908,-3.8614,-3.8646,-3.9381,-3.8959,-3.7561,-3.7561,-3.678,-3.54,-3.54,-3.5011,-3.4204,-3.2108,-3.0492,-2.9322,-2.9262,-2.9262,-2.9262,-2.9262,-2.9292,-2.9352,0.0,0.0,0.0,0.0,0.0,-2.361,-2.361,-2.361,-2.3759,-2.4186,-2.5585,-2.744,-2.9864,-3.2647,-3.4981,-3.6507,-3.7225,-3.6686,-3.4562,-3.2736,-3.1264,-3.0186,-2.9152,-2.9671,-3.2033,-3.4508,-3.7289,-4.0314,-4.3389,-4.5574,-4.689,-4.7549,-4.8161,-4.8506,-4.7369,-4.6232,-4.4915,-4.0516,-3.7434,-3.531,-3.3006,-3.118,0.0,0.0,0.0,0.0,0.0,0.0,0.0,0.0,0.0,0.0,0.0,0.0,0.0,0.0,0.0,0.0,0.0,0.0,0.0,0.0,0.0,0.0,0.0,0.0,0.0,0.0,0.0,0.0,0.0,0.0,0.0,0.0,0.0,0.0,0.0,0.0,0.0,-2.927,-3.106,0.0,-3.0958,-3.1011,-3.1583,-3.2673,-3.3617,-3.488,-3.6639,-3.7388,-3.8329,-3.9512,-3.984,-4.0107,-4.0346,-4.0845,-4.1084,-4.1084,-4.135,-4.0951,-3.9936,-3.9936,-3.9104,-3.7653,-3.7156,-3.6504,-3.5768,-3.4571,-3.2766,-3.0763,-3.0342,-3.0163,-3.0163,-3.0163,-3.0731,-3.148,0.0,0.0,0.0,0.0,-2.361,-2.361,-2.361,-2.361,-2.3849,-2.4515,-2.6542,-2.8996,-3.1839,-3.534,-3.8093,-3.9625,-3.9948,-3.8871,-3.6028,-3.3939,-3.2004,-3.0219,-3.0189,-3.1671,-3.4756,-3.7417,-4.0307,-4.3399,-4.6022,-4.7878,-4.8955,-4.9164,-4.9539,-4.9883,-4.9015,-4.8506,-4.8057,-4.4556,-4.0905,-3.7315,-3.531,-3.3694,-3.2228,0.0,0.0,0.0,0.0,0.0,0.0,0.0,0.0,0.0,0.0,0.0,0.0,0.0,0.0,0.0,0.0,0.0,0.0,0.0,0.0,0.0,0.0,0.0,0.0,0.0,0.0,0.0,0.0,0.0,0.0,0.0,0.0,0.0,0.0,0.0,-3.2131,-3.2463,-3.4754,-3.5918,-3.5014,-3.526,-3.5941,-3.7053,-3.7584,-3.8633,-4.0392,-4.0933,-4.1644,-4.2625,-4.2658,-4.2794,-4.3064,-4.3091,-4.3091,-4.3091,-4.3335,-4.2775,-4.1535,-4.1275,-4.0291,-3.8804,-3.8279,-3.7589,-3.6839,-3.6432,-3.5056,-3.3095,-3.2467,-3.2198,-3.2198,-3.2198,-3.2766,-3.3484,0.0,0.0,0.0,-2.361,-2.361,-2.361,-2.361,-2.361,-2.3849,-2.4545,-2.6966,-2.9924,-3.3245,-3.7135,-4.0307,-4.2291,-4.0606,-3.8631,-3.6626,-3.3326,-3.0855,-2.9645,-3.2098,-3.4783,-3.7489,-4.1324,-4.3977,-4.5394,-4.8071,-4.9613,-5.0196,-4.9643,-5.0032,-5.1199,-4.9912,-4.9673,-5.0136,-4.8865,-4.5723,-4.1362,-3.8003,-3.6596,-3.6088,0.0,0.0,0.0,0.0,0.0,0.0,0.0,0.0,0.0,0.0,0.0,0.0,0.0,0.0,0.0,0.0,0.0,0.0,0.0,0.0,0.0,0.0,0.0,0.0,0.0,0.0,0.0,0.0,0.0,0.0,0.0,0.0,0.0,-3.124,-3.3538,-3.5029,-3.4767,-3.8633,-4.046,-3.8328,-4.0054,-4.161,-4.2354,-4.2388,-4.2726,-4.3443,-4.3511,-4.3511,-4.3511,-4.3511,-4.3876,-4.4682,-4.4682,-4.4682,-4.4682,-4.5399,-4.4582,-4.2385,-4.1547,-4.0293,-3.8837,-3.8805,-3.8348,-3.7515,-3.7707,-3.7301,-3.6547,-3.5791,-3.5519,-3.5519,-3.5519,-3.5519,-3.54,0.0,0.0,-2.361,-2.361,-2.361,-2.361,-2.361,-2.361,-2.4029,-2.5173,-2.8038,-3.1599,-3.5878,-3.9469,-4.2162,-4.3658,-4.1983,-3.9589,-3.6686,-3.3337,-3.1526,-3.1647,-3.4241,-3.7349,-4.0932,-4.2989,-4.5155,-4.7459,-4.9134,-5.0016,-5.0196,-5.105,-5.1588,-5.1887,-5.105,-5.078,-5.0823,-4.9553,-4.8041,-4.6052,-4.2321,-3.929,-3.6896,0.0,0.0,0.0,0.0,0.0,0.0,0.0,0.0,0.0,0.0,0.0,0.0,0.0,0.0,0.0,0.0,0.0,0.0,0.0,0.0,0.0,0.0,0.0,0.0,0.0,0.0,0.0,0.0,0.0,0.0,0.0,-3.3435,-3.4292,-3.5127,-3.6774,-3.8447,-3.9995,-4.2219,-4.343,-4.2821,-4.3328,-4.3944,-4.4722,-4.4756,-4.5094,-4.5838,-4.5872,-4.5872,-4.5872,-4.5872,-4.5974,-4.6177,-4.6206,-4.6206,-4.6206,-4.638,-4.5887,-4.474,-4.4507,-4.3569,-4.2075,-4.155,-4.0867,-4.0112,-3.9617,-3.9246,-3.8811,-3.643,-3.5519,-3.5519,-3.5519,-3.5519,-3.5489,0.0,-2.361,-2.361,-2.361,-2.361,-2.361,-2.361,-2.361,-2.4088,-2.5435,-2.87,-3.2497,-3.6567,-3.9738,-4.2073,-4.3389,-4.1175,-3.8452,-3.5429,-3.2886,-3.2406,-3.4455,0.0,-4.0127,-4.3549,-4.5424,-4.7279,-4.9105,-5.0152,-5.0614,-5.0614,-5.1439,-5.1947,-5.2187,-5.1798,-5.1618,-5.1588,-5.081,-4.9972,-4.8865,-4.6334,-4.3599,-4.0816,-3.7734,-3.6237,-3.5549,-3.3365,-3.2736,-3.2557,-3.0073,0.0,0.0,0.0,0.0,0.0,0.0,0.0,0.0,0.0,0.0,0.0,0.0,0.0,0.0,0.0,0.0,0.0,0.0,0.0,0.0,0.0,0.0,0.0,0.0,-3.6804,-3.7926,-4.0214,-4.0456,-4.1244,-4.3443,-4.506,-4.5974,-4.5974,-4.6244,-4.6616,-4.7056,-4.6819,-4.6819,-4.7259,-4.7259,-4.7259,-4.7259,-4.7259,-4.7394,-4.7699,-4.7428,-4.7259,-4.7259,-4.7259,-4.6887,-4.6177,-4.5786,-4.4968,-4.3805,-4.3393,-4.2545,-4.1499,-4.1113,-4.0744,0.0,0.0,0.0,0.0,0.0,-3.5519,-3.5519,0.0,-2.361,-2.361,-2.361,-2.361,-2.361,-2.361,-2.361,-2.4088,-2.5435,-2.8969,-3.2587,-3.5789,-3.8482,-4.0576,-4.1841,-3.902,-3.6178,-3.3754,-3.2557,-3.3668,-3.7544,-4.0366,-4.303,-4.5574,-4.8087,-4.9733,-5.0405,-5.1003,-5.1319,-5.1319,-5.1409,-5.1708,-5.2187,-5.2276,-5.2306,-5.2306,-5.2306,-5.1648,-5.0465,-4.9793,-4.8207,-4.5831,-4.1594,-4.0247,-4.0217,-3.7165,-3.534,-3.4143,-3.2587,0.0,0.0,0.0,0.0,0.0,0.0,0.0,0.0,0.0,0.0,0.0,0.0,0.0,0.0,0.0,0.0,0.0,0.0,0.0,0.0,0.0,0.0,0.0,0.0,-4.0038,-4.1376,-4.5481,-4.4432,-4.3919,-4.5747,-4.7192,-4.8007,-4.8007,-4.8612,-4.9052,-4.912,-4.8443,-4.8041,-4.8142,0.0,0.0,0.0,0.0,-4.8342,-4.8984,-4.8376,-4.8007,-4.8007,-4.8007,-4.7665,-4.6891,-4.6127,-4.5322,-4.4561,-4.4561,-4.3702,-4.2299,-4.2476,-4.2064,-4.1083,-3.9281,-3.818,-3.7402,-3.5991,-3.5519,-3.5519,0.0,-2.361,-2.361,-2.361,-2.361,-2.361,-2.361,-2.361,-2.4088,-2.5435,-2.8551,-3.1569,-3.3814,-3.6417,-3.8302,-3.908,-3.7135,-3.5429,-3.4384,-3.4562,-3.6274,-3.9649,-4.2869,-4.5544,-4.7668,-4.9254,-5.0631,-5.1828,-5.1947,-5.2007,-5.2007,-5.2546,-5.2576,-5.2217,-5.2755,-5.2995,-5.2995,-5.2995,-5.2845,-5.2516,-5.1319,-4.9015,-4.607,-4.4107,-4.2791,-4.1811,-4.0068,-3.9619,-3.9409,-3.6507,-3.5699,-3.54,-3.2617,0.0,0.0,0.0,0.0,0.0,0.0,0.0,0.0,0.0,0.0,0.0,0.0,0.0,0.0,0.0,0.0,0.0,0.0,0.0,0.0,-4.0611,-4.2949,-4.5351,-4.7973,-4.852,-4.8321,-4.7567,-4.8274,-4.8781,-4.8781,-4.8917,-4.9255,-4.983,-4.9187,-4.9052,-4.9627,-4.912,-4.8781,-4.8781,-4.8781,-4.8849,-4.9018,-4.8849,-4.8781,-4.8781,0.0,0.0,-4.7669,-4.7514,-4.6683,-4.5437,-4.5437,-4.4942,-4.4121,-4.413,-4.3656,-4.25,-3.9188,-3.7425,-3.6652,-3.5794,-3.5519,-3.5519,0.0,-2.361,-2.361,-2.361,-2.361,-2.361,-2.361,-2.361,-2.3969,-2.4963,-2.741,-2.9711,-3.1389,-3.2976,-3.4352,-3.537,-3.4262,-3.3784,-3.4474,-3.6028,-3.8422,-4.1713,-4.5035,-4.7429,-4.8745,-5.0062,-5.105,-5.1708,-5.1708,-5.1708,-5.1708,-5.2396,-5.2875,-5.3234,-5.3533,-5.3892,-5.4162,-5.3832,-5.3503,-5.3084,-5.2097,-5.072,-4.9045,-4.707,-4.5693,-4.4676,-4.3329,-4.2432,-4.1572,-3.923,-3.7973,-3.7015,-3.4741,-3.3095,-3.1749,0.0,0.0,0.0,0.0,0.0,0.0,0.0,0.0,0.0,0.0,0.0,0.0,0.0,0.0,-3.5199,-3.6679,0.0,-4.0721,-4.4024,-4.5838,-4.7567,-4.9796,-5.0439,-5.0371,-4.963,-4.9898,-5.0101,-5.0101,-5.0101,-5.0101,-5.0101,-4.9763,-4.9695,-5.0067,-4.939,-4.9357,-5.0101,-4.939,-4.9187,-4.956,-4.9187,-4.9018,-4.9018,-4.9018,-4.8815,-4.8477,-4.8477,-4.7868,-4.6786,-4.6413,-4.5838,-4.5128,-4.475,-4.4093,-4.3098,-4.0873,-3.928,-3.815,-3.7872,-3.7216,-3.6557,0.0,-2.361,-2.361,-2.361,-2.361,-2.361,-2.361,-2.361,-2.3849,-2.4515,-2.6243,-2.7824,-2.8903,-2.9564,-3.0313,-3.127,-3.1421,-3.2407,-3.4532,-3.7255,-4.0307,-4.3708,-4.683,-4.8775,-4.9434,-5.075,-5.1468,-5.1588,-5.1738,-5.1798,-5.1798,-5.2336,-5.3114,-5.4012,-5.4162,-5.4491,-5.497,-5.4581,-5.4072,-5.3503,-5.2725,-5.2396,-5.2127,-4.9613,-4.8267,-4.7489,-4.5873,-4.4058,-4.2231,-4.0995,-3.9349,-3.7614,-3.6596,-3.534,-3.3904,-3.2013,-3.15,0.0,0.0,0.0,0.0,0.0,0.0,0.0,0.0,0.0,-3.419,-3.5675,-3.6696,-3.8085,-4.044,-4.14,-4.3136,-4.7237,-4.8379,-4.939,-5.1183,-5.1523,-5.1657,-5.1657,-5.1386,-5.1185,-5.1185,-5.1185,-5.1014,-5.0541,-5.0371,-5.0371,-5.0507,-4.983,-4.9965,-5.1151,-4.9932,-4.9492,-5.0067,-4.9357,-4.9018,-4.9018,-4.9018,-4.9018,-4.9018,-4.9018,-4.8612,-4.7838,-4.6955,-4.6177,-4.5432,-4.4852,-4.4179,-4.3495,-4.2958,-4.1851,-4.0515,-4.0144,-3.909,-3.7839,0.0,-2.361,-2.361,-2.361,-2.361,-2.361,-2.361,-2.361,-2.3849,-2.4515,-2.5824,-2.6752,-2.6901,-2.7525,-2.7764,-2.729,-2.9836,-3.2617,-3.522,-3.8392,-4.1923,-4.5771,-4.8027,-4.9464,-5.0076,-5.1409,-5.2366,-5.2965,-5.3563,-5.3862,-5.3892,-5.3952,-5.3743,-5.3324,-5.3922,-5.4251,-5.4371,-5.485,-5.5029,-5.485,-5.3593,-5.3084,-5.2845,-5.081,-4.9613,-4.876,-4.6202,-4.4058,-4.2291,-4.1542,-4.0337,-3.9134,-3.8985,-3.8063,-3.67,-3.534,-3.3275,-3.1248,-3.0386,-3.0729,-3.1704,-3.3493,-3.3994,-3.4757,0.0,0.0,-3.8695,-4.0155,-4.1572,-4.2652,-4.2989,-4.525,-4.7237,-4.7804,-5.0101,-5.1894,-5.2131,-5.2807,-5.3247,-5.3247,-5.2029,-5.1185,-5.1185,-5.1185,-5.1454,-5.1995,-5.1454,-5.1386,-5.2029,-5.1352,-5.1016,-5.1185,-5.0405,-4.9999,-5.0101,-4.9357,-4.9018,-4.9018,-4.9018,-4.9018,-4.9018,-4.9018,-4.8612,-4.7804,-4.6447,-4.5399,-4.4716,-4.4649,-4.4525,-4.444,-4.4367,-4.3777,-4.2752,-4.0726,-3.9375,-3.8584,0.0,0.0,-2.361,-2.361,-2.361,-2.361,-2.361,-2.361,-2.3699,-2.3999,-2.4507,-2.4837,-2.4837,-2.5465,-2.5734,-2.5442,-2.8487,-3.1689,-3.4711,-3.8362,-4.2192,-4.6142,-4.8207,-4.9763,-5.0734,-5.1349,-5.1947,-5.2606,-5.2516,-5.2456,-5.2486,-5.2845,-5.3084,-5.3204,-5.3892,-5.4431,-5.479,-5.5059,-5.5179,-5.5059,-5.3713,-5.2965,-5.2306,-4.9583,-4.7878,-4.6711,-4.4825,-4.288,0.0,0.0,-3.902,-3.8302,-3.8691,-3.7918,-3.6557,-3.5275,-3.4101,-3.3087,-3.291,-3.2751,-3.3205,-3.5307,-3.6468,-3.7652,-3.9783,-4.0595,-4.1339,-4.2861,-4.435,-4.5635,-4.6515,-4.8037,-4.9458,0.0,-5.1488,-5.2469,-5.2942,-5.2875,-5.2638,-5.2232,-5.1589,-5.1523,-5.2469,-5.2131,-5.1961,-5.2266,-5.2029,-5.1961,-5.2266,-5.1183,-5.0947,-5.1826,-5.0304,-4.9661,-5.0101,-4.9357,-4.9018,-4.9018,-4.9018,-4.9018,-4.9018,-4.9018,-4.8376,-4.7259,-4.7056,-4.6075,-4.4649,-4.506,-4.4993,-4.4615,-4.4615,-4.4384,-4.399,-4.3056,-4.1306,-3.9439,0.0,0.0,0.0,-2.361,-2.361,-2.361,-2.361,-2.361,-2.361,-2.361,-2.361,-2.361,-2.361,-2.4007,-2.4306,-2.4306,-2.72,-3.037,-3.3455,-3.7554,-4.1624,-4.5603,-4.7848,-4.9613,-5.093,-5.1468,-5.1917,-5.2187,-5.2276,-5.2217,-5.2067,-5.2725,-5.3294,-5.3743,-5.4251,-5.476,-5.5179,-5.4999,-5.491,-5.479,-5.3264,-5.2127,-5.102,-4.7728,-4.5424,-4.3778,-4.2432,-4.0726,0.0,0.0,-3.673,-3.6441,-3.7285,-3.7018,-3.6195,-3.5331,-3.4744,-3.4428,-3.4475,-3.4622,-3.5308,-3.7455,-3.9106,-4.0595,-4.2117,-4.2997,-4.391,-4.5229,-4.6515,-4.7733,-4.8815,-4.9763,-5.0744,-5.1826,-5.2367,-5.2773,-5.3112,-5.2503,-5.1725,-5.098,-5.0541,-5.0913,-5.2401,-5.2232,-5.2097,-5.2266,-5.2131,-5.2097,-5.23,-5.1082,-5.0879,-5.1961,-5.0236,-4.956,-5.0067,-4.9357,-4.9018,-4.9018,-4.9018,-4.9018,-4.9018,-4.9018,-4.8308,-4.7124,-4.7665,-4.6752,-4.4925,-4.5466,-4.5263,-4.4615,-4.4615,-4.4615,-4.4615,-4.4615,-4.2983,-4.0879,0.0,0.0,0.0,0.0,-2.361,-2.361,-2.361,-2.361,-2.361,-2.361,-2.361,-2.361,-2.361,-2.361,-2.364,-2.364,-2.6117,-2.8757,-3.1421,-3.5908,-4.0217,-4.4197,-4.689,-4.8925,-5.0196,-5.2127,-5.2815,-5.2187,-5.4132,-5.473,-5.4132,-5.479,-5.5119,-5.5119,-5.5149,-5.5179,-5.5149,-5.4521,-5.4251,-5.4072,-5.2067,-5.0511,-4.903,-4.5663,-4.2791,-4.0367,-3.902,0.0,0.0,-3.4113,-3.3576,-3.3737,-3.506,-3.5848,0.0,-3.6421,-3.5527,-3.4496,-3.4518,-3.6107,-3.8304,-4.0527,-4.2185,-4.3646,-4.5229,-4.6143,-4.6887,-4.7635,-4.8409,-4.8951,-4.8984,-5.0202,-5.1151,-5.1251,-5.2503,-5.3213,-5.2435,-5.1725,-5.098,-5.0202,-4.8883,-4.8578,0.0,-5.0845,-5.1555,-5.2266,-5.1657,-5.1555,-5.2266,-5.1589,-5.1217,-5.1219,-5.0473,-5.0067,-5.0101,-4.9357,-4.9018,-4.9018,-4.9018,-4.9018,-4.9018,-4.9018,-4.8612,-4.7872,-4.7872,-4.7027,-4.5669,-4.5703,-4.5263,-4.4615,-4.4615,-4.4615,-4.4615,-4.4615,-4.4001,-4.3073,0.0,0.0,0.0,0.0,0.0,-2.361,-2.361,-2.361,-2.361,-2.361,-2.361,0.0,0.0,0.0,0.0,0.0,-2.5226,-2.741,-3.0073,-3.3724,-3.7375,-4.0905,-4.4018,-4.6471,-4.8267,-4.9374,-5.0242,-5.0853,-5.1139,-5.1139,-5.093,-5.1169,-5.1498,-5.187,-5.2366,-5.2785,-5.3174,-5.2965,-5.2636,-5.2007,-4.9583,-4.7818,-4.6172,-4.1983,-3.932,-3.7404,0.0,0.0,0.0,-3.1473,-3.1416,-3.2212,-3.3132,-3.3513,-3.3738,-3.428,-3.4824,-3.5554,-3.7077,-3.9106,-4.1373,-4.3639,-4.5297,-4.6621,-4.7665,-4.8071,-4.8206,-4.7939,-4.7733,-4.753,-4.753,-4.8342,-4.9357,-5.0304,-5.1725,-5.2604,-5.2334,-5.1691,-5.0543,-4.8849,-4.8206,0.0,0.0,0.0,0.0,-5.1488,-5.1792,-5.2063,-5.23,-5.1623,-5.1185,-5.1185,-5.0033,-4.9357,-4.9357,-4.912,-4.9018,-4.9018,-4.9018,-4.9018,-4.9018,-4.9018,-4.8612,-4.7906,-4.8443,-4.753,-4.5737,-4.6244,-4.5703,-4.4615,-4.4615,-4.4615,-4.4547,-4.4012,-4.3945,-4.4035,0.0,0.0,0.0,0.0,0.0,0.0,0.0,0.0,0.0,0.0,0.0,0.0,0.0,0.0,0.0,0.0,0.0,-2.6183,-2.8368,-3.1389,-3.4322,-3.7195,-4.0217,-4.2551,-4.4077,-4.5005,-4.5753,-4.6339,-4.689,-4.704,-4.6843,-4.7562,-4.8207,-4.882,-4.9239,-4.9823,-5.0421,-4.9942,-4.9344,-4.8536,-4.5903,-4.3898,-4.2043,-3.8123,-3.5699,0.0,0.0,0.0,-3.0834,-2.9616,-2.9863,-3.0792,-3.1437,-3.2119,-3.2896,-3.3903,-3.56,-3.7696,-3.9952,-4.2388,-4.479,-4.6786,-4.8206,-4.9154,-4.9357,-4.9187,-4.8714,-4.7733,-4.6718,-4.6007,-4.6007,-4.638,-4.7124,-4.8342,-4.9526,-5.0507,-5.1048,-5.027,-4.9323,-4.8409,-4.7834,-4.7259,0.0,0.0,0.0,-5.0338,-5.1116,-5.1623,-5.1894,-5.1488,-5.1185,-5.1185,-5.0304,-4.9661,-4.939,-4.939,-4.9255,-4.9018,-4.9018,-4.9018,-4.9018,-4.9018,-4.8748,-4.8342,-4.8815,-4.7902,-4.6143,-4.6583,-4.5906,-4.4615,-4.4615,-4.4615,-4.4513,-4.3707,-4.371,-4.403,0.0,0.0,0.0,0.0,0.0,0.0,0.0,0.0,0.0,0.0,0.0,0.0,0.0,0.0,0.0,0.0,0.0,0.0,-2.6393,0.0,0.0,-3.3155,-3.5759,-3.7494,-3.8182,-3.9499,-3.9918,-3.932,-4.1765,-4.2701,-4.2171,-4.4018,-4.5244,-4.5891,-4.5891,-4.6292,-4.683,-4.5514,-4.4556,-4.3718,-4.1145,-3.8931,-3.6926,-3.4292,0.0,0.0,0.0,0.0,-2.8487,-2.8487,-2.8967,-2.9659,-3.0281,-3.1892,-3.3863,-3.5329,-3.7898,-4.0738,-4.297,-4.5776,-4.8379,-4.9796,-5.0676,-5.1014,-5.0202,-4.9424,-4.8477,-4.6921,-4.5432,-4.4412,0.0,0.0,-4.475,-4.5534,-4.638,-4.7462,-4.8917,-4.7936,-4.7564,0.0,0.0,0.0,0.0,0.0,0.0,-4.9018,0.0,-5.0473,-5.1219,-5.1285,-5.1285,-5.1285,-5.1151,-5.0811,-5.0101,-5.0067,-4.9695,-4.9018,-4.9018,-4.9018,-4.9018,-4.8951,-4.8951,-4.8951,-4.8917,-4.8071,-4.6718,-4.6718,-4.5872,-4.4615,-4.4615,-4.4587,-4.4457,-4.3652,-4.3246,-4.3098,0.0,0.0,0.0,0.0,0.0,0.0,0.0,0.0,0.0,0.0,0.0,0.0,0.0,0.0,0.0,0.0,0.0,0.0,-2.5053,0.0,0.0,0.0,0.0,0.0,0.0,0.0,0.0,0.0,-3.8601,-3.8841,-3.8691,-3.917,-3.9768,-4.0397,-4.0397,-4.0786,-4.1384,-4.0516,-3.9768,-3.899,0.0,-3.54,-3.4203,0.0,0.0,0.0,0.0,0.0,-2.8487,-2.8487,-2.9948,-3.1802,-3.2402,-3.4127,-3.6197,-3.7686,-4.0257,-4.3037,-4.5331,-4.8105,-5.0473,-5.0845,-5.1082,-5.0879,-4.956,-4.8274,-4.6786,-4.4688,-4.3098,-4.1745,0.0,0.0,0.0,-4.4682,-4.7327,0.0,-5.0507,-5.0811,0.0,-4.9898,0.0,-4.912,-4.8748,-4.9221,0.0,0.0,-5.0507,-5.1251,-5.1995,-5.2029,-5.2029,-5.2029,-5.0947,-5.027,-5.0101,-4.956,-4.9187,-4.9018,-4.9018,-4.9018,-4.8984,-4.8443,-4.8206,-4.8173,-4.7597,-4.6853,-4.5974,-4.5974,-4.5432,-4.4615,-4.4615,-4.4179,-4.3522,-4.2792,-4.2124,-4.1557,0.0,0.0,0.0,0.0,0.0,0.0,0.0,0.0,0.0,0.0,0.0,0.0,0.0,0.0,0.0,0.0,0.0,0.0,0.0,0.0,0.0,0.0,0.0,0.0,0.0,0.0,0.0,0.0,0.0,0.0,-3.3993,-3.4562,-3.519,-3.5818,-3.5818,-3.6178,-3.6776,-3.6088,0.0,0.0,0.0,0.0,0.0,0.0,0.0,0.0,0.0,0.0,0.0,-3.0607,-3.2131,-3.4108,-3.5431,-3.7178,-3.914,-4.1305,-4.3572,-4.5843,-4.8139,-5.0439,-5.2131,-5.1792,-5.1454,-5.0642,-4.8511,-4.6887,-4.5094,-4.2496,-4.0798,-3.9512,-3.8667,-3.9783,0.0,0.0,0.0,0.0,-4.9999,-5.0608,-5.0913,0.0,-5.0777,0.0,-5.0033,-5.0338,-5.071,0.0,-5.1454,-5.186,-5.2266,-5.2638,-5.2841,-5.2841,-5.1691,-5.0744,-5.0101,-4.9357,-4.9018,-4.9018,-4.9018,-4.9018,-4.8984,-4.8578,-4.821,-4.7872,0.0,-4.6684,-4.5703,-4.5703,-4.5263,-4.4615,-4.4615,-4.4298,-4.3698,-4.2282,-4.1434,-4.0894,0.0,0.0,0.0,0.0,0.0,0.0,0.0,0.0,0.0,0.0,-2.361,0.0,0.0,0.0,0.0,0.0,0.0,0.0,0.0,0.0,0.0,0.0,0.0,0.0,0.0,0.0,0.0,0.0,0.0,0.0,0.0,0.0,0.0,0.0,0.0,0.0,0.0,0.0,0.0,0.0,0.0,0.0,0.0,0.0,0.0,0.0,0.0,0.0,0.0,0.0,-3.4831,-3.658,-3.8734,-4.0595,-4.2489,-4.5331,-4.7192,-4.8751,-5.0779,-5.2401,-5.3315,-5.2503,-5.1623,-5.0168,-4.7293,-4.5331,-4.3301,-4.0426,-3.8777,-3.7889,-3.7787,-3.8531,-3.9648,-4.1238,0.0,-4.5906,-4.8883,-4.939,-5.0202,-5.2232,-5.1894,-5.1522,-5.1522,-5.1522,-5.1792,-5.2401,-5.2469,-5.2469,-5.2469,-5.3112,-5.345,-5.3348,-5.2672,-5.1589,-5.0101,-4.9458,-4.9086,-4.9018,-4.9018,-4.9018,-4.9018,-4.8917,-4.8477,-4.7767,-4.7635,-4.6887,-4.5703,-4.5602,-4.5229,-4.475,-4.4649,-4.4525,-4.4158,-4.2109,-4.1089,-4.061,0.0,0.0,0.0,0.0,0.0,0.0,0.0,0.0,0.0,0.0,-2.361,-2.361,0.0,0.0,0.0,0.0,0.0,0.0,0.0,0.0,0.0,0.0,0.0,0.0,0.0,0.0,0.0,0.0,0.0,0.0,0.0,0.0,0.0,0.0,0.0,0.0,0.0,0.0,0.0,0.0,0.0,0.0,0.0,0.0,0.0,0.0,0.0,0.0,0.0,0.0,-3.6658,-3.9589,-4.1204,-4.3606,-4.6177,-4.7936,-4.9492,-5.0813,-5.186,-5.2807,-5.3315,-5.2503,-5.0845,-4.8781,-4.6413,-4.3775,0.0,-3.8768,-3.8091,-3.7719,-3.71,-3.8599,-4.0569,-4.2665,-4.4925,-4.7428,-5.0405,-5.1352,-5.2131,0.0,-5.3179,-5.3112,-5.3112,-5.3112,0.0,0.0,0.0,-5.3281,-5.3281,-5.3416,-5.3213,-5.2536,-5.2367,-5.1589,-5.0101,-4.9965,-4.9593,-4.9018,-4.9018,-4.9018,-4.8984,-4.8376,-4.7699,-4.6955,-4.6346,0.0,-4.5669,-4.5026,-4.506,-4.5466,-4.4852,-4.415,-4.341,-4.226,-4.1055,-3.9862,0.0,0.0,0.0,0.0,0.0,0.0,0.0,-2.361,-2.361,-2.361,-2.361,-2.361,-2.361,-2.361,-2.361,0.0,0.0,0.0,0.0,0.0,0.0,0.0,0.0,0.0,0.0,0.0,-2.7255,-2.7585,0.0,0.0,0.0,0.0,0.0,0.0,0.0,0.0,0.0,0.0,0.0,0.0,0.0,0.0,0.0,0.0,0.0,0.0,0.0,0.0,0.0,0.0,-3.6792,-4.0502,-4.276,-4.5534,-4.824,-4.9729,-5.0676,-5.1454,-5.2604,-5.3213,-5.3213,-5.2029,-5.0067,-4.7665,-4.4621,0.0,0.0,-3.7155,-3.6681,-3.6603,-3.6231,-3.8024,0.0,-4.1441,-4.3572,-4.6075,-4.9055,-5.0135,-5.115,-5.2706,-5.3247,-5.3518,0.0,-5.3518,-5.3518,-5.3518,0.0,-5.3518,-5.3518,-5.3518,-5.3145,-5.2334,-5.1928,-5.1217,-5.0101,-4.9729,-4.9357,-4.9018,-4.9018,-4.9018,-4.8984,-4.8646,-4.7868,-4.6786,-4.6413,0.0,-4.5094,-4.475,-4.4818,-4.5094,-4.475,-4.4355,-4.3823,-4.2589,-4.137,-4.0289,0.0,0.0,0.0,0.0,0.0,0.0,0.0,-2.361,-2.361,-2.361,-2.361,-2.361,-2.361,-2.361,-2.361,0.0,0.0,0.0,0.0,0.0,0.0,0.0,0.0,0.0,0.0,0.0,0.0,-2.7375,-2.7525,0.0,0.0,0.0,0.0,0.0,-2.7585,0.0,0.0,0.0,0.0,0.0,0.0,0.0,0.0,0.0,0.0,0.0,0.0,0.0,0.0,0.0,-3.6051,-3.9589,-4.2286,-4.5635,-4.8748,-4.9932,-5.0678,-5.1522,-5.2875,-5.3382,-5.3112,-5.1386,-4.9323,-4.6684,-4.2929,-4.0358,-3.8159,-3.6039,-3.56,-3.5633,-3.5825,-3.7449,-3.9106,0.0,-4.1914,-4.4282,-4.7432,-4.8545,-4.983,0.0,-5.301,0.0,-5.3518,-5.3518,0.0,-5.3518,0.0,0.0,-5.3518,-5.3518,-5.3145,-5.2334,-5.1758,-5.1014,-5.0101,-4.9526,-4.9154,-4.9018,-4.9018,-4.9018,-4.9018,-4.9018,-4.8274,-4.7022,-4.7022,0.0,0.0,-4.4919,-4.4852,-4.4818,-4.4682,-4.4615,-4.4429,-4.3016,-4.1952,-4.1087,0.0,0.0,0.0,0.0,0.0,0.0,0.0,-2.361,-2.361,-2.361,-2.361,-2.361,-2.361,-2.361,-2.361,0.0,0.0,0.0,0.0,0.0,0.0,0.0,0.0,0.0,0.0,0.0,0.0,-2.6716,-2.7315,0.0,0.0,0.0,0.0,0.0,0.0,-2.7585,-2.7585,0.0,0.0,0.0,0.0,0.0,0.0,0.0,0.0,0.0,0.0,0.0,-3.0127,-3.2603,-3.4563,-3.6309,-3.799,-4.2422,-4.7022,-4.7158,-4.912,-5.1386,-5.2198,-5.2942,-5.2976,-5.0744,-4.8545,-4.5906,-4.2151,0.0,-3.755,-3.5938,-3.56,-3.5802,-3.6558,-3.7415,-3.87,-4.0764,0.0,-4.3673,-4.7365,-4.8545,-4.983,-5.2029,0.0,0.0,-5.3518,-5.3518,0.0,0.0,0.0,0.0,-5.3518,-5.3518,-5.3145,-5.2334,-5.2232,-5.1522,-5.0101,-5.0033,-4.9661,-4.9018,-4.9018,-4.9018,-4.9018,-4.9018,-4.8578,-4.7804,-4.7804,0.0,0.0,-4.5872,-4.5602,-4.5534,-4.4857,-4.4615,-4.4468,-4.3555,-4.2641,-4.1757,0.0,0.0,0.0,0.0,0.0,0.0,-2.352,-2.361,-2.361,-2.361,-2.361,-2.361,-2.361,-2.361,-2.361,-2.361,0.0,0.0,0.0,0.0,0.0,0.0,0.0,0.0,0.0,0.0,-2.6602,-2.6602,-2.7285,0.0,0.0,0.0,0.0,0.0,0.0,-2.7585,-2.7585,0.0,0.0,0.0,0.0,0.0,0.0,0.0,0.0,0.0,0.0,0.0,-3.0098,-3.116,-3.2744,-3.4213,-3.3964,-3.7347,0.0,-4.5229,-4.7597,-4.9695,-5.1758,-5.2875,-5.2942,-5.0676,-4.8443,-4.5805,-4.2049,0.0,-3.7483,-3.5904,-3.56,-3.5701,-3.6028,-3.6705,-3.7652,-3.9005,0.0,0.0,-4.4079,-4.479,-4.6278,-4.9898,-5.098,0.0,0.0,0.0,-5.3518,0.0,0.0,0.0,-5.3518,-5.3518,-5.3348,-5.3044,-5.2131,-5.1352,-5.0777,-4.9864,-4.9289,-4.9018,-4.9018,-4.9018,-4.9018,-4.9018,-4.8612,-4.7872,-4.7428,0.0,0.0,-4.5534,-4.5297,-4.5635,-4.4886,-4.4615,-4.4559,-4.4212,-4.3199,-4.1949,0.0,0.0,0.0,0.0,0.0,-2.2912,-2.352,-2.361,-2.361,-2.361,-2.361,-2.361,-2.361,-2.361,-2.361,-2.361,-2.361,0.0,0.0,0.0,0.0,0.0,0.0,0.0,0.0,0.0,-2.6303,-2.6303,-2.7165,-2.7585,0.0,0.0,-2.7585,-2.7585,0.0,0.0,0.0,0.0,0.0,0.0,0.0,0.0,0.0,0.0,0.0,0.0,0.0,0.0,0.0,0.0,0.0,-3.2577,-3.1529,0.0,0.0,0.0,-4.506,-4.7767,-5.0067,-5.1725,-5.23,-4.9999,-4.7767,-4.5196,-4.1677,0.0,-3.7212,-3.587,-3.56,-3.56,-3.56,-3.6434,-3.728,0.0,0.0,-3.9445,-4.1948,-4.2489,-4.3978,0.0,0.0,-4.9999,0.0,-5.3112,0.0,0.0,0.0,0.0,-5.3518,-5.3518,-5.3382,-5.3145,-5.2097,-5.1319,-5.0879,-4.983,-4.9221,-4.9018,-4.9018,-4.9018,-4.9018,-4.9018,-4.8714,-4.8206,-4.7665,0.0,0.0,-4.5698,-4.5297,-4.5331,-4.4818,-4.4615,-4.4615,-4.4615,-4.3499,-4.1981,0.0,0.0,0.0,0.0,0.0,0.0,-2.352,-2.361,-2.361,-2.361,-2.361,-2.361,-2.361,-2.361,-2.361,-2.361,-2.361,0.0,0.0,0.0,0.0,0.0,0.0,0.0,0.0,0.0,-2.5615,-2.5615,-2.6956,-2.7585,-2.7585,-2.7585,-2.7585,-2.7585,0.0,0.0,0.0,0.0,0.0,0.0,0.0,0.0,0.0,0.0,0.0,0.0,0.0,0.0,0.0,0.0,0.0,0.0,0.0,-3.1752,-3.297,0.0,-4.1068,-4.5906,-4.665,-4.8984,-5.0678,-4.848,-4.6244,-4.3836,-4.079,-3.8386,-3.6592,-3.5769,-3.56,-3.56,-3.56,-3.685,-3.7889,-3.7922,0.0,0.0,-4.2083,-4.2929,-4.395,0.0,0.0,-4.7699,-4.9898,-5.2164,0.0,0.0,0.0,0.0,-5.3518,-5.3518,-5.3145,-5.2334,-5.23,-5.1589,-5.0135,-5.0101,-4.9729,-4.9018,-4.9018,-4.9018,-4.9018,-4.9018,-4.9018,-4.8984,0.0,0.0,0.0,-4.6786,-4.5906,-4.4615,-4.4615,-4.4615,-4.4615,-4.4615,-4.3499,-4.1981,0.0,0.0,0.0,0.0,0.0,0.0,0.0,-2.361,-2.361,-2.361,-2.361,-2.361,-2.361,-2.361,-2.361,-2.361,-2.4007,0.0,0.0,0.0,0.0,0.0,0.0,0.0,0.0,0.0,-2.6063,-2.5615,-2.6956,-2.7585,-2.7585,-2.7585,-2.7585,-2.7585,-2.7585,-2.7585,0.0,0.0,0.0,0.0,0.0,0.0,0.0,0.0,0.0,0.0,0.0,0.0,0.0,0.0,0.0,0.0,0.0,0.0,0.0,-3.3444,-3.7235,-4.161,-4.3876,-4.5568,-4.6244,-4.4519,-4.3166,-4.1644,-3.914,-3.7652,-3.6569,-3.5769,-3.56,-3.56,-3.56,-3.6005,-3.6648,-3.7753,-3.8294,0.0,0.0,0.0,0.0,-4.6143,-4.9357,-5.1657,0.0,0.0,0.0,0.0,0.0,0.0,-5.3518,-5.3518,-5.3145,-5.2334,-5.1826,-5.1082,-5.0101,-4.9593,-4.9221,-4.9018,-4.9018,-4.9018,-4.9018,-4.9018,-4.9018,0.0,0.0,0.0,0.0,-4.5906,-4.5297,-4.5297,-4.4818,-4.4615,-4.453,-4.3948,-4.2986,-4.1885,0.0,0.0,0.0,0.0,0.0,0.0,0.0,-2.361,-2.361,-2.361,-2.361,-2.361,-2.361,-2.361,-2.361,-2.361,-2.4425,0.0,0.0,0.0,0.0,0.0,0.0,0.0,0.0,-2.5465,-2.6004,-2.5615,-2.6956,-2.7585,-2.7585,-2.7585,-2.7585,-2.7585,-2.7585,-2.7585,0.0,0.0,0.0,0.0,0.0,0.0,-2.7585,0.0,0.0,0.0,0.0,0.0,0.0,0.0,0.0,0.0,0.0,0.0,0.0,0.0,-3.4493,-3.755,-4.0527,-4.2489,-4.343,-4.2185,-4.1136,-3.9952,-3.8294,-3.7077,-3.6197,-3.5701,-3.56,-3.56,-3.56,-3.5859,-3.6366,-3.7313,-3.7956,-3.8633,0.0,0.0,0.0,-4.6041,0.0,0.0,0.0,0.0,0.0,0.0,0.0,0.0,-5.3518,-5.3213,-5.2706,-5.1928,-5.1725,-5.115,-5.0101,-4.9627,-4.9289,-4.9018,-4.9018,-4.9018,-4.9018,-4.9018,-4.9018,0.0,0.0,0.0,0.0,-4.5703,-4.5128,-4.5229,-4.4784,-4.4412,-4.4035,-4.3502,-4.2552,-4.1429,0.0,0.0,0.0,0.0,0.0,0.0,0.0,-2.361,-2.361,-2.361,-2.361,-2.361,-2.361,-2.361,-2.361,-2.367,0.0,0.0,0.0,0.0,0.0,0.0,0.0,0.0,-2.4694,-2.5262,-2.5644,-2.5674,-2.6986,-2.7585,-2.7585,-2.7585,-2.7585,-2.7585,-2.7585,-2.7585,-2.7585,0.0,0.0,0.0,-2.7585,-2.7585,0.0,0.0,0.0,0.0,0.0,0.0,0.0,0.0,0.0,0.0,0.0,0.0,0.0,0.0,0.0,0.0,0.0,-3.9648,-4.1644,-4.0967,-3.9783,-3.8565,-3.7889,-3.6614,0.0,-3.56,-3.56,-3.5633,-3.5667,-3.6299,-3.6829,-3.6931,-3.8115,-3.9005,0.0,-4.1102,0.0,0.0,-4.8545,0.0,-5.0168,0.0,0.0,0.0,0.0,0.0,-5.3416,-5.2672,-5.1894,-5.115,-5.1792,-5.1454,-5.0033,-4.9999,-4.9661,-4.9018,-4.9018,-4.9018,-4.9018,-4.9018,-4.8984,0.0,0.0,0.0,0.0,-4.594,-4.5229,-4.4682,-4.4615,-4.4064,-4.329,-4.3229,-4.2109,-4.069,0.0,0.0,0.0,0.0,0.0,0.0,0.0,0.0,0.0,0.0,-2.361,-2.361,-2.361,-2.361,-2.3819,0.0,0.0,0.0,0.0,0.0,0.0,0.0,0.0,0.0,-2.5375,-2.5501,-2.5854,-2.6363,-2.7195,-2.7585,-2.7585,-2.7585,-2.7585,-2.7585,-2.7585,-2.7585,-2.7585,-2.7585,0.0,0.0,-2.7585,-2.7585,0.0,0.0,0.0,0.0,-2.7585,-2.8076,0.0,0.0,0.0,0.0,0.0,0.0,0.0,0.0,-3.1989,-3.2835,-3.41,0.0,-3.7121,-3.6952,-3.6648,-3.6343,0.0,-3.587,-3.56,-3.56,-3.56,-3.5769,-3.64,-3.6694,-3.7168,-3.8294,-3.8768,-3.9174,-3.9774,0.0,0.0,-4.8037,-5.0879,-5.2232,-5.1082,0.0,0.0,0.0,0.0,-5.257,-5.257,-5.1894,-5.1116,-5.0371,-5.0541,-5.0168,-4.9255,-4.9255,-4.9187,-4.9018,-4.9018,-4.9018,-4.9018,-4.9018,-4.8714,0.0,0.0,0.0,-4.6684,-4.5399,-4.5094,-4.5399,-4.4818,-4.4064,-4.3199,-4.2552,-4.1626,-4.0588,0.0,0.0,0.0,0.0,0.0,0.0,0.0,0.0,0.0,0.0,0.0,-2.361,-2.361,-2.361,0.0,0.0,0.0,0.0,0.0,0.0,0.0,0.0,0.0,-2.6063,-2.6063,-2.6063,-2.6243,-2.6602,-2.7285,-2.7585,-2.7585,-2.7585,-2.7585,-2.7585,-2.7585,-2.7585,-2.7585,-2.7585,-2.7585,-2.7585,-2.7585,0.0,0.0,0.0,0.0,0.0,-2.7585,-2.8008,0.0,-2.8174,-2.888,-2.9892,0.0,0.0,0.0,0.0,-3.1718,-3.2462,-3.3186,-3.4484,-3.5667,-3.6062,-3.6163,-3.6163,-3.6163,-3.5893,-3.56,-3.56,-3.56,-3.5859,-3.666,-3.6795,-3.7168,-3.8294,-3.8768,0.0,0.0,0.0,-4.6583,-4.8748,-5.1048,-5.2401,0.0,0.0,0.0,0.0,0.0,-5.23,-5.23,-5.1285,-5.0507,-5.0101,-4.9763,-4.939,-4.9018,-4.9018,-4.9018,-4.9018,-4.9018,-4.9018,-4.8984,-4.8646,-4.8277,0.0,0.0,0.0,-4.6244,-4.5432,-4.5128,-4.5162,-4.4784,-4.4064,-4.3169,-4.2332,-4.1429,-4.0588,0.0,0.0,0.0,0.0,0.0,0.0,0.0,0.0,0.0,0.0,0.0,0.0,0.0,0.0,0.0,0.0,0.0,0.0,0.0,0.0,0.0,0.0,0.0,-2.6632,-2.6776,-2.6632,-2.6632,-2.6776,-2.7315,-2.7585,-2.7585,-2.7585,-2.7585,-2.7585,-2.7585,-2.7585,-2.7585,-2.7585,-2.7585,-2.7585,-2.7585,0.0,0.0,0.0,0.0,0.0,0.0,0.0,0.0,-2.776,-2.8343,-2.9271,-2.9361,0.0,0.0,0.0,0.0,0.0,-3.3322,-3.4551,-3.5769,-3.6434,-3.6728,-3.6761,-3.666,-3.6197,-3.5769,-3.5769,-3.587,-3.6197,-3.6998,-3.7134,0.0,0.0,0.0,0.0,-4.2794,-4.4378,-4.6244,-4.8849,-5.0574,0.0,0.0,0.0,0.0,0.0,0.0,-5.2097,-5.1961,-5.0676,-4.9932,-4.9932,-4.9323,-4.9018,-4.9018,-4.9018,-4.9018,-4.9018,-4.9018,-4.8951,-4.8815,-4.8176,-4.777,-4.75,0.0,0.0,-4.5703,-4.5568,-4.5229,-4.4784,-4.4649,-4.4064,-4.3169,-4.2332,-4.1429,-4.0588,0.0,0.0,0.0,0.0,0.0,0.0,0.0,0.0,0.0,0.0,0.0,0.0,0.0,0.0,0.0,0.0,0.0,0.0,0.0,0.0,0.0,-2.7435,-2.6896,-2.6866,-2.7435,-2.6896,-2.6896,-2.7435,-2.7555,-2.7585,-2.7585,-2.7585,-2.7585,-2.7585,-2.7585,-2.7585,-2.7585,-2.7585,-2.7585,-2.7585,-2.7585,0.0,0.0,0.0,0.0,0.0,0.0,0.0,0.0,-2.761,-2.8052,-2.8748,-2.9248,0.0,0.0,0.0,0.0,0.0,-3.3795,-3.4945,-3.5633,-3.5735,-3.6299,-3.6626,-3.596,-3.6231,-3.6626,-3.6626,-3.711,-3.7787,0.0,-3.8667,-3.8903,0.0,0.0,-4.3031,0.0,0.0,-4.8714,-4.9796,0.0,0.0,0.0,0.0,0.0,0.0,0.0,-5.1116,-5.0473,-4.9627,-4.9187,-4.9187,-4.9052,-4.9018,-4.9018,-4.9018,-4.9018,-4.9018,-4.9018,-4.868,-4.8041,-4.7939,-4.7196,-4.6041,0.0,-4.5805,-4.5669,-4.5026,-4.506,-4.5466,-4.4823,-4.4064,-4.3169,-4.2332,-4.1429,-4.0588,0.0,0.0,0.0,0.0,0.0,0.0,0.0,0.0,0.0,0.0,0.0,0.0,0.0,0.0,0.0,0.0,0.0,0.0,0.0,0.0,-2.7585,-2.7585,-2.7315,-2.7285,-2.7585,-2.7649,-2.7829,-2.8128,-2.8513,-2.8693,-2.8663,-2.8334,-2.8128,-2.8098,-2.7764,-2.7585,-2.7585,-2.7585,-2.7585,-2.7585,0.0,0.0,0.0,0.0,0.0,0.0,0.0,0.0,0.0,0.0,-2.7785,-2.8174,-2.9111,0.0,0.0,0.0,0.0,0.0,-3.3525,-3.4721,-3.5701,-3.6129,-3.711,-3.7787,-3.7043,-3.7144,-3.7381,-3.7381,-3.7652,0.0,0.0,0.0,-4.0257,-4.2211,0.0,-4.4891,-4.7022,-4.7936,-4.8849,0.0,0.0,0.0,0.0,0.0,0.0,0.0,0.0,0.0,-5.0101,-4.939,-4.9018,-4.9018,-4.9018,-4.8815,-4.8409,-4.8815,-4.9018,-4.9018,-4.8612,-4.8443,-4.8477,-4.7259,-4.6583,-4.6278,0.0,-4.5466,-4.5094,-4.5162,-4.5162,-4.506,-4.475,-4.4355,-4.3827,-4.252,-4.1162,-3.992,0.0,0.0,0.0,0.0,0.0,0.0,0.0,0.0,0.0,0.0,0.0,0.0,0.0,0.0,0.0,0.0,0.0,0.0,0.0,0.0,-2.7585,-2.7585,-2.7764,-2.7824,-2.7824,-2.8338,-2.8667,-2.8816,-2.9352,-2.9532,-2.9352,-2.8667,-2.8368,-2.8338,-2.7824,-2.7585,-2.7585,-2.7585,-2.7585,-2.7585,0.0,0.0,0.0,0.0,0.0,0.0,0.0,0.0,0.0,0.0,0.0,0.0,0.0,0.0,0.0,-3.1108,-3.1866,-3.258,-3.3617,-3.4721,-3.5769,-3.6626,-3.7777,-3.8633,-3.8261,-3.8294,-3.8464,-3.8633,-3.8667,0.0,0.0,-4.0121,0.0,-4.4412,-4.5635,-4.665,-4.7902,-4.8578,-4.9357,-5.0473,-5.1285,0.0,0.0,0.0,0.0,0.0,0.0,0.0,-4.983,-4.9323,-4.9018,-4.9018,-4.8849,-4.8477,-4.7906,-4.8308,-4.8477,-4.8477,-4.8105,-4.8037,-4.8173,-4.6481,-4.5906,-4.6244,-4.5669,-4.5128,-4.4649,-4.5196,-4.5094,-4.4615,-4.4615,-4.4468,-4.4093,-4.2583,-4.1028,-3.9666,0.0,0.0,0.0,0.0,0.0,0.0,0.0,0.0,0.0,0.0,0.0,0.0,0.0,0.0,0.0,0.0,0.0,0.0,0.0,0.0,-2.7585,-2.7585,-2.8188,-2.8517,-2.8517,-2.8577,-2.8906,-2.9532,-2.9592,-2.9265,-2.8667,-2.8004,-2.7675,-2.7675,-2.7615,-2.7585,-2.7585,-2.7585,-2.7585,-2.7585,-2.7585,0.0,0.0,0.0,0.0,0.0,0.0,0.0,0.0,0.0,0.0,0.0,0.0,0.0,-3.0587,-3.1909,-3.2352,-3.285,-3.4869,-3.5532,-3.5769,-3.6626,-3.7381,-3.8159,-3.8768,-3.9445,-4.0146,-4.0832,-4.0967,-4.1001,0.0,-4.1644,-4.2895,-4.5229,-4.679,-4.8748,-5.1522,0.0,-5.2029,-5.2131,0.0,0.0,0.0,0.0,0.0,0.0,0.0,0.0,-4.912,-4.9052,-4.9018,-4.9018,-4.8342,-4.7939,-4.7906,-4.7259,-4.6955,-4.6955,-4.7597,-4.7225,-4.594,-4.5771,-4.5365,-4.475,-4.4716,-4.4649,-4.4615,-4.4682,-4.4649,-4.4615,-4.4615,-4.4093,-4.3259,-4.2363,-4.1396,-4.0485,0.0,0.0,0.0,0.0,0.0,0.0,0.0,0.0,0.0,0.0,0.0,-2.5292,-2.6123,0.0,0.0,0.0,0.0,0.0,0.0,-2.7585,-2.7585,-2.7585,-2.7854,-2.8393,-2.9175,-2.9594,-2.9894,-3.0163,-3.0582,-3.0462,-2.9774,-2.9142,-2.8633,-2.8218,-2.8218,-2.8218,-2.8248,-2.8663,-2.8603,-2.8218,-2.8218,-2.7974,0.0,0.0,0.0,0.0,0.0,0.0,0.0,0.0,-2.8037,-2.8591,-2.8799,-2.9879,-3.1188,-3.1647,-3.2685,-3.3884,-3.471,-3.5622,-3.6535,-3.728,-3.8024,-3.8768,-3.9537,-4.062,-4.1542,-4.1813,-4.2252,-4.2455,-4.1982,0.0,-4.431,-4.6075,-4.8003,-4.983,-5.1386,-5.1623,0.0,0.0,0.0,0.0,0.0,0.0,0.0,0.0,0.0,0.0,-4.9018,-4.9018,-4.8815,-4.8342,-4.8041,-4.7432,-4.6549,-4.6718,-4.6346,-4.5461,-4.6177,-4.6481,-4.6346,-4.5432,-4.5094,-4.5263,-4.4818,-4.4615,-4.4615,-4.4615,-4.4615,-4.4615,-4.4615,-4.4064,-4.3229,-4.2956,-4.1885,-4.0656,0.0,0.0,0.0,0.0,0.0,0.0,0.0,0.0,-2.4418,0.0,0.0,0.0,0.0,-2.6926,0.0,0.0,0.0,0.0,-2.7585,-2.7585,-2.7585,-2.7585,-2.7794,-2.8364,-2.9235,-3.0073,-3.0612,-3.0821,-3.0853,-3.0672,-3.0193,-2.9564,-2.9026,-2.8607,-2.8816,-2.8906,-2.8936,-2.9412,-2.9352,-2.8906,-2.8906,-2.8487,0.0,0.0,0.0,0.0,0.0,0.0,0.0,0.0,-2.8041,-2.8606,-2.8772,-2.9931,-3.1317,-3.1927,-3.31,-3.4284,-3.4734,-3.5791,-3.6931,-3.7415,-3.8464,-3.9648,-4.0865,-4.1914,-4.2929,-4.3876,-4.391,-4.3538,-4.2794,0.0,0.0,0.0,-4.8646,-5.0338,-5.1116,0.0,0.0,0.0,0.0,0.0,0.0,0.0,0.0,0.0,0.0,0.0,0.0,-4.8443,-4.8071,-4.7597,-4.7361,-4.6718,-4.5703,-4.5974,-4.5466,-4.4215,-4.4722,-4.5365,-4.6041,-4.5055,-4.4857,-4.5331,-4.4818,-4.4615,-4.4615,-4.4615,-4.4615,-4.4615,-4.4615,-4.4241,-4.368,-4.3413,-4.2363,-4.1095,0.0,0.0,0.0,0.0,0.0,0.0,0.0,0.0,-2.5615,-2.5615,-2.6776,0.0,0.0,0.0,0.0,0.0,0.0,0.0,-2.7585,-2.7585,-2.7585,-2.7585,-2.8218,-2.8577,-2.8607,-2.9834,-3.0793,-3.1481,-3.0223,-2.9621,-2.9592,-2.8906,-2.8607,-2.8663,-2.9322,-2.9621,-2.9621,-2.9621,-2.9621,-2.9621,-2.9621,-2.9205,-2.8607,0.0,0.0,0.0,0.0,0.0,0.0,0.0,-2.8008,-2.8614,-2.9358,-3.0015,-3.0907,-3.3004,-3.3624,-3.3903,-3.5247,-3.6197,-3.6795,-3.6829,-3.8497,-4.0671,-4.2902,-4.3409,-4.4254,-4.7263,-4.6143,-4.4378,-4.3544,-4.4079,0.0,-4.6549,-4.8646,-5.0338,0.0,0.0,0.0,0.0,0.0,0.0,0.0,0.0,0.0,0.0,0.0,0.0,0.0,-4.7192,-4.6786,-4.6786,-4.6075,-4.5703,-4.5703,-4.4959,-4.4181,-4.3375,-4.3375,-4.3809,-4.4581,-4.4581,-4.4581,-4.4581,-4.4615,-4.4615,-4.4581,-4.4581,-4.4581,-4.4581,-4.4615,-4.4615,-4.4497,-4.3621,-4.2738,-4.1853,0.0,0.0,0.0,0.0,0.0,0.0,0.0,0.0,-2.5232,-2.6183,-2.6632,0.0,0.0,0.0,0.0,0.0,0.0,0.0,-2.7585,-2.7585,-2.7585,-2.7585,-2.7794,-2.8098,-2.8577,-2.9415,-3.0163,-3.0821,-3.0432,-2.9988,-2.9547,-2.9384,-2.9546,-2.9949,-3.0141,-3.0525,-3.1014,-3.0955,-3.0672,-3.0223,-3.0223,-2.9864,-2.9295,0.0,0.0,0.0,0.0,0.0,0.0,0.0,0.0,0.0,-2.8809,-3.0316,-3.2084,-3.2717,-3.3921,-3.5079,-3.5473,-3.6197,-3.7066,-3.8115,-3.9614,-4.161,-4.4384,-4.4153,-4.395,-4.594,-4.5838,-4.5297,-4.506,-4.5635,0.0,-4.6718,-4.8206,-4.939,0.0,0.0,0.0,0.0,0.0,0.0,0.0,0.0,0.0,0.0,0.0,0.0,0.0,-4.6921,-4.6549,-4.6041,-4.5805,-4.5466,-4.4925,-4.4147,-4.3639,-4.3375,-4.2861,-4.276,-4.2997,-4.3538,-4.3775,-4.3809,-4.435,-4.4282,-4.3775,-4.3775,-4.3775,-4.3809,-4.4378,-4.4615,-4.4587,-4.4327,-4.329,-4.1949,0.0,0.0,0.0,0.0,0.0,0.0,-2.4186,-2.4874,-2.5585,-2.6123,-2.6686,-2.7165,0.0,0.0,0.0,-2.7615,-2.8094,0.0,0.0,-2.7854,-2.7884,-2.7615,-2.7854,-2.8407,-2.9329,-3.0023,-3.043,-3.0483,-3.022,-3.0181,-3.0302,-3.0339,-3.0565,-3.0939,-3.1217,-3.1411,-3.1552,-3.1531,-3.1271,-3.0883,-3.0883,-3.0522,-2.9953,0.0,0.0,0.0,0.0,0.0,0.0,0.0,0.0,0.0,-2.8517,-2.989,-3.1524,-3.236,-3.3624,-3.4895,-3.5452,-3.64,-3.7516,-3.87,-4.0561,-4.2726,-4.5162,-4.5906,-4.6244,-4.6887,-4.6786,-4.6583,-4.6583,-4.6684,0.0,-4.7192,-4.824,-4.8917,0.0,0.0,0.0,0.0,0.0,0.0,0.0,0.0,0.0,0.0,0.0,0.0,0.0,-4.6075,-4.5703,-4.5263,-4.4959,-4.4587,-4.4113,-4.3369,-4.2828,-4.2496,-4.2083,-4.1711,-4.1467,-4.2489,-4.3132,-4.3409,-4.391,-4.3842,-4.3375,-4.3098,-4.2963,-4.3031,-4.3504,-4.3842,-4.4113,-4.4113,-4.3039,-4.1597,0.0,0.0,-2.361,-2.367,0.0,0.0,-2.3939,-2.5435,-2.6393,-2.5854,-2.6836,-2.7585,0.0,0.0,0.0,-2.7735,-2.8753,-2.8963,0.0,0.0,-2.8248,-2.7705,-2.8325,-2.9269,-3.0474,-3.1223,-3.1237,-3.0509,-2.9932,-3.0295,-3.151,-3.1454,-3.1575,-3.1868,-3.2319,-3.2244,-3.1768,-3.1567,-3.1539,-3.1597,-3.1599,-3.1182,-3.0612,-3.0672,0.0,0.0,0.0,0.0,0.0,0.0,0.0,0.0,-2.8487,-2.9164,-3.0037,-3.1935,-3.3016,-3.3895,-3.5238,-3.6726,-3.8125,-3.9073,-4.1576,-4.4187,-4.5669,-4.8071,-4.9763,-4.8984,0.0,-4.8075,-4.8007,-4.7462,-4.7192,-4.7804,-4.8477,-4.8646,0.0,0.0,0.0,0.0,0.0,0.0,0.0,0.0,0.0,0.0,0.0,0.0,0.0,-4.4823,-4.4412,-4.4513,-4.3707,-4.3274,-4.3274,-4.2557,-4.1847,-4.1204,-4.1136,-4.073,-4.0146,-4.1568,-4.2591,-4.3301,-4.3206,-4.3172,-4.3139,-4.2489,-4.2185,-4.2185,-4.2252,-4.2665,-4.3192,-4.3192,-4.2191,-4.0799,0.0,0.0,-2.3759,-2.4276,0.0,0.0,-2.5824,-2.6303,-2.6746,-2.7136,-2.7435,-2.7585,-2.7585,-2.7735,0.0,-2.8338,-2.8184,-2.8364,-2.9112,0.0,-2.8004,-2.8368,-2.9022,-2.9769,-3.0545,-3.1255,-3.1461,-3.1177,-3.1092,-3.118,-3.1417,-3.0941,-3.1846,-3.3825,-3.2395,-3.254,-3.382,-3.2185,-3.1824,-3.2361,-3.2312,-3.1869,-3.1331,-3.1898,-3.136,0.0,0.0,0.0,0.0,0.0,0.0,0.0,-2.9352,-3.0111,-3.1093,-3.1639,-3.3008,-3.4478,-3.5421,-3.6764,-3.8497,-4.0967,-4.4282,-4.7162,-4.8105,-4.8781,-4.8849,-4.753,-4.8511,-4.9458,-4.8883,-4.8646,-4.8409,-4.797,0.0,0.0,0.0,0.0,0.0,0.0,0.0,0.0,0.0,0.0,0.0,0.0,0.0,0.0,-4.479,-4.3538,-4.3064,-4.3639,-4.2929,-4.2523,-4.2523,-4.1813,-4.1373,0.0,-4.0595,-4.0248,-4.0146,-4.1035,-4.1847,-4.2489,-4.1914,-4.1677,-4.1677,-4.1508,-4.1441,-4.1508,-4.2049,-4.203,-4.1692,-4.1692,-4.061,-3.9185,0.0,0.0,0.0,0.0,0.0,0.0,0.0,0.0,-2.7106,-2.7136,-2.7405,-2.7585,-2.7585,-2.7884,0.0,0.0,-2.8637,-2.8903,-2.8663,-2.8603,-2.885,-2.9546,-3.0167,-3.0973,-3.1966,-3.2684,-3.283,-3.2381,-3.2751,-3.274,-3.236,-3.241,-3.3201,-3.4507,-3.3457,-3.3235,-3.3572,-3.2489,-3.2233,-3.2538,-3.2525,-3.2288,-3.2019,-3.2377,-3.1898,-3.0972,-3.0972,0.0,0.0,0.0,0.0,0.0,0.0,0.0,-3.0629,-3.1362,-3.2298,-3.3461,-3.521,-3.6514,-3.833,-4.2402,-4.5128,-4.7225,-4.868,-4.8748,-4.8376,-4.7936,-4.8781,-4.9458,-4.9086,-4.8714,-4.8376,0.0,0.0,0.0,0.0,0.0,0.0,0.0,0.0,0.0,0.0,0.0,0.0,0.0,0.0,-4.3436,-4.3498,-4.2726,-4.2489,-4.2861,-4.2151,-4.1779,-4.1779,-4.1035,-4.0663,-4.0663,-4.0282,-4.0113,-4.0146,-4.0865,-4.1407,-4.1745,-4.1373,-4.1204,-4.117,-4.0832,-4.0663,-4.0696,-4.1102,-4.101,-4.0644,-4.0644,-3.9629,-3.8244,0.0,0.0,0.0,0.0,0.0,0.0,0.0,0.0,0.0,-2.6866,-2.7255,-2.7585,-2.7585,-2.8124,-2.8248,0.0,0.0,0.0,-2.8363,-2.9459,-3.0379,-3.091,-3.1525,-3.2456,-3.3679,-3.4414,-3.4384,-3.3592,-3.4336,-3.437,-3.3795,-3.416,-3.4488,-3.4759,-3.4544,-3.3953,-3.3108,-3.2868,-3.2801,-3.2842,-3.2848,-3.279,-3.2699,-3.2673,-3.2254,-3.1653,-3.1568,-3.1122,-3.0672,-3.0672,0.0,0.0,0.0,0.0,-2.9886,-3.0953,-3.1369,-3.2023,-3.4503,-3.627,-3.8546,-4.34,-4.5128,-4.621,-4.8173,-4.8173,-4.7902,-4.8511,-4.8714,-4.8815,-4.8815,-4.8206,-4.7669,0.0,0.0,0.0,0.0,0.0,0.0,0.0,0.0,0.0,0.0,0.0,0.0,0.0,0.0,-4.2963,-4.232,-4.2049,-4.1982,-4.2117,-4.1373,-4.1001,-4.1001,-4.0417,-4.0113,-4.0113,-4.0113,-4.0113,-4.0113,-4.073,-4.1001,-4.1001,-4.1001,-4.1001,-4.0967,-4.035,-4.0113,-4.0087,-3.9952,-3.9821,-3.9691,-3.9551,-3.8565,-3.731,0.0,0.0,0.0,0.0,0.0,0.0,0.0,0.0,0.0,0.0,-2.7555,-2.7585,-2.7585,-2.7675,-2.7944,-2.8427,-2.8697,-2.9471,-3.0984,0.0,0.0,-3.234,-3.2964,-3.3679,-3.4451,-3.5134,-3.5093,-3.4336,-3.5115,-3.5397,-3.5295,-3.4149,-3.4282,-3.5407,-3.4252,-3.4276,-3.5131,-3.3953,-3.3783,-3.4315,-3.4313,-3.398,-3.3451,-3.337,-3.2992,-3.2382,-3.171,-3.1451,-3.1361,-3.1361,-3.1301,0.0,0.0,0.0,-3.031,-2.9947,-3.0639,-3.1733,-3.2825,-3.6357,-4.053,-4.3771,-4.5128,-4.594,0.0,0.0,-4.6955,0.0,-4.7597,-4.8041,-4.8041,-4.7428,0.0,0.0,0.0,0.0,0.0,0.0,0.0,0.0,0.0,0.0,0.0,0.0,0.0,0.0,-4.2828,-4.2388,-4.2286,-4.1094,-4.0688,-4.1339,-4.0629,-4.0248,-4.0248,-4.0146,-4.0113,-4.0113,-4.0113,-4.0113,-4.0113,-4.0214,-4.0248,-4.0248,-4.0248,-4.0248,-4.0248,-4.0146,-4.0113,-4.0003,-3.9342,-3.8673,-3.8008,-3.73,-3.6538,-3.5771,0.0,0.0,0.0,0.0,0.0,0.0,0.0,0.0,0.0,0.0,0.0,-2.8076,-2.8076,-2.8415,-2.8759,-2.9123,-2.9825,-3.0773,-3.2082,-3.241,-3.2727,-3.3142,-3.3792,-3.4454,-3.5144,-3.543,-3.543,-3.5115,-3.543,-3.5836,-3.6265,-3.5618,-3.591,-3.6861,-3.627,-3.5859,-3.5604,-3.5013,-3.4713,-3.4619,-3.4599,-3.4436,-3.4101,-3.3689,-3.3132,-3.252,-3.1768,-3.1511,-3.1511,-3.1511,-3.1511,-3.1451,-3.1152,0.0,0.0,0.0,-3.0782,-3.1455,-3.3792,-3.6945,-4.0165,-4.2692,-4.3538,-4.4215,-4.5805,-4.5838,-4.5771,-4.6616,-4.6718,-4.6786,0.0,0.0,0.0,0.0,0.0,0.0,0.0,0.0,0.0,0.0,0.0,0.0,0.0,0.0,0.0,0.0,-4.188,-4.1508,-4.1094,-4.0451,-4.0248,-4.0561,-4.0282,-4.0113,-4.0113,-4.0113,-4.0113,-4.0113,-4.0113,-4.0113,-4.0113,-4.0113,-4.0113,-4.0113,-4.0113,-4.0113,-4.0113,-4.0113,-4.0113,-4.0003,-3.9236,-3.8442,-3.7706,-3.6904,-3.6134,-3.5519,0.0,0.0,0.0,0.0,0.0,0.0,0.0,0.0,0.0,0.0,0.0,-2.8748,-2.8748,0.0,0.0,0.0,-3.0855,-3.1935,-3.3031,-3.3238,-3.3516,-3.407,-3.4544,-3.5047,-3.56,-3.56,-3.56,-3.56,-3.56,-3.6129,-3.71,-3.71,-3.755,-3.843,-3.8058,-3.7287,-3.6248,-3.6049,-3.5655,-3.5143,-3.4955,-3.4987,-3.5098,-3.4355,-3.3896,-3.3558,-3.2652,-3.2189,-3.2009,-3.1837,-3.163,-3.1511,-3.1511,-3.1032,0.0,0.0,0.0,-3.0976,-3.4139,-3.6362,-3.8286,-4.0615,-4.1473,-4.2233,0.0,0.0,-4.4587,0.0,-4.55,-4.5365,0.0,0.0,0.0,0.0,0.0,0.0,0.0,0.0,0.0,0.0,0.0,0.0,0.0,0.0,0.0,0.0,-4.1204,-4.0865,-4.0146,-4.0113,-4.0113,-4.0113,-4.0113,-4.0113,-4.0113,-4.0113,-4.0113,-4.0113,-4.0113,-4.0113,-4.0113,-4.0113,-4.0113,-4.0113,-4.0113,-4.0113,-4.0113,-4.0113,-4.0113,-3.9978,-3.9022,-3.8274,-3.7677,-3.6692,-3.5975,-3.5519,0.0,0.0,0.0,0.0,0.0,0.0,0.0,0.0,0.0,0.0,0.0,-2.9361,-2.9361,-2.9384,-2.9694,-3.0389,-3.1094,-3.2353,-3.4355,-3.5101,-3.5453,-3.5487,-3.5532,0.0,-3.56,-3.56,-3.56,-3.56,-3.56,-3.6377,-3.7855,-3.7855,-3.8599,-3.991,-3.8531,-3.7865,-3.7739,-3.703,-3.6726,-3.6612,-3.5846,-3.6004,-3.6599,-3.5885,-3.5999,-3.6397,-3.5033,-3.4118,-3.3475,-3.2703,-3.2019,-3.1511,-3.1511,-3.1032,-3.0522,0.0,0.0,0.0,-3.2265,-3.3412,-3.4676,-3.7505,-3.9241,-4.0431,0.0,0.0,-4.3477,-4.3544,-4.3544,0.0,0.0,0.0,0.0,0.0,0.0,0.0,0.0,0.0,0.0,0.0,0.0,0.0,0.0,0.0,0.0,0.0,-4.1204,-4.0865,-4.0146,-4.0113,-4.0113,-4.0113,-4.0113,-4.0113,-4.0113,-4.0113,-4.0113,-4.0113,-4.0113,-4.0113,-4.0113,-4.0113,-4.0113,-4.0113,-4.0113,-4.0113,-4.0113,-4.0113,-4.0113,-3.9952,-3.8414,-3.7851,-3.7618,-3.6101,-3.5522,-3.5519,0.0,0.0,0.0,0.0,0.0,0.0,0.0,0.0,0.0,0.0,0.0,0.0,0.0,-3.0747,-3.1394,-3.1765,-3.3211,-3.4439,-3.518,-3.5487,-3.56,-3.56,-3.56,-3.56,-3.56,-3.56,-3.56,-3.56,-3.56,-3.6163,-3.7178,-3.7178,-3.798,-3.9402,-3.9334,-3.9039,-3.8599,-3.8328,-3.7922,-3.7483,-3.7212,-3.7246,-3.7412,-3.6705,-3.6554,-3.6682,-3.5732,-3.4942,-3.4211,-3.3521,-3.2757,-3.2049,-3.163,-3.1331,-3.1122,-3.1122,-3.0972,-3.117,-3.2891,0.0,0.0,-3.7288,-3.8362,-3.9176,-4.0811,-4.161,-4.2117,-4.2591,-4.2692,0.0,0.0,0.0,0.0,0.0,0.0,0.0,0.0,0.0,0.0,0.0,0.0,0.0,0.0,0.0,0.0,0.0,0.0,-4.0383,-4.0113,-4.0113,-4.0113,-4.0113,-4.0113,-4.0113,-4.0113,-4.0113,-4.0113,-4.0113,-4.0113,-4.0113,-4.0113,-4.0113,-4.0113,-4.0113,-4.0113,-4.0113,-4.0113,-4.0113,-4.0113,-3.9978,-3.8908,-3.8218,-3.7677,-3.66,-3.5911,-3.5519,0.0,0.0,0.0,-2.9696,0.0,-2.9473,-2.9673,-2.9695,-2.9913,-3.0518,0.0,0.0,0.0,0.0,-3.2803,-3.3162,-3.4656,-3.56,-3.56,-3.56,-3.56,-3.56,-3.56,-3.56,-3.56,-3.5363,-3.5329,-3.56,-3.5329,-3.5757,-3.6795,-3.7066,-3.7821,-3.9039,-3.9774,-3.9842,-3.9368,-3.9106,-3.8734,-3.8261,-3.799,-3.8058,-3.8212,-3.7719,-3.7703,-3.7801,-3.709,-3.6392,-3.5637,-3.4657,-3.3679,-3.2819,-3.2335,-3.2033,-3.1764,-3.1297,-3.1152,-3.1384,-3.2372,0.0,0.0,0.0,-3.742,-3.8295,-3.9767,0.0,-4.1271,-4.1508,0.0,0.0,0.0,0.0,0.0,0.0,0.0,0.0,0.0,0.0,0.0,0.0,0.0,0.0,0.0,0.0,0.0,0.0,0.0,0.0,-4.0113,-4.0113,-4.0113,-4.0113,-4.0113,-4.0113,-4.0113,-4.0113,-4.0113,-4.0113,-4.0113,-4.0113,-4.0113,-4.0113,-4.0113,-4.0113,-4.0113,-4.0113,-4.0113,-4.0113,-4.0113,-4.0003,-3.9236,-3.8608,-3.8048,-3.6994,-3.629,-3.5846,-3.0123,-3.0236,-3.033,-3.033,-2.9848,-2.9651,-3.0246,-3.033,-3.0572,-3.1165,0.0,0.0,0.0,0.0,0.0,-3.4472,-3.5216,-3.56,-3.56,-3.56,-3.56,-3.56,-3.5633,-3.5633,-3.5633,-3.4945,-3.4912,-3.5633,-3.4878,-3.5306,-3.6795,-3.7516,-3.8227,-3.8971,-3.9706,-4.0045,-4.0011,-3.9309,-3.9039,-3.8971,-3.8261,-3.8396,-3.9039,-3.9039,-3.9503,-3.9978,-3.9236,-3.8533,-3.7787,-3.6193,-3.4825,-3.3765,-3.3562,-3.307,-3.2314,-3.0953,-3.055,-3.0522,0.0,0.0,0.0,-3.4388,-3.6241,0.0,-3.7889,0.0,-4.0899,-4.0248,0.0,0.0,0.0,0.0,0.0,0.0,0.0,0.0,0.0,0.0,0.0,0.0,0.0,0.0,0.0,0.0,0.0,0.0,-4.0113,-4.0113,-4.0113,-4.0113,-4.0113,-4.0113,-4.0113,-4.0113,-4.0113,-4.0113,-4.0113,-4.0113,-4.0113,-4.0113,-4.0113,-4.0113,-4.0113,-4.0113,-4.0113,-4.0113,-4.0113,-4.0113,-4.0113,-4.0003,-3.9236,-3.8908,-3.8718,-3.7172,-3.66,-3.6508,-3.0886,-3.0937,-3.0938,-3.0938,-3.0818,-3.0777,-3.0918,-3.1395,-3.1827,0.0,0.0,0.0,-3.3085,-3.3761,-3.4506,-3.5228,-3.5464,-3.56,-3.56,-3.56,-3.56,-3.56,-3.6163,-3.6468,-3.6468,-3.6288,-3.6254,-3.6468,-3.569,-3.5498,-3.596,-3.614,-3.6671,-3.7438,-3.8159,-3.8802,-3.9309,-3.9673,-3.9808,-3.9774,-3.9571,-3.9605,-3.9808,-3.9808,-3.991,-4.0087,-3.985,-3.9294,-3.8519,-3.7617,-3.6699,-3.5661,-3.4126,-3.2793,-3.1821,-3.2002,-3.1635,-3.1438,-3.2476,0.0,0.0,0.0,0.0,0.0,-3.8317,-3.8768,-3.9073,-3.9943,0.0,0.0,0.0,0.0,0.0,0.0,0.0,0.0,0.0,0.0,0.0,0.0,0.0,0.0,0.0,0.0,0.0,0.0,-4.0113,-4.0113,-4.0113,-4.0113,-4.0113,-4.0113,-4.0113,-4.0113,-4.0113,-4.0113,-4.0113,-4.0113,-4.0113,-4.0113,-4.0113,-4.0113,-4.0113,-4.0113,-4.0113,-4.0113,-4.0113,-4.0113,-4.0113,-4.0087,-3.985,-3.9394,-3.8799,-3.7819,-3.7084,-3.6508,-3.119,-3.119,-3.1292,-3.1616,-3.1684,-3.1765,-3.207,-3.2476,-3.2767,0.0,0.0,0.0,-3.4281,-3.4709,-3.5148,-3.5566,-3.56,-3.5735,-3.6096,-3.6096,-3.6231,-3.6546,-3.7009,-3.7246,-3.7246,-3.6637,-3.6468,-3.6795,-3.569,-3.5295,0.0,0.0,-3.6332,-3.6829,-3.7584,-3.8294,-3.9039,-3.9469,-3.9842,-4.0113,-4.0113,-4.0113,-4.0113,-4.0113,-4.0113,-4.0113,-4.0113,-4.0026,-3.9708,-3.8712,-3.7655,-3.645,-3.4695,-3.3724,-3.3175,-3.2729,-3.2698,-3.2898,0.0,0.0,0.0,-3.4947,0.0,0.0,-3.7319,-3.7534,-3.7675,0.0,-3.8633,0.0,0.0,0.0,0.0,0.0,0.0,0.0,0.0,0.0,0.0,0.0,0.0,0.0,0.0,-4.0113,-4.0113,-4.0113,-4.0113,-4.0113,-4.0113,-4.0113,-4.0113,-4.0113,-4.0113,-4.0113,-4.0113,-4.0113,-4.0113,-4.0113,-4.0113,-4.0113,-4.0113,-4.0113,-4.0113,-4.0113,-4.0113,-4.0113,-4.0113,-4.0113,-4.0113,-4.0113,-4.0113,-3.9825,-3.9262,-3.8222,-3.7499,-3.6965,0.0,-3.1258,-3.1481,-3.2293,-3.2361,-3.2564,-3.3288,-3.3491,-3.3525,0.0,-3.4167,-3.4878,-3.5532,-3.56,-3.5633,0.0,-3.5735,-3.6062,-3.6863,-3.6931,-3.7212,-3.7889,-3.799,-3.8024,-3.8024,-3.6681,-3.6299,0.0,0.0,0.0,0.0,0.0,0.0,-3.6829,-3.7584,-3.8261,-3.887,-3.9039,-3.9503,-4.0113,-4.0113,-4.0146,-4.0214,-4.0214,-4.0282,-4.035,-4.035,-4.0764,-4.11,-3.9654,-3.8101,0.0,-3.5455,0.0,0.0,0.0,-3.3824,0.0,0.0,0.0,0.0,0.0,-3.5177,0.0,-3.5618,-3.6098,-3.6596,-3.6764,-3.732,0.0,0.0,0.0,0.0,0.0,0.0,0.0,0.0,0.0,0.0,0.0,0.0,0.0,-4.0113,-4.0113,-4.0113,-4.0113,-4.0113,-4.0113,-4.0113,-4.0113,-4.0113,-4.0113,-4.0113,-4.0113,-4.0113,-4.0113,-4.0113,-4.0113,-4.0113,-4.0113,-4.0113,-4.0113,-4.0113,-4.0113,-4.0113,-4.0113,-4.0113,-4.0113,-4.0113,-4.0113,-4.0113,-4.0113,-3.9927,-3.8474,-3.7879,-3.7589,-3.1989,-3.1616,-3.163,-3.2949,-3.2679,-3.2564,-3.3288,-3.3897,-3.4269,-3.4269,-3.4945,-3.543,-3.5566,-3.56,-3.5836,0.0,-3.6592,-3.6874,-3.7652,-3.7686,-3.7753,-3.7889,-3.8464,-3.8768,-3.8768,-3.8497,-3.8125,-3.7686,0.0,0.0,0.0,0.0,0.0,-3.6829,-3.7584,-3.799,-3.8193,-3.9377,-3.9977,-4.0113,-4.0113,-4.0485,-4.1001,-4.1001,-4.1339,-4.1847,-4.1847,-4.1948,-4.1948,-4.1047,-3.9401,-3.7689,0.0,0.0,0.0,-3.5968,0.0,0.0,0.0,0.0,0.0,0.0,-3.5131,0.0,-3.4999,-3.4961,-3.5364,0.0,-3.692,0.0,0.0,0.0,0.0,0.0,0.0,0.0,0.0,0.0,0.0,0.0,0.0,0.0,-4.0113,-4.0113,-4.0113,-4.0113,-4.0113,-4.0113,-4.0113,-4.0113,-4.0113,-4.0113,-4.0113,-4.0113,-4.0113,-4.0113,-4.0113,-4.0113,-4.0113,-4.0113,-4.0113,-4.0113,-4.0113,-4.0113,-4.0113,-4.0113,-4.0113,-4.0113,-4.0113,-4.0113,-4.0113,-4.0113,-3.9978,-3.9049,-3.8302,-3.7677,-3.1684,-3.1427,-3.1664,-3.3152,-3.3085,-3.322,-3.4315,-3.481,-3.5047,-3.5047,-3.5363,-3.5735,-3.6163,-3.6197,-3.6502,-3.728,0.0,0.0,0.0,-3.8464,-3.8599,-3.8971,-3.9368,-3.9571,-3.9571,-3.9174,-3.8633,-3.7922,0.0,0.0,0.0,0.0,0.0,0.0,-3.7753,-3.8091,-3.8497,-3.9242,-3.9774,-4.0113,-4.0113,-4.0527,-4.1204,-4.1204,-4.1644,-4.2286,-4.2286,-4.2286,-4.2219,-4.188,-4.0548,0.0,-3.862,-3.7959,-3.7258,0.0,-3.6814,-3.6809,0.0,0.0,0.0,-3.5172,0.0,0.0,0.0,-3.3833,-3.4016,-3.5402,-3.5454,0.0,0.0,0.0,0.0,0.0,0.0,0.0,0.0,0.0,0.0,0.0,0.0,0.0,-3.9005,-3.9005,-3.9165,-3.9512,-3.991,-4.0113,-4.0113,-4.0113,-4.0113,-4.0113,-4.0113,-4.0113,-4.0113,-4.0113,-4.0113,-4.0113,-4.0113,-4.0113,-4.0113,-4.0113,-4.0113,-4.0113,-4.0113,-4.0113,-4.0113,-4.0113,-4.0113,-4.0113,-4.0113,-4.0113,-3.9952,-3.8772,-3.8104,-3.7648,-3.1393,-3.1393,-3.1867,-3.3355,-3.3626,-3.4066,-3.5397,-3.56,-3.5667,-3.5802,-3.5836,-3.6129,-3.6931,-3.7032,-3.7347,-3.8261,-3.8193,0.0,-3.9377,-3.9276,-3.9503,-4.0079,-4.0113,-4.0113,-4.0113,-3.9537,-3.8836,-3.8125,0.0,0.0,0.0,0.0,0.0,0.0,-3.8125,-3.843,-3.9005,-3.914,-3.9571,-4.0113,-4.0113,-4.0527,-4.1204,-4.1204,-4.1644,-4.2286,-4.2286,-4.2185,-4.2083,-4.2083,-4.1198,-3.9987,-3.9396,-3.9167,0.0,0.0,0.0,0.0,0.0,0.0,0.0,0.0,0.0,-3.3638,0.0,0.0,0.0,0.0,0.0,0.0,0.0,0.0,0.0,0.0,0.0,0.0,0.0,0.0,0.0,0.0,0.0,0.0,-3.8091,-3.799,-3.8159,-3.8734,-3.9343,-3.974,-3.9876,-3.991,-3.991,-3.991,-4.0045,-4.0045,-3.991,-4.0045,-4.0113,-4.0113,-4.0113,-4.0113,-4.0113,-4.0113,-4.0113,-4.0113,-4.0113,-4.0113,-4.0113,-4.0113,-4.0113,-4.0113,-4.0113,-4.0003,-3.9714,-3.8469,-3.7819,-3.7413,-3.2192,-3.2192,-3.2632,-3.41,-3.437,-3.4641,-3.5464,-3.56,-3.5836,-3.6569,-3.666,-3.6941,-3.7686,-3.7787,-3.8362,-3.9724,-3.9242,-3.9478,-4.0865,-4.035,-4.0011,-4.0113,-4.0113,-4.0113,-4.0113,-4.0011,-3.9605,-3.887,-3.8768,0.0,0.0,0.0,0.0,0.0,-3.887,-3.8903,-3.9039,-3.9706,-4.0011,-4.0113,-4.0113,-4.0527,-4.1204,-4.1204,-4.1644,-4.2286,-4.2286,-4.188,-4.1339,0.0,-4.078,-4.0079,0.0,-3.9961,-3.9919,-3.9775,0.0,0.0,0.0,0.0,0.0,0.0,-3.4086,0.0,0.0,0.0,-3.345,-3.3666,0.0,0.0,0.0,0.0,0.0,0.0,0.0,0.0,0.0,0.0,0.0,0.0,0.0,0.0,0.0,-3.8294,-3.7922,-3.8024,-3.8091,-3.843,-3.9073,-3.9106,-3.9106,-3.9106,-3.9774,-3.9808,-3.9106,-3.9774,-4.0113,-4.0113,-4.0113,-4.0113,-4.0113,-4.0113,-4.0113,-4.0113,-4.0113,-4.0113,-4.0113,-4.0113,-4.0113,-4.0113,-4.0113,-3.9662,-3.9016,-3.8827,-3.7901,-3.6691,-3.2848,-3.2949,-3.3254,-3.4303,-3.4506,-3.4742,-3.5498,-3.5994,-3.64,-3.6761,-3.7178,-3.7719,-3.8464,-3.8531,-3.8971,-4.002,-3.9842,-3.991,-4.0493,-4.0282,-4.0113,-4.0113,-4.0113,-4.0113,-4.0113,-4.0113,-3.974,-3.9005,-3.9005,0.0,0.0,0.0,0.0,0.0,-3.9639,-3.9639,-3.9673,-3.9977,-4.0113,-4.0113,-4.0113,-4.0282,-4.0595,-4.1035,-4.1644,-4.2286,-4.2286,-4.2083,-4.1779,0.0,-4.1001,0.0,0.0,0.0,0.0,-4.0113,0.0,0.0,0.0,0.0,0.0,0.0,0.0,0.0,-3.3938,0.0,-3.3633,0.0,0.0,0.0,0.0,0.0,0.0,0.0,-3.7987,0.0,0.0,0.0,0.0,0.0,0.0,0.0,0.0,0.0,0.0,0.0,-3.7652,-3.8058,-3.8362,-3.8768,-3.9005,-3.9005,-3.974,-3.9943,-3.9639,-3.9943,-4.0113,-4.0113,-4.0113,-4.0113,-4.0113,-4.0113,-4.0113,-4.0113,-4.0113,-4.0113,-4.0113,-4.0113,-4.0113,-4.0113,-4.0113,-3.9901,-3.9506,-3.858,-3.7847,-3.7175,-3.3863,-3.3829,-3.3863,-3.4404,-3.4675,-3.5047,-3.5825,-3.64,-3.6965,-3.7371,-3.7855,-3.8497,-3.9208,-3.9648,-4.0121,-4.0654,-4.0722,-4.0722,-4.0722,-4.0316,-4.0113,-4.0113,-4.0113,-4.0113,-4.0113,-4.0113,-3.9842,-3.93,-3.93,0.0,0.0,0.0,0.0,0.0,-4.0113,-4.0113,-4.0113,-4.0113,-4.0113,-4.0113,-4.0113,-4.0113,-4.018,-4.0696,-4.1238,-4.1704,-4.1704,-4.1704,-4.161,-4.1068,-4.0899,0.0,-4.0282,-4.0113,-4.0113,0.0,0.0,0.0,-3.9765,0.0,0.0,0.0,0.0,0.0,0.0,0.0,0.0,0.0,0.0,0.0,0.0,0.0,0.0,0.0,0.0,-3.8201,0.0,0.0,0.0,0.0,0.0,0.0,0.0,0.0,0.0,-3.6829,-3.728,-3.7584,-3.7584,-3.8091,-3.8464,-3.87,-3.9411,-3.9808,-3.9808,-4.0011,-4.0113,-4.0113,-4.0113,-4.0113,-4.0113,-4.0113,-4.0113,-4.0113,-4.0113,-4.0113,-4.0113,-4.0113,-4.0113,-4.0113,-4.0113,-4.0113,-3.9901,-3.839,-3.7677,-3.7294,-3.5363,-3.4945,-3.4472,-3.4506,-3.5115,-3.5859,-3.666,-3.6795,-3.7303,-3.8734,-3.8937,-3.9266,-3.9977,-4.1365,-4.2185,-4.2219,-4.2219,-4.2219,-4.2219,-4.0891,-4.0113,-4.0113,-4.0113,-4.0113,-4.0113,-4.0113,-4.0079,-4.0079,-4.0079,0.0,0.0,0.0,0.0,0.0,-4.0113,-4.0113,-4.0113,-4.0113,-4.0113,-4.0113,-4.0113,-4.0113,-4.0113,0.0,-4.0146,-4.018,-4.018,0.0,0.0,-4.0146,-4.0146,0.0,0.0,0.0,0.0,0.0,0.0,0.0,0.0,0.0,0.0,-3.6982,0.0,0.0,0.0,0.0,-3.4467,0.0,0.0,0.0,0.0,0.0,0.0,0.0,0.0,0.0,0.0,0.0,0.0,0.0,0.0,0.0,0.0,0.0,-3.7584,-3.6863,-3.6829,-3.6829,-3.6829,-3.6863,-3.7202,-3.7922,-3.8633,-3.9039,-3.9039,-3.974,-4.0113,-4.0113,-4.0113,-4.0113,-4.0113,-4.0113,-4.0113,-4.0113,-4.0113,-4.0113,-4.0113,-4.0113,-4.0113,-4.0113,-4.0113,-4.0113,-3.9901,-3.839,-3.7293,-3.6538,-3.5464,-3.5397,-3.525,-3.525,-3.543,-3.587,-3.6694,-3.7212,-3.8396,-4.0865,-4.161,-4.2591,-4.4316,-4.4553,-4.4553,-4.4553,-4.4079,-4.3606,-4.3064,-4.2083,-4.1339,-4.0832,-4.0383,-4.0113,-4.0113,-4.0113,-4.0113,-4.0113,-4.0113,-4.0113,0.0,0.0,0.0,0.0,0.0,-4.0113,-4.0113,-4.0113,-4.0113,0.0,0.0,-4.0392,-4.0764,0.0,-4.0113,-4.0113,-4.0113,-4.0113,0.0,-4.0113,-4.0113,-4.0113,-4.0113,-4.0113,-4.0113,-4.0113,-3.9901,-3.9789,0.0,0.0,-3.9879,-3.9144,0.0,0.0,0.0,0.0,0.0,0.0,0.0,0.0,0.0,0.0,0.0,0.0,0.0,0.0,0.0,0.0,0.0,0.0,0.0,0.0,0.0,0.0,0.0,-3.6829,-3.6299,-3.6028,-3.6028,-3.6502,-3.7144,-3.7889,-3.8633,-3.9208,-3.974,-3.9977,-4.0113,-4.0113,-4.0113,-4.0113,-4.0113,-4.0113,-4.0113,-4.0113,-4.0113,-4.0113,-4.0113,-4.0113,-4.0113,-4.0113,-4.0113,-4.0113,-3.9978,-3.8941,-3.8048,-3.7235,-3.5498,-3.56,-3.56,-3.56,-3.5836,-3.6299,-3.7077,-3.8261,-3.9952,-4.2388,-4.3572,-4.4891,-4.6616,-4.6853,-4.6786,-4.6515,-4.6041,-4.5229,-4.391,-4.3369,-4.2523,-4.1271,-4.1001,-4.0756,-4.0519,-4.0248,-4.0113,-4.0113,-4.0113,-4.0113,0.0,0.0,0.0,0.0,0.0,-4.0113,-4.0113,-4.0113,-4.0113,0.0,0.0,-4.0383,0.0,0.0,-4.0282,-4.0485,0.0,-4.0113,-4.0113,-4.0113,-4.0113,-4.0113,-4.0113,-4.0113,-4.0146,-4.0417,-4.0493,-4.0629,-4.1373,-4.1576,0.0,-4.1009,-4.0081,0.0,-3.8062,0.0,-3.6321,0.0,0.0,0.0,0.0,0.0,0.0,0.0,0.0,0.0,0.0,-3.6626,0.0,0.0,0.0,0.0,0.0,0.0,-3.7371,-3.6829,-3.6332,-3.5926,0.0,-3.6366,-3.7144,-3.7889,-3.8633,-3.9368,-4.0079,-4.0113,-4.0113,-4.0113,-4.0113,-4.0113,-4.0113,-4.0113,-4.0113,-4.0113,-4.0113,-4.0113,-4.0113,-4.0113,-4.0113,-4.0113,-4.0113,-4.0113,-3.9978,-3.9209,-3.8274,-3.7174,-3.56,-3.5633,-3.5667,-3.5667,-3.6299,-3.7066,-3.7855,-3.9817,-4.1779,-4.3308,-4.4891,-4.6177,-4.6989,-4.8308,-4.8883,-4.8176,-4.8041,-4.7124,-4.4953,-4.475,-4.3707,-4.1508,-4.2016,-4.2016,-4.1271,0.0,0.0,0.0,0.0,0.0,0.0,0.0,0.0,0.0,-4.0113,0.0,-4.0113,-4.0113,-4.0113,-4.0113,-4.0113,-4.0113,-4.0146,-4.0113,-4.0561,-4.1102,-4.0383,-4.0113,-4.0113,-4.0113,-4.0113,-4.0113,-4.0113,-4.0113,-4.0248,-4.0933,-4.117,-4.1305,-4.2083,-4.2286,-4.2286,-4.2354,-4.1297,0.0,0.0,0.0,-3.7854,0.0,0.0,0.0,0.0,0.0,0.0,0.0,0.0,0.0,0.0,0.0,0.0,0.0,0.0,0.0,0.0,-3.8497,-3.8319,-3.6897,-3.6795,-3.6434,0.0,0.0,-3.7178,-3.7889,-3.8633,-3.9368,-4.0079,-4.0113,-4.0113,-4.0113,-4.0113,-4.0113,-4.0113,-4.0113,-4.0113,-4.0113,-4.0113,-4.0113,-4.0113,-4.0113,-4.0113,-4.0113,-4.0113,-4.0113,-3.9978,-3.9209,-3.7958,-3.6538,-3.56,-3.6096,-3.6468,-3.6468,-3.666,-3.7235,-3.8531,-4.0121,-4.2151,-4.479,-4.6887,-4.8849,-5.0676,-5.1217,-5.1386,-5.1183,-5.0168,-4.9052,-4.7936,-4.6819,-4.5737,-4.4587,-4.3639,-4.2794,-4.2016,-4.1305,-4.0629,-4.0113,0.0,0.0,-4.0113,0.0,0.0,0.0,0.0,-4.0113,-4.0113,-4.0113,-4.0113,-4.0113,-4.0113,-4.0451,-4.0865,0.0,-4.0561,-4.1102,-4.0383,-4.0113,-4.0113,-4.0113,-4.0113,-4.0113,-4.0113,-4.0113,-4.0146,-4.035,-4.0383,-4.0654,-4.1948,-4.2286,-4.2422,-4.2997,-4.2406,-4.1432,0.0,0.0,0.0,0.0,0.0,0.0,0.0,0.0,0.0,0.0,0.0,0.0,0.0,0.0,0.0,-3.6795,0.0,0.0,-3.7889,-3.7584,-3.7202,-3.6829,-3.6795,-3.6434,-3.5633,0.0,0.0,-3.7889,-3.8633,-3.9368,-4.0079,-4.0113,-4.0113,-4.0113,-4.0113,-4.0113,-4.0113,-4.0113,-4.0113,-4.0113,-4.0113,-4.0113,-4.0113,-4.0113,-4.0113,-4.0113,-4.0113,-4.0113,-3.9978,-3.9209,-3.8302,-3.7383,-3.6129,-3.6738,-3.7381,-3.7709,-3.8319,-3.9005,-3.9817,-4.0933,-4.2658,-4.5365,-4.7631,-4.9593,-5.115,-5.2232,-5.2841,-5.2841,-5.1725,-5.0473,-4.9086,-4.8511,-4.7462,-4.5771,-4.4891,-4.391,-4.2794,-4.1745,0.0,-4.0113,-4.0113,-4.0113,-4.0113,0.0,0.0,0.0,0.0,-4.0113,-4.0113,-4.0113,-4.0282,-4.0527,-4.0248,-4.035,0.0,-4.0282,-4.0383,-4.0663,-4.0248,-4.0113,-4.0113,-4.0113,-4.0113,-4.0113,-4.0113,-4.0113,-4.018,-4.0493,-4.0561,-4.0899,-4.2388,-4.2794,-4.2963,-4.3741,-4.3127,-4.2083,-4.1249,-4.0189,-3.9325,0.0,-3.8557,-3.8386,0.0,0.0,0.0,0.0,0.0,0.0,0.0,0.0,0.0,0.0,-3.6592,-3.6829,-3.6907,-3.684,-3.666,-3.6299,-3.6626,-3.6434,0.0,0.0,0.0,-3.7922,-3.9242,-3.9986,-4.0113,-4.0417,-4.0417,-4.0113,-4.0113,-4.0113,-4.0113,-4.0113,-4.0113,-4.0113,-4.0113,-4.0113,-4.0113,-4.0113,-4.0113,-4.0113,-4.0113,-3.9901,-3.9532,-3.9069,-3.8442,-3.7648,-3.6931,-3.755,-3.8261,-3.887,-4.029,-4.1407,-4.161,-4.2354,-4.3606,-4.5602,-4.7868,-4.9526,-5.0168,-5.2198,-5.345,-5.3348,-5.2638,-5.1319,-4.9289,-4.9661,-4.8815,-4.6244,-4.594,-4.5128,-4.3578,-4.2117,-4.0933,-4.0113,-4.0113,-4.0113,-4.0113,0.0,0.0,0.0,0.0,0.0,0.0,-4.0113,-4.046,-4.1001,-4.0383,-4.0113,-4.0113,-4.0113,-4.0113,-4.0113,-4.0113,-4.0113,-4.0113,-4.0113,-4.0113,-4.0113,-4.0113,-4.0113,-4.0248,-4.0967,-4.1204,-4.1508,-4.2868,-4.3308,-4.3572,-4.4248,-4.3436,-4.2422,-4.2422,-4.1305,-4.0248,-4.0248,-3.9625,-3.9289,0.0,0.0,0.0,0.0,0.0,0.0,0.0,0.0,0.0,0.0,0.0,0.0,-3.6107,-3.6502,-3.6468,-3.5667,-3.6332,0.0,0.0,0.0,0.0,-3.7922,-3.9952,-4.0798,-4.0248,-4.0764,-4.0764,-4.0248,-4.0146,-4.0113,-4.0113,-4.0113,-4.0113,-4.0113,-4.0113,-4.0113,-4.0113,-4.0113,-4.0113,-4.0113,-3.9978,-3.9532,-3.8881,-3.869,-3.8189,-3.7472,-3.7719,-3.8294,-3.8836,-3.8971,-4.073,-4.2523,-4.3836,-4.5128,-4.6143,-4.6549,-4.9052,-5.0879,-5.1014,-5.2503,-5.3247,-5.257,-5.1826,-5.098,-4.9965,0.0,0.0,-4.8443,-4.7259,-4.5906,-4.4445,-4.2895,-4.1467,-4.0113,-4.0113,-4.0113,-4.0113,0.0,0.0,0.0,0.0,0.0,-4.0113,-4.0113,0.0,-4.0282,-4.0146,-4.0113,-4.0113,-4.0113,-4.0113,-4.0113,-4.0113,-4.0113,-4.0113,-4.0113,-4.0113,-4.0113,-4.0113,-4.0113,-4.0248,-4.0967,-4.1204,-4.1407,-4.2252,-4.2963,-4.3409,-4.3544,-4.3436,-4.3206,-4.3206,-4.2083,-4.1001,-4.1001,-4.0417,-3.9927,-4.0087,0.0,0.0,0.0,0.0,0.0,0.0,0.0,0.0,0.0,0.0,-3.7889,0.0,-3.7438,-3.6468,-3.5667,0.0,0.0,0.0,0.0,0.0,0.0,-3.9445,0.0,0.0,0.0,-4.0527,-4.1001,-4.0383,-4.0113,-4.0113,-4.0113,-4.0113,-4.0113,-4.0113,-4.0113,-4.0113,-4.0113,-4.0113,-4.0028,-3.9368,-3.9016,-3.8745,-3.7467,-3.6934,-3.6752,-3.8971,-3.9309,-3.9808,-4.0561,-4.2252,-4.4005,-4.5529,-4.6989,-4.7665,-4.6887,-4.8376,-4.9461,-4.9461,-5.1183,-5.2164,-5.1758,-5.142,-5.0913,-5.0135,-4.9763,-4.939,-4.9018,-4.7597,-4.6278,-4.5196,-4.3267,-4.1745,-4.0663,-4.0282,-4.0113,-4.0113,0.0,0.0,-4.0113,0.0,-4.0316,0.0,0.0,0.0,-4.0629,-4.0248,-4.0113,-4.0113,-4.0113,-4.0113,-4.0113,-4.0113,-4.0113,-4.0113,-4.0113,-4.0113,-4.0113,-4.0113,-4.0383,-4.073,-4.1102,-4.1474,-4.1847,-4.2185,-4.2828,-4.3375,-4.3375,-4.3375,-4.3375,-4.3375,-4.2557,-4.1779,-4.1779,-4.117,-4.0527,-4.018,-3.9765,0.0,0.0,0.0,0.0,0.0,0.0,-3.87,0.0,0.0,0.0,0.0,0.0,0.0,0.0,0.0,0.0,0.0,0.0,0.0,0.0,0.0,0.0,-4.0629,0.0,-4.0663,-4.0629,-4.0282,-4.0113,-4.0113,-4.0113,-4.0113,-4.0113,-4.0113,-4.0113,-4.0113,-4.0113,-4.0113,-4.0003,-3.9236,-3.8663,-3.8189,-3.7024,-3.6353,-3.6038,-4.0383,-4.0587,-4.106,-4.255,-4.4073,-4.5461,-4.6616,-4.8037,-4.8578,-4.7428,-4.7902,-4.8376,-4.8376,-5.0035,-5.115,-5.098,-5.098,-5.0642,-4.9898,-4.9864,-4.9593,-4.9018,-4.7597,-4.6447,-4.5737,-4.347,-4.1948,-4.1204,-4.0485,-4.0113,0.0,0.0,0.0,0.0,0.0,0.0,0.0,0.0,-4.0451,-4.0933,-4.035,-4.0113,-4.0113,-4.0113,-4.0113,-4.0113,-4.0113,-4.0113,-4.0113,-4.0113,-4.0113,-4.0113,-4.0113,-4.0519,-4.1035,-4.1339,-4.1847,-4.232,-4.2489,-4.2963,-4.3375,-4.3375,-4.3274,-4.3267,-4.3606,-4.2963,-4.232,-4.2489,-4.1813,-4.0967,-4.0248,-4.0113,0.0,0.0,0.0,0.0,0.0,0.0,0.0,0.0,0.0,0.0,-3.6242,0.0,0.0,0.0,0.0,0.0,-3.5926,0.0,0.0,0.0,0.0,-4.0764,-4.035,0.0,-4.073,-4.035,-4.018,-4.0113,-4.0113,-4.0113,-4.0113,-4.0113,-4.0113,-4.0113,-4.0113,-4.0113,-4.0113,-3.9978,-3.9049,-3.8302,-3.7706,-3.6722,-3.6006,-3.5519,-4.1813,-4.2083,-4.2584,-4.4141,-4.5602,-4.6616,-4.6786,-4.8037,-4.8951,-4.8815,-4.9424,-4.9898,-4.9898,-5.0676,-5.0947,-5.0236,-5.0202,-4.9898,-4.9154,-4.912,-4.9086,-4.9018,-4.7597,-4.6447,-4.5737,-4.347,-4.1948,-4.1204,-4.0485,-4.0113,0.0,0.0,0.0,0.0,0.0,0.0,0.0,-4.0146,-4.0146,-4.0214,-4.0146,-4.0113,-4.0113,-4.0113,-4.0113,-4.0113,-4.0113,-4.0113,-4.0113,-4.0113,-4.0113,-4.0113,-4.0113,-4.0146,-4.0485,-4.1779,-4.2252,-4.2455,-4.3132,-4.3341,-4.3375,-4.3375,-4.2895,-4.276,-4.4175,-4.3335,-4.2489,-4.3139,-4.2185,-4.0967,-4.0248,-4.0113,-4.0113,0.0,0.0,0.0,0.0,0.0,-3.9706,-3.887,0.0,0.0,0.0,-3.843,0.0,0.0,-3.7246,0.0,0.0,0.0,0.0,-3.7922,-3.9377,-4.0493,-4.1102,-4.0493,-4.0493,-4.1102,-4.0417,-4.0113,-4.0113,-4.0113,-4.0113,-4.0113,-4.0113,-4.0113,-4.0113,-4.0113,-4.0113,-3.9952,-3.8502,-3.7879,-3.7618,-3.6133,-3.5554,-3.5519,0.0,0.0,0.0,0.0,0.0,0.0,0.0,-4.8612,-4.9018,-4.9018,-4.9255,-4.9424,-4.9424,-4.9695,-4.9763,-4.9458,-4.9424,-4.9323,-4.9018,-4.9018,-4.9018,-4.9018,-4.8003,-4.7124,-4.638,-4.4587,-4.3064,0.0,0.0,0.0,0.0,0.0,0.0,0.0,0.0,-4.0113,-4.0113,-4.0113,-4.0113,-4.0113,-4.0113,-4.0113,-4.0113,-4.0113,-4.0113,-4.0113,-4.0113,-4.0113,-4.0113,-4.0113,-4.0113,-4.018,-4.0595,-4.1068,-4.1568,-4.2117,-4.2956,-4.3538,-4.2895,-4.3403,-4.4012,-4.3511,-4.3538,-4.3836,-4.4479,-4.4141,-4.3768,-4.4045,-4.3267,-4.2185,-4.0967,-4.0764,-4.0595,-4.018,0.0,0.0,0.0,0.0,0.0,-3.9073,0.0,-3.8362,0.0,0.0,0.0,0.0,0.0,0.0,0.0,0.0,0.0,-3.8565,0.0,-4.0248,-4.0527,-4.0248,-4.0248,-4.0527,-4.0248,-4.0113,-4.0113,-4.0113,-4.0113,-4.0113,-4.0113,-4.0113,-4.0113,-4.0113,-4.0113,-3.9927,-3.8418,-3.7793,-3.7618,-3.61,-3.5519,-3.5519,-4.3944,0.0,-4.5432,0.0,-4.7428,-4.78,-4.8849,-4.9018,-4.9018,-4.9018,-4.9018,-4.9018,-4.9018,-4.9018,-4.9018,-4.9018,-4.9018,-4.9018,-4.9018,-4.9018,-4.9018,-4.9018,-4.8308,0.0,-4.7124,-4.5466,-4.4073,-4.299,-4.1779,0.0,0.0,0.0,0.0,0.0,-4.0113,-4.0113,-4.0113,-4.0113,-4.0113,-4.0113,-4.0113,-4.0113,-4.0113,-4.0113,-4.0113,-4.0113,-4.0113,-4.0113,-4.0113,-4.0113,-4.0113,-4.018,-4.0696,-4.1373,-4.2016,-4.2219,-4.32,-4.4012,-4.2929,-4.3403,-4.4113,-4.3511,-4.3842,-4.431,-4.4547,-4.4615,-4.4547,-4.4282,-4.3809,-4.2936,-4.1474,-4.1204,-4.0967,-4.0214,0.0,0.0,0.0,-4.0113,0.0,-3.9073,-3.8734,-3.8159,-3.7235,-3.799,0.0,0.0,0.0,0.0,0.0,0.0,0.0,0.0,0.0,0.0,-4.0113,-4.0113,-4.0113,-4.0113,-4.0113,-4.0113,-4.0113,-4.0113,-4.0113,-4.0113,-4.0113,-4.0113,-4.0113,-4.0113,-4.0113,-3.9952,-3.8668,-3.7991,-3.7648,-3.629,-3.5716,-3.5519,-4.5229,-4.5703,-4.638,-4.8578,-4.8984,-4.8984,-4.9018,-4.9018,-4.9018,-4.9018,-4.9018,-4.9018,-4.9018,-4.9018,-4.9018,-4.9018,-4.9018,-4.9018,-4.9018,-4.9018,-4.9018,0.0,0.0,-4.7906,-4.7872,-4.5737,-4.4581,-4.4581,0.0,0.0,-4.117,0.0,-4.0113,-4.0113,-4.0113,-4.0113,-4.0113,-4.0113,-4.0113,-4.0113,-4.0113,-4.0113,-4.0113,-4.0113,-4.0113,-4.0113,-4.0113,-4.0113,-4.0113,-4.0113,-4.0113,-4.0113,-4.0113,-4.0595,-4.1373,-4.2083,-4.2828,-4.3409,-4.3375,-4.3375,-4.3409,-4.3375,-4.3409,-4.3639,-4.4445,-4.4615,-4.435,-4.3606,-4.3409,-4.2936,-4.1474,-4.1204,-4.0967,-4.0214,0.0,0.0,0.0,-4.0113,0.0,-3.9073,-3.9639,-3.9503,-3.8024,-3.9208,0.0,0.0,0.0,0.0,0.0,0.0,0.0,-3.9005,-3.974,0.0,-4.0113,-4.0113,-4.0113,-4.0113,-4.0113,-4.0113,-4.0113,-4.0113,-4.0113,-4.0113,-4.0113,-4.0113,-4.0113,-4.0113,-4.0113,-4.0003,-3.9209,-3.8442,-3.7706,-3.6873,-3.6134,-3.5519,-4.5568,-4.6515,-4.7428,-4.8139,-4.868,-4.9018,-4.9018,-4.9018,-4.9018,-4.9018,-4.9018,-4.9018,-4.9018,-4.9018,-4.9018,0.0,-4.9018,-4.9018,0.0,-4.9018,-4.9018,-4.9018,-4.8781,-4.8409,-4.7906,-4.6718,-4.5602,-4.4615,0.0,0.0,0.0,-4.0451,-4.0113,-4.0113,-4.0113,-4.0113,-4.0113,-4.0113,-4.0113,-4.0113,-4.0113,-4.0113,-4.0113,-4.0113,-4.0113,-4.0113,-4.0113,-4.0113,-4.0113,-4.0113,-4.0113,-4.018,-4.0696,-4.1339,-4.2083,-4.2828,-4.3606,-4.4079,-4.3572,-4.3809,-4.4215,-4.4215,-4.4215,-4.4282,-4.4547,-4.4615,-4.4547,-4.4248,-4.4215,-4.391,-4.2895,-4.2286,-4.1711,-4.0967,-4.0451,0.0,-4.0113,0.0,-4.0011,-3.9774,-3.9537,-3.9174,-3.87,-3.9073,0.0,0.0,0.0,0.0,0.0,0.0,0.0,0.0,-3.9977,0.0,-4.0113,-4.0113,-4.0113,-4.0113,-4.0113,-4.0113,-4.0113,-4.0113,-4.0113,-4.0113,-4.0113,-4.0113,-4.0113,-4.0113,-4.0113,-4.0003,-3.9236,-3.8442,-3.7706,-3.6904,-3.6134,-3.5519,-4.6075,-4.709,-4.7973,-4.8244,-4.8714,-4.9018,-4.9018,-4.9018,-4.9018,-4.9018,-4.9018,-4.9018,-4.9018,-4.9018,0.0,-4.9018,-4.9018,-4.9018,-4.9018,-4.9018,-4.9018,-4.9018,-4.9018,-4.8781,-4.8342,-4.7327,0.0,-4.5427,-4.4079,-4.2794,-4.161,-4.1136,-4.0925,-4.0925,-4.0654,-4.0493,-4.0493,-4.0493,-4.0493,-4.0493,-4.0493,-4.0493,-4.0485,-4.0214,-4.0113,-4.0113,-4.0113,-4.0113,-4.0113,-4.0113,-4.0113,-4.0282,-4.1271,-4.1914,-4.2422,-4.32,-4.3978,-4.4445,-4.3639,-4.3978,-4.4547,-4.4215,-4.4378,-4.4615,-4.4615,-4.4615,-4.4615,-4.4615,-4.4615,-4.435,-4.3572,-4.3031,-4.2388,-4.1373,-4.0798,-4.0417,-4.0146,0.0,-4.0113,0.0,0.0,0.0,0.0,-3.9411,-3.9411,0.0,0.0,0.0,0.0,0.0,0.0,-4.0113,-4.0113,-4.0113,-4.0113,-4.0113,-4.0113,-4.0113,-4.0383,-4.0383,-4.0113,-4.0383,-4.0383,-4.0113,-4.0113,-4.0113,-4.0113,-4.0113,-4.0113,-4.0028,-3.9558,-3.8854,-3.8104,-3.7352,-3.6569,-3.5847,-4.665,-4.7394,-4.8108,0.0,-4.8984,-4.9018,-4.9018,-4.9018,-4.9018,-4.9018,-4.9018,-4.9018,-4.9018,-4.9018,-4.9018,-4.9018,0.0,0.0,-4.9018,-4.9018,-4.9018,-4.9018,-4.9018,-4.9018,-4.9018,-4.7597,-4.6819,-4.6718,-4.4485,-4.3064,-4.2388,-4.232,-4.2286,-4.2252,-4.1576,-4.1271,-4.1271,-4.1271,-4.1271,-4.1271,-4.1271,-4.1238,-4.1136,-4.0493,-4.018,-4.0113,-4.018,-4.0146,-4.0113,-4.018,-4.018,-4.0451,-4.1914,-4.2388,-4.2523,-4.3267,-4.4012,-4.4445,-4.3707,-4.4012,-4.4445,-4.3673,-4.4045,-4.4615,-4.4615,-4.4615,-4.4615,-4.4615,-4.4615,-4.435,-4.3639,-4.3375,-4.2868,-4.1508,-4.1204,-4.0865,-4.0214,-4.0113,-4.0113,0.0,0.0,0.0,-4.0113,-4.0113,-4.0113,0.0,0.0,0.0,0.0,0.0,-4.0146,-4.0113,-4.0146,-4.018,-4.018,-4.018,-4.0214,-4.0282,-4.0933,-4.0899,-4.0282,-4.0967,-4.0865,-4.018,-4.018,-4.0146,-4.0113,-4.0113,-4.0113,-4.0113,-4.0113,-3.961,-3.8799,-3.8048,-3.7293,-3.6508,0.0,0.0,-4.7939,-4.8108,-4.8646,-4.9018,-4.9018,-4.9018,-4.9018,-4.9018,-4.9018,-4.9018,-4.9018,-4.9018,-4.9018,-4.9018,-4.9018,-4.9018,-4.9018,-4.9018,-4.9018,-4.9018,-4.9018,-4.9018,-4.9018,-4.8105,-4.709,-4.5974,-4.4248,-4.3308,-4.3132,-4.2557,-4.2286,-4.2286,-4.2117,-4.2049,-4.2049,-4.2049,-4.2049,-4.2049,-4.2049,-4.1711,-4.1238,-4.161,-4.1094,-4.018,-4.073,-4.0561,-4.018,-4.073,-4.0933,-4.1204,-4.2692,-4.3166,-4.3301,-4.4079,-4.4479,-4.4581,-4.4378,-4.4479,-4.4547,-4.435,-4.4479,-4.4615,-4.4615,-4.4615,-4.4615,-4.4615,-4.4615,-4.4547,-4.435,-4.3335,-4.2455,-4.2083,-4.1068,-4.0316,-4.0113,-4.0113,-4.0113,0.0,-4.0113,-4.0113,-4.0113,-4.0113,-4.035,0.0,0.0,0.0,-4.0899,-4.0933,-4.0663,-4.0113,-4.0629,-4.0933,-4.0933,-4.0933,-4.1204,-4.1805,-4.1948,-4.1948,-4.1779,-4.1948,-4.1644,-4.0933,-4.0933,-4.0595,-4.0113,-4.0113,-4.0113,-4.0113,-4.0113,-3.961,-3.8799,-3.8048,-3.7293,-3.6508,-4.7225,-4.7902,-4.8409,-4.8409,-4.8748,-4.9018,-4.9018,-4.9018,-4.9018,-4.9018,-4.9018,-4.9018,-4.9018,-4.9018,-4.9018,-4.9018,-4.9018,-4.9018,-4.9018,-4.9018,-4.9018,-4.9018,-4.9018,-4.9018,-4.9018,-4.797,-4.6684,-4.5196,-4.435,-4.3944,-4.3944,-4.3538,-4.3362,-4.3362,-4.2963,-4.2794,-4.2794,-4.2794,-4.2794,-4.276,-4.2422,-4.2252,-4.2185,-4.1914,-4.1508,-4.1162,-4.1542,-4.1441,-4.1162,-4.1576,-4.1711,-4.1914,-4.3064,-4.3375,-4.3572,-4.435,-4.4615,-4.4615,-4.4615,-4.4615,-4.4615,-4.4615,-4.4615,-4.4615,-4.4615,-4.4615,-4.4716,-4.5026,-4.4852,-4.4716,-4.5026,-4.3842,-4.2692,-4.2354,-4.1339,-4.0493,-4.0146,-4.0113,-4.0248,-4.0561,-4.0595,-4.0756,-4.1094,-4.1128,-4.1102,-4.1204,-4.0832,0.0,-4.117,-4.1508,-4.1339,-4.0629,-4.1305,-4.1711,-4.1711,-4.1711,-4.188,-4.2286,-4.2625,-4.2625,-4.2286,-4.2658,-4.2388,-4.1711,-4.1711,-4.1474,-4.1094,-4.073,-4.0595,-4.0561,-4.0248,-3.985,-3.9315,-3.8222,-3.7499,-3.6964,-4.7838,-4.8379,-4.8883,-4.8984,-4.9018,-4.9018,-4.9018,-4.9018,-4.9018,-4.9018,-4.9018,-4.9018,-4.9018,-4.9018,-4.9018,-4.9018,-4.9018,-4.9018,-4.9018,-4.9018,-4.9018,-4.9018,-4.9018,-4.9018,-4.9018,-4.7564,-4.6109,-4.4784,-4.4649,-4.4615,-4.4615,-4.4615,-4.4615,-4.4581,-4.3876,-4.3606,-4.3606,-4.3606,-4.3606,-4.3538,-4.2895,-4.2963,-4.3274,-4.2151,-4.1948,-4.2286,-4.2422,-4.2388,-4.232,-4.2422,-4.2455,-4.2591,-4.3369,-4.3606,-4.3741,-4.4412,-4.4682,-4.475,-4.4649,-4.4615,-4.4649,-4.475,-4.4784,-4.4818,-4.4919,-4.4953,-4.5122,-4.5737,-4.5263,-4.4959,-4.5602,-4.435,-4.3064,-4.2557,-4.1644,-4.0832,-4.035,0.0,-4.0519,-4.1136,-4.1305,-4.161,-4.2219,-4.2286,-4.2083,-4.1576,-4.1441,-4.1407,-4.1542,-4.2117,-4.2185,-4.1576,-4.2151,-4.2455,-4.2455,-4.2591,-4.2625,-4.2625,-4.3301,-4.3267,-4.2658,-4.3301,-4.3166,-4.2455,-4.2354,-4.2219,-4.2083,-4.1474,-4.1136,-4.0967,-4.0485,-4.0206,-3.9882,-3.8367,-3.7799,-3.7539,-4.7635,-4.7973,-4.8274,-4.8883,-4.9018,-4.9018,-4.9018,-4.9018,-4.9018,-4.9018,-4.9018,-4.9018,-4.9018,-4.9018,-4.9018,-4.9018,-4.9018,-4.9018,-4.9018,-4.9018,-4.9018,-4.9018,-4.9018,-4.9018,-4.9018,-4.7564,-4.638,-4.5534,-4.4919,-4.4615,-4.4615,-4.4615,-4.4615,-4.4615,-4.4479,-4.4384,-4.4384,-4.4384,-4.4384,-4.4412,-4.431,-4.391,-4.3443,-4.3876,-4.3335,-4.2388,-4.3031,-4.2828,-4.2388,-4.3031,-4.3234,-4.3369,-4.4147,-4.4384,-4.4445,-4.4581,-4.5026,-4.5399,-4.4784,-4.4615,-4.475,-4.5365,-4.5534,-4.5703,-4.6312,-4.6447,-4.6481,-4.6616,-4.6041,-4.5568,-4.5703,-4.3944,-4.2625,-4.3166,-4.1542,-4.0451,-4.0967,0.0,-4.1068,-4.1204,-4.1745,-4.2151,-4.2286,-4.2286,-4.2523,-4.3003,-4.2489,-4.2388,-4.3003,-4.3172,-4.32,-4.3037,-4.3172,-4.3234,-4.3234,-4.3876,-4.4242,-4.4242,-4.4378,-4.4378,-4.4242,-4.4378,-4.3978,-4.3172,-4.2557,-4.1948,-4.1373,-4.1271,-4.0832,-4.0316,-4.0832,-4.0574,-3.9764,-3.833,-3.7731,-3.7437,-4.777,-4.824,-4.8612,-4.8951,-4.9018,-4.9018,-4.9018,-4.9018,-4.9018,-4.9018,-4.9018,-4.9018,-4.9018,-4.9018,-4.9018,-4.9018,-4.9018,-4.9018,-4.9018,-4.9018,-4.9018,-4.9018,-4.9018,-4.8646,-4.7834,-4.7158,-4.6244,-4.5094,-4.4784,-4.4615,-4.4615,-4.4615,-4.4615,-4.4615,-4.4615,-4.4615,-4.4615,-4.4615,-4.4615,-4.4581,-4.4113,-4.3978,-4.4045,-4.3978,-4.3775,-4.3572,-4.391,-4.3809,-4.3599,-4.391,-4.4045,-4.4113,-4.4479,-4.4615,-4.4615,-4.4615,-4.4852,-4.5128,-4.5162,-4.4919,-4.4682,-4.5026,-4.5399,-4.5805,-4.6143,-4.6515,-4.6921,-4.7327,-4.6819,-4.6278,-4.6278,-4.4418,-4.2997,-4.3341,-4.1542,0.0,-4.1644,-4.1779,-4.2083,-4.2929,-4.3673,-4.4282,-4.4688,-4.4722,-4.4688,-4.4654,-4.4316,-4.4113,-4.4045,-4.4045,-4.4045,-4.4045,-4.4045,-4.4045,-4.4045,-4.4384,-4.4615,-4.4615,-4.4615,-4.4615,-4.4615,-4.4615,-4.4412,-4.4012,-4.3234,-4.2963,-4.2963,-4.2151,-4.1813,-4.1854,-4.1291,-4.0873,-4.0295,-3.8767,-3.8185,-3.7957,-4.7331,-4.8003,-4.8545,-4.8714,-4.8883,-4.9018,-4.9018,-4.9018,-4.9018,-4.9018,-4.9018,-4.9018,-4.9018,-4.9018,-4.9018,-4.9018,-4.9018,-4.9018,-4.9018,-4.9018,-4.9018,-4.9018,-4.9018,-4.8376,-4.709,-4.6887,-4.6143,-4.4886,-4.4682,-4.4615,-4.4615,-4.4615,-4.4615,-4.4615,-4.4615,-4.4615,-4.4615,-4.4615,-4.4615,-4.4547,-4.3944,-4.4045,-4.4547,-4.391,-4.4045,-4.4615,-4.4615,-4.4615,-4.4615,-4.4615,-4.4716,-4.4886,-4.4886,-4.4987,-4.5122,-4.5122,-4.5122,-4.5224,-4.5602,-4.5297,-4.4919,-4.5089,-4.5534,-4.6041,-4.6413,-4.6921,-4.7462,-4.8071,-4.7564,-4.7056,-4.7056,-4.5229,-4.3741,-4.391,0.0,-4.1128,-4.2651,-4.2828,-4.3362,-4.4688,-4.55,-4.6177,-4.6752,-4.6786,-4.6549,-4.6007,-4.5974,-4.5703,-4.5156,-4.5122,-4.5055,-4.4857,-4.4886,-4.4953,-4.5122,-4.5122,-4.5055,-4.4886,-4.4886,-4.4784,-4.4615,-4.4615,-4.4615,-4.4581,-4.3741,-4.3775,-4.4215,-4.3031,-4.2794,-4.3017,-4.1768,-4.1173,-4.0788,-3.9188,-3.8604,-3.8463,-4.5737,-4.6447,-4.7192,-4.7838,-4.8545,-4.9018,-4.9018,-4.9018,-4.9018,-4.9018,-4.9018,-4.9018,-4.9018,-4.9018,-4.9018,-4.9018,-4.9018,-4.9018,-4.9018,-4.9018,-4.9018,-4.9018,-4.9018,-4.8646,-4.7838,-4.7158,-4.6413,-4.5635,-4.4925,-4.4615,-4.4615,-4.4615,-4.4615,-4.4615,-4.4615,-4.4615,-4.4615,-4.4615,-4.4615,-4.4615,-4.4547,-4.4547,-4.4615,-4.4547,-4.4547,-4.4615,-4.4615,-4.4615,-4.4615,-4.4615,-4.5026,-4.5635,-4.5635,-4.6075,-4.6616,-4.6616,-4.6616,-4.6481,-4.5872,-4.5669,-4.5771,-4.6447,-4.6684,-4.709,-4.8443,-4.8815,-4.8849,-4.8917,-4.8342,-4.7804,-4.7804,-4.6007,-4.4722,-4.5432,0.0,0.0,-4.4209,-4.4445,-4.475,-4.5534,-4.6278,-4.6718,-4.6786,-4.6786,-4.6786,-4.6718,-4.6718,-4.6684,-4.6616,-4.6616,-4.6312,-4.5635,-4.5635,-4.594,-4.6616,-4.6616,-4.6278,-4.5635,-4.5635,-4.5263,-4.4615,-4.4615,-4.4615,-4.4581,-4.3741,-4.3409,-4.3477,-4.3369,-4.2963,-4.2368,-4.2195,-4.1629,-4.0704,-3.9152,-3.8547,-3.8317,-4.6244,-4.6616,-4.7192,-4.8376,-4.8443,-4.8477,-4.8951,-4.9018,-4.9018,-4.9018,-4.9018,-4.9018,-4.9018,-4.9018,-4.9018,-4.9018,-4.9018,-4.9018,-4.9018,-4.9018,-4.9018,-4.9018,-4.9018,-4.8646,-4.7906,-4.7631,-4.7124,-4.638,-4.5635,-4.5263,-4.5263,-4.479,-4.4615,-4.4615,-4.4615,-4.4615,-4.4615,-4.4615,-4.4615,-4.4615,-4.4615,-4.4615,-4.4615,-4.4615,-4.4615,-4.4615,-4.4615,-4.4615,-4.4615,-4.4615,-4.5094,-4.5703,-4.5703,-4.621,-4.6887,-4.7361,-4.7496,-4.7428,-4.7158,-4.6718,-4.6447,-4.6718,-4.7158,-4.7631,-4.8206,-4.868,-4.9018,-4.9018,-4.8781,-4.8443,-4.7973,-4.6853,-4.6041,-4.6346,0.0,-4.4276,-4.5766,-4.594,-4.6244,-4.6989,-4.7733,-4.8173,-4.8173,-4.8173,-4.8173,-4.8173,-4.8173,-4.797,-4.753,-4.7056,-4.6887,-4.7056,-4.6616,-4.6312,-4.6109,-4.6109,-4.5974,-4.5703,-4.5229,-4.4886,-4.4615,-4.506,-4.5026,-4.4581,-4.4282,-4.4147,-4.4113,-4.3606,-4.3538,-4.3597,-4.2523,-4.185,-4.1374,-3.9733,-3.9063,-3.899,-4.6007,-4.6278,-4.6853,-4.8105,-4.8105,-4.8142,-4.8883,-4.9018,-4.9018,-4.9018,-4.9018,-4.9018,-4.9018,-4.9018,-4.9018,-4.9018,-4.9018,-4.9018,-4.9018,-4.9018,-4.9018,-4.9018,-4.9018,-4.8781,-4.8274,-4.8007,-4.7665,-4.7158,-4.6413,-4.594,-4.5703,-4.5162,-4.4818,-4.4615,-4.4615,-4.4615,-4.4615,-4.4615,-4.4615,-4.4615,-4.4615,-4.4615,-4.4615,-4.4615,-4.4615,-4.4615,-4.4615,-4.475,-4.4925,-4.4925,-4.5602,-4.6413,-4.6413,-4.6887,-4.7597,-4.8105,-4.8274,-4.8274,-4.8274,-4.7868,-4.7428,-4.7192,-4.753,-4.7939,-4.8176,-4.8646,-4.9018,-4.9018,-4.9018,-4.8849,-4.8342,-4.7631,-4.7158,-4.7158,-4.6075,-4.5703,-4.6955,-4.7158,-4.7428,-4.8173,-4.8714,-4.9018,-4.9018,-4.9018,-4.9018,-4.9018,-4.9018,-4.8781,-4.8274,-4.7767,-4.7631,-4.7872,-4.7631,-4.7158,-4.6413,-4.6413,-4.6278,-4.6041,-4.5771,-4.55,-4.5326,-4.5568,-4.5432,-4.4925,-4.4716,-4.4615,-4.4581,-4.4012,-4.4079,-4.4412,-4.2676,-4.1981,-4.1788,-4.0025,-3.9373,-3.9373,-4.4615,-4.5196,-4.594,-4.6684,-4.7428,-4.8142,-4.8883,-4.9018,-4.9018,-4.9018,-4.9018,-4.9018,-4.9018,-4.9018,-4.9018,-4.9018,-4.9018,-4.9018,-4.9018,-4.9018,-4.9018,-4.9018,-4.9018,-4.9018,-4.9018,-4.8277,-4.7906,-4.7906,-4.7158,-4.6413,-4.5737,-4.5703,-4.5297,-4.4615,-4.4615,-4.4615,-4.4615,-4.4615,-4.4615,-4.4615,-4.4615,-4.4615,-4.4615,-4.4615,-4.4615,-4.4615,-4.4615,-4.506,-4.5703,-4.5703,-4.6684,-4.7906,-4.7906,-4.8409,-4.9018,-4.9018,-4.9018,-4.9018,-4.9018,-4.9018,-4.8815,-4.8075,-4.7906,-4.8075,-4.8849,-4.9018,-4.9018,-4.9018,-4.9018,-4.9018,-4.9018,-4.8409,-4.7906,-4.7906,-4.7293,-4.7056,-4.7804,-4.7906,-4.8206,-4.8917,-4.9018,-4.9018,-4.9018,-4.9018,-4.9018,-4.9018,-4.9018,-4.9018,-4.9018,-4.9018,-4.868,-4.7906,-4.8612,-4.8646,-4.7906,-4.7906,-4.753,-4.6819,-4.7564,-4.753,-4.6752,-4.6041,-4.5703,-4.5669,-4.4925,-4.4615,-4.4615,-4.4615,-4.4615,-4.4412,-4.2707,-4.2013,-4.1788,-4.006,-3.9409,-3.9373,-4.5969,-4.5906,-4.6278,-4.8037,-4.8105,-4.8142,-4.8883,-4.9018,-4.9018,-4.9018,-4.9018,-4.9018,-4.9018,-4.9018,-4.9018,-4.9018,-4.9018,-4.9018,-4.9018,-4.9018,-4.9018,-4.9018,-4.9018,-4.9018,-4.9018,-4.8781,-4.868,-4.868,-4.7936,-4.7462,-4.7196,-4.6177,-4.5602,-4.5365,-4.4852,-4.4615,-4.4615,-4.4615,-4.4615,-4.4615,-4.4615,-4.4615,-4.4615,-4.4615,-4.4615,-4.4682,-4.5196,-4.55,-4.5771,-4.6312,-4.7124,-4.7973,-4.8511,-4.8815,-4.9018,-4.9018,-4.9018,-4.9018,-4.9018,-4.9018,-4.8951,-4.8748,-4.868,-4.8748,-4.8951,-4.9018,-4.9018,-4.9018,-4.9018,-4.9018,-4.9018,-4.8815,-4.868,-4.868,-4.8477,-4.8409,-4.8646,-4.868,-4.8748,-4.8984,-4.9018,-4.9018,-4.9018,-4.9018,-4.9018,-4.9018,-4.9018,-4.9018,-4.9018,-4.9018,-4.8917,-4.868,-4.8376,-4.8108,-4.7906,-4.7906,-4.753,-4.6786,-4.7022,-4.6752,-4.6075,-4.6887,-4.6684,-4.5737,-4.6007,-4.5563,-4.4615,-4.4615,-4.4615,-4.4468,-4.335,-4.2552,-4.1853,-4.0724,-3.992,-3.9373,-4.6235,-4.6244,-4.665,-4.8274,-4.8206,-4.8142,-4.8883,-4.9018,-4.9018,-4.9018,-4.9018,-4.9018,-4.9018,-4.9018,-4.9018,-4.9018,-4.9018,-4.9018,-4.9018,-4.9018,-4.9018,-4.9018,-4.9018,-4.9018,-4.9018,-4.9018,-4.9018,-4.9018,-4.8578,-4.8176,-4.7872,-4.6684,-4.5974,-4.5669,-4.4925,-4.4615,-4.4615,-4.4615,-4.4615,-4.4615,-4.4615,-4.4615,-4.4615,-4.4615,-4.4784,-4.5094,-4.5534,-4.6075,-4.665,-4.709,-4.7733,-4.8409,-4.8849,-4.9018,-4.9018,-4.9018,-4.9018,-4.9018,-4.9018,-4.9018,-4.9018,-4.9018,-4.9018,-4.9018,-4.9018,-4.9018,-4.9018,-4.9018,-4.9018,-4.9018,-4.9018,-4.9018,-4.9018,-4.9018,-4.9018,-4.9018,-4.9018,-4.9018,-4.9018,-4.9018,-4.9018,-4.9018,-4.9018,-4.9018,-4.9018,-4.9018,-4.9018,-4.9018,-4.9018,-4.9018,-4.9018,-4.9018,-4.8578,-4.8342,-4.8342,-4.8342,-4.797,-4.7259,-4.753,-4.7428,-4.7022,-4.7631,-4.7398,-4.6583,-4.6413,-4.5838,-4.4993,-4.4716,-4.4384,-4.4006,-4.3139,-4.2269,-4.1363,-4.0516,-3.9849,-3.9373,-4.6016,-4.6447,-4.7124,-4.7868,-4.7973,-4.821,-4.8917,-4.9018,-4.9018,-4.9018,-4.9018,-4.9018,-4.9018,-4.9018,-4.9018,-4.9018,-4.9018,-4.9018,-4.9018,-4.9018,-4.9018,-4.9018,-4.9018,-4.9018,-4.9018,-4.9018,-4.9018,-4.9018,-4.9018,-4.868,-4.7973,-4.7192,-4.6447,-4.5771,-4.4959,-4.4615,-4.4615,-4.4615,-4.4615,-4.4615,-4.4615,-4.4615,-4.4615,-4.4615,-4.506,-4.5703,-4.5771,-4.6718,-4.7906,-4.7973,-4.8443,-4.9018,-4.9018,-4.9018,-4.9018,-4.9018,-4.9018,-4.9018,-4.9018,-4.9018,-4.9018,-4.9018,-4.9018,-4.9018,-4.9018,-4.9018,-4.9018,-4.9018,-4.9018,-4.9018,-4.9018,-4.9018,-4.9018,-4.9018,-4.9018,-4.9018,-4.9018,-4.9018,-4.9018,-4.9018,-4.9018,-4.9018,-4.9018,-4.9018,-4.9018,-4.9018,-4.9018,-4.9018,-4.9018,-4.9018,-4.9018,-4.9018,-4.9018,-4.9018,-4.9018,-4.9018,-4.8646,-4.7906,-4.8646,-4.8984,-4.8883,-4.8274,-4.7939,-4.7804,-4.6481,-4.5872,-4.5737,-4.4993,-4.4193,-4.3298,-4.2459,-4.1528,-4.0588,-3.9809,-3.9481,-3.9373,-4.7441,-4.7534,-4.7902,-4.8646,-4.8781,-4.8815,-4.8984,-4.9018,-4.9018,-4.9018,-4.9018,-4.9018,-4.9018,-4.9018,-4.9018,-4.9018,-4.9018,-4.9018,-4.9018,-4.9018,-4.9018,-4.9018,-4.9018,-4.9018,-4.9018,-4.9018,-4.9018,-4.9018,-4.9018,-4.8917,-4.8748,-4.7428,-4.6718,-4.6481,-4.519,-4.4615,-4.4615,-4.4615,-4.4615,-4.4615,-4.4615,-4.4615,-4.4615,-4.4615,-4.506,-4.5771,-4.6346,-4.7158,-4.7973,-4.8578,-4.8883,-4.9018,-4.9018,-4.9018,-4.9018,-4.9018,-4.9018,-4.9018,-4.9018,-4.9018,-4.9018,-4.9018,-4.9018,-4.9018,-4.9018,-4.9018,-4.9018,-4.9018,-4.9018,-4.9018,-4.9018,-4.9018,-4.9018,-4.9018,-4.9018,-4.9018,-4.9018,-4.9018,-4.9018,-4.9018,-4.9018,-4.9018,-4.9018,-4.9018,-4.9018,-4.9018,-4.9018,-4.9018,-4.9018,-4.9018,-4.9018,-4.9018,-4.9018,-4.9018,-4.9018,-4.9018,-4.8646,-4.7906,-4.8646,-4.8714,-4.8142,-4.8578,-4.8477,-4.7872,-4.7534,-4.7124,-4.6481,-4.5771,-4.4964,-4.408,-4.3338,-4.2078,-4.069,-4.0485,-3.999,-3.9373,-4.8369,-4.8379,-4.8545,-4.8951,-4.9018,-4.9018,-4.9018,-4.9018,-4.9018,-4.9018,-4.9018,-4.9018,-4.9018,-4.9018,-4.9018,-4.9018,-4.9018,-4.9154,-4.9492,-4.9187,-4.9154,-4.9492,-4.9187,-4.9018,-4.9018,-4.9018,-4.9018,-4.9018,-4.9018,-4.9018,-4.8984,-4.7868,-4.7327,-4.7293,-4.6143,-4.5664,-4.5664,-4.5664,-4.5432,-4.5128,-4.5128,-4.5128,-4.5094,-4.475,-4.55,-4.6752,-4.6786,-4.7496,-4.8477,-4.8883,-4.9018,-4.9018,-4.9018,-4.9018,-4.9018,-4.9018,-4.9018,-4.9018,-4.9018,-4.9018,-4.9018,-4.9018,-4.9018,-4.9018,-4.9018,-4.9018,-4.9018,-4.9018,-4.9018,-4.9018,-4.9018,-4.9289,-4.939,-4.9052,-4.9289,-4.9526,-4.9526,-4.9221,-4.912,-4.9492,-4.9221,-4.9018,-4.9018,-4.9018,-4.9018,-4.9018,-4.9018,-4.9018,-4.9018,-4.9018,-4.9018,-4.9018,-4.9018,-4.9018,-4.9018,-4.9018,-4.8815,-4.8443,-4.8815,-4.8815,-4.8443,-4.8815,-4.8815,-4.8409,-4.8041,-4.7699,-4.7259,-4.6549,-4.5257,-4.378,-4.3716,-4.2417,-4.0614,-4.0919,-4.0746,-4.0307,-4.9062,-4.9017,-4.9018,-4.9018,-4.9018,-4.9018,-4.9018,-4.9018,-4.9018,-4.9018,-4.9018,-4.9018,-4.9018,-4.912,-4.9187,-4.9187,-4.9187,-4.9492,-5.0236,-4.9593,-4.9458,-5.0067,-4.9492,-4.912,-4.9018,-4.9018,-4.9018,-4.9018,-4.9018,-4.9018,-4.8984,-4.8274,-4.7906,-4.7872,-4.7124,-4.6786,-4.6786,-4.6786,-4.6447,-4.5906,-4.5906,-4.5906,-4.5838,-4.5196,-4.6177,-4.7804,-4.7225,-4.7868,-4.9018,-4.9018,-4.9018,-4.9018,-4.9018,-4.9018,-4.9018,-4.9018,-4.9018,-4.9018,-4.9018,-4.9018,-4.9052,-4.9154,-4.9187,-4.9221,-4.9357,-4.9187,-4.9052,-4.9154,-4.9187,-4.9221,-4.9357,-4.9864,-5.0101,-4.9492,-4.9898,-5.027,-5.027,-4.9763,-4.9593,-5.0202,-4.9627,-4.9154,-4.9018,-4.9018,-4.9018,-4.9018,-4.9018,-4.9018,-4.9018,-4.9018,-4.9018,-4.9018,-4.9018,-4.9018,-4.9018,-4.9018,-4.9018,-4.9018,-4.9018,-4.9018,-4.9018,-4.9018,-4.9018,-4.8984,-4.8376,-4.8075,-4.8007,-4.711,-4.5454,-4.3488,-4.3765,-4.2501,-4.0636,-4.1175,-4.1422,-4.1294,-5.0,-4.9393,-4.9018,-4.9018,-4.9018,-4.9018,-4.9018,-4.9018,-4.9018,-4.9018,-4.9018,-4.9018,-4.9018,-4.956,-4.9932,-4.9932,-4.9932,-5.027,-5.1014,-5.0371,-4.9999,-5.0101,-4.9999,-4.9661,-4.9018,-4.9018,-4.9018,-4.9018,-4.9018,-4.9018,-4.8984,-4.8274,-4.7906,-4.7872,-4.7124,-4.6786,-4.6786,-4.6786,-4.6718,-4.665,-4.665,-4.665,-4.6616,-4.6515,-4.709,-4.7872,-4.777,-4.8308,-4.9018,-4.9018,-4.9018,-4.9018,-4.9018,-4.9018,-4.9018,-4.9018,-4.9018,-4.9018,-4.9018,-4.9018,-4.9154,-4.9796,-4.9932,-5.0101,-5.0777,-4.9932,-4.9187,-4.983,-4.9932,-5.0135,-5.0777,-5.098,-5.1048,-5.0947,-5.1014,-5.1082,-5.1082,-5.098,-5.0947,-5.1048,-5.0405,-4.9695,-4.9052,-4.9018,-4.9018,-4.9018,-4.9018,-4.9018,-4.9018,-4.9018,-4.9018,-4.9018,-4.9018,-4.9018,-4.9018,-4.9018,-4.9018,-4.9018,-4.9018,-4.9018,-4.9018,-4.9018,-4.9018,-4.8984,-4.8883,-4.8849,-4.872,-4.7165,-4.5898,-4.4797,-4.342,-4.223,-4.1265,-4.1392,-4.1422,-4.1422,-5.0592,-4.9722,-4.9018,-4.9018,-4.9018,-4.9018,-4.9018,-4.9018,-4.9018,-4.9018,-4.9018,-4.9018,-4.9018,-4.9289,-4.9492,-4.9492,-4.9864,-5.0236,-5.0574,-5.027,-5.0101,-5.0101,-4.9695,-4.9323,-4.9018,-4.9018,-4.9018,-4.9018,-4.9018,-4.9018,-4.8984,-4.868,-4.8511,-4.8511,-4.8173,-4.8037,-4.8037,-4.8037,-4.78,-4.7428,-4.7428,-4.7428,-4.7361,-4.6955,-4.7496,-4.8511,-4.8511,-4.8714,-4.9018,-4.9018,-4.9018,-4.9018,-4.9018,-4.9018,-4.9018,-4.9018,-4.9018,-4.9018,-4.9018,-4.9289,-4.9695,-4.9999,-5.0405,-5.0811,-5.115,-5.071,-5.0338,-5.0642,-5.071,-5.0811,-5.115,-5.1555,-5.1691,-5.1252,-5.1555,-5.1826,-5.1826,-5.1488,-5.1185,-5.1185,-5.0913,-5.0439,-4.9695,-4.9999,-4.9898,-4.9052,-4.939,-4.9424,-4.9018,-4.9018,-4.9018,-4.9018,-4.9018,-4.9018,-4.9018,-4.9018,-4.9018,-4.9018,-4.9018,-4.9018,-4.9018,-4.9018,-4.9018,-4.9018,-4.9018,-4.9018,-4.8923,-4.7634,-4.6353,-4.5115,-4.4216,-4.3281,-4.2432,-4.2111,-4.2162,-4.2432]},{"header":{"parameterUnit":"m.s-1","parameterCategory":1,"la1":30.6,"la2":28.766,"lo1":-90.7593,"lo2":-88.6598,"dy":0.0162,"dx":0.0183,"nx":116,"ny":114,"refTime":"2024-04-04T12:00:00:Z","depth":0,"parameterNumber":3,"parameterNumberName":"V-component_of_WINDS"},"data":[0.0,0.0,0.0,0.0,0.0,0.0,0.0,0.0,0.0,0.0,0.0,0.0,0.0,0.0,0.0,0.0,0.0,0.0,0.0,0.0,0.0,0.0,0.0,0.0,0.0,0.0,0.0,0.0,0.0,0.0,0.0,0.0,0.0,0.0,0.0,0.0,0.0,0.0,0.0,0.0,0.0,0.0,0.0,0.0,0.0,0.0,0.0,0.0,0.0,0.0,0.0,0.0,0.0,0.0,0.0,0.0,0.0,0.0,0.0,0.0,0.0,0.0,0.0,0.0,0.0,0.0,0.0,0.0,0.0,0.0,0.0,0.0,0.0,0.0,0.0,0.0,0.0,0.0,0.0,0.0,0.0,0.0,0.0,0.0,0.0,0.0,0.0,0.0,0.0,0.0,0.0,0.0,0.0,0.0,0.0,0.0,0.0,0.0,0.0,0.0,0.0,0.0,0.0,0.0,0.0,0.0,0.0,0.0,0.0,0.0,0.0,0.0,0.0,0.0,0.0,0.0,0.0,0.0,0.0,0.0,0.0,0.0,0.0,0.0,0.0,0.0,0.0,0.0,0.0,0.0,0.0,0.0,0.0,0.0,0.0,0.0,0.0,0.0,0.0,0.0,0.0,0.0,0.0,0.0,0.0,0.0,0.0,0.0,0.0,0.0,0.0,0.0,0.0,0.0,0.0,0.0,0.0,0.0,0.0,0.0,0.0,0.0,0.0,0.0,0.0,0.0,0.0,0.0,0.0,0.0,0.0,0.0,0.0,0.0,0.0,0.0,0.0,0.0,0.0,0.0,0.0,0.0,0.0,0.0,0.0,0.0,0.0,0.0,0.0,0.0,0.0,0.0,0.0,0.0,0.0,0.0,0.0,0.0,0.0,0.0,0.0,0.0,0.0,0.0,0.0,0.0,0.0,0.0,0.0,0.0,0.0,0.0,0.0,0.0,0.0,0.0,0.0,0.0,0.0,0.0,0.0,0.0,0.0,0.0,0.0,0.0,0.0,0.0,0.0,0.0,0.0,0.0,0.0,0.0,0.0,0.0,0.0,0.0,0.0,0.0,0.0,0.0,0.0,0.0,0.0,0.0,0.0,0.0,0.0,0.0,0.0,0.0,0.0,0.0,0.0,0.0,0.0,0.0,0.0,0.0,0.0,0.0,0.0,0.0,0.0,0.0,0.0,0.0,0.0,0.0,0.0,0.0,0.0,0.0,0.0,0.0,0.0,0.0,0.0,0.0,0.0,0.0,0.0,0.0,0.0,0.0,0.0,0.0,0.0,0.0,0.0,0.0,0.0,0.0,0.0,0.0,0.0,0.0,0.0,0.0,0.0,0.0,0.0,0.0,0.0,0.0,0.0,0.0,0.0,0.0,0.0,0.0,0.0,0.0,0.0,0.0,0.0,0.0,0.0,0.0,0.0,0.0,0.0,0.0,0.0,0.0,0.0,0.0,0.0,0.0,0.0,0.0,0.0,0.0,0.0,0.0,0.0,0.0,0.0,0.0,0.0,0.0,0.0,0.0,0.0,0.0,0.0,0.0,0.0,0.0,0.0,0.0,0.0,0.0,0.0,0.0,0.0,0.0,0.0,0.0,0.0,0.0,0.0,0.0,0.0,0.0,0.0,0.0,0.0,0.0,0.0,0.0,0.0,0.0,0.0,0.0,0.0,0.0,0.0,0.0,0.0,0.0,0.0,0.0,0.0,0.0,0.0,0.0,0.0,0.0,0.0,0.0,0.0,0.0,0.0,0.0,0.0,0.0,0.0,0.0,0.0,0.0,0.0,0.0,0.0,0.0,0.0,0.0,0.0,0.0,0.0,0.0,0.0,0.0,0.0,0.0,0.0,0.0,0.0,0.0,0.0,0.0,0.0,0.0,0.0,0.0,0.0,0.0,0.0,0.0,0.0,0.0,0.0,0.0,0.0,0.0,0.0,0.0,0.0,0.0,0.0,0.0,0.0,0.0,0.0,0.0,0.0,0.0,0.0,0.0,0.0,0.0,0.0,0.0,0.0,0.0,0.0,0.0,0.0,0.0,0.0,0.0,0.0,0.0,0.0,0.0,0.0,0.0,0.0,0.0,0.0,0.0,0.0,0.0,0.0,0.0,0.0,0.0,0.0,0.0,0.0,0.0,0.0,0.0,0.0,0.0,0.0,0.0,0.0,0.0,0.0,0.0,0.0,0.0,0.0,0.0,0.0,0.0,0.0,0.0,0.0,0.0,0.0,0.0,0.0,0.0,0.0,0.0,0.0,0.0,0.0,0.0,0.0,0.0,0.0,0.0,0.0,0.0,0.0,0.0,0.0,0.0,0.0,0.0,0.0,0.0,0.0,0.0,0.0,0.0,0.0,0.0,0.0,0.0,0.0,0.0,0.0,0.0,0.0,0.0,0.0,0.0,0.0,0.0,0.0,0.0,0.0,0.0,0.0,0.0,0.0,0.0,0.0,0.0,0.0,0.0,0.0,0.0,0.0,0.0,0.0,0.0,0.0,0.0,0.0,0.0,0.0,0.0,0.0,0.0,0.0,0.0,0.0,0.0,0.0,0.0,0.0,0.0,0.0,0.0,0.0,0.0,0.0,0.0,0.0,0.0,0.0,0.0,0.0,0.0,0.0,0.0,0.0,0.0,0.0,0.0,0.0,0.0,0.0,0.0,0.0,0.0,0.0,0.0,0.0,0.0,0.0,0.0,0.0,0.0,0.0,0.0,0.0,0.0,0.0,0.0,0.0,0.0,0.0,0.0,0.0,0.0,0.0,0.0,0.0,0.0,0.0,0.0,0.0,0.0,0.0,0.0,0.0,0.0,0.0,0.0,0.0,0.0,0.0,0.0,0.0,0.0,0.0,0.0,0.0,0.0,0.0,0.0,0.0,0.0,0.0,0.0,0.0,0.0,0.0,0.0,0.0,0.0,0.0,0.0,0.0,0.0,0.0,0.0,0.0,0.0,0.0,0.0,0.0,0.0,0.0,0.0,0.0,0.0,0.0,0.0,0.0,0.0,0.0,0.0,0.0,0.0,0.0,0.0,0.0,0.0,0.0,0.0,0.0,0.0,0.0,0.0,0.0,0.0,0.0,0.0,0.0,0.0,0.0,0.0,0.0,0.0,0.0,0.0,0.0,0.0,0.0,0.0,0.0,0.0,0.0,0.0,0.0,0.0,0.0,0.0,0.0,0.0,0.0,0.0,0.0,0.0,0.0,0.0,0.0,0.0,0.0,0.0,0.0,0.0,0.0,0.0,0.0,0.0,0.0,0.0,0.0,0.0,0.0,0.0,0.0,0.0,0.0,0.0,0.0,0.0,0.0,0.0,0.0,0.0,0.0,0.0,0.0,0.0,0.0,0.0,0.0,0.0,0.0,0.0,0.0,0.0,0.0,0.0,0.0,0.0,0.0,0.0,0.0,0.0,0.0,0.0,0.0,0.0,0.0,0.0,0.0,0.0,0.0,0.0,0.0,0.0,0.0,0.0,0.0,0.0,0.0,0.0,0.0,0.0,0.0,0.0,0.0,0.0,0.0,0.0,0.0,0.0,0.0,0.0,0.0,0.0,0.0,0.0,0.0,0.0,0.0,0.0,0.0,0.0,0.0,0.0,0.0,0.0,0.0,0.0,0.0,0.0,0.0,0.0,0.0,0.0,0.0,0.0,0.0,0.0,0.0,0.0,0.0,0.0,0.0,0.0,0.0,0.0,0.0,0.0,0.0,0.0,0.0,0.0,0.0,0.0,0.0,0.0,0.0,0.0,0.0,0.0,0.0,0.0,0.0,0.0,0.0,0.0,0.0,0.0,0.0,0.0,0.0,0.0,0.0,0.0,0.0,0.0,0.0,0.0,0.0,0.0,0.0,0.0,0.0,0.0,0.0,0.0,0.0,0.0,0.0,0.0,0.0,0.0,0.0,0.0,0.0,0.0,0.0,0.0,0.0,0.0,0.0,0.0,0.0,0.0,0.0,0.0,0.0,0.0,0.0,0.0,0.0,0.0,0.0,0.0,0.0,0.0,0.0,0.0,0.0,0.0,0.0,0.0,0.0,0.0,0.0,0.0,0.0,0.0,0.0,0.0,0.0,0.0,0.0,0.0,0.0,0.0,0.0,0.0,0.0,0.0,0.0,0.0,0.0,0.0,0.0,0.0,0.0,0.0,0.0,0.0,0.0,0.0,0.0,0.0,0.0,0.0,0.0,0.0,0.0,0.0,0.0,0.0,0.0,0.0,0.0,0.0,0.0,0.0,0.0,0.0,0.0,0.0,0.0,0.0,0.0,0.0,0.0,0.0,0.0,0.0,0.0,0.0,0.0,0.0,0.0,0.0,0.0,0.0,0.0,0.0,0.0,0.0,0.0,0.0,0.0,0.0,0.0,0.0,0.0,0.0,0.0,0.0,0.0,0.0,0.0,0.0,0.0,0.0,0.0,0.0,0.0,0.0,0.0,0.0,0.0,0.0,0.0,0.0,0.0,0.0,0.0,0.0,0.0,0.0,0.0,0.0,0.0,0.0,0.0,0.0,0.0,0.0,0.0,0.0,0.0,0.0,0.0,0.0,0.0,0.0,0.0,0.0,0.0,0.0,0.0,0.0,0.0,0.0,0.0,0.0,0.0,0.0,0.0,0.0,0.0,0.0,0.0,0.0,0.0,0.0,0.0,0.0,0.0,0.0,0.0,0.0,0.0,0.0,0.0,0.0,0.0,0.0,0.0,0.0,0.0,0.0,0.0,0.0,0.0,0.0,0.0,0.0,0.0,0.0,0.0,0.0,0.0,0.0,0.0,0.0,0.0,0.0,0.0,0.0,0.0,0.0,0.0,0.0,0.0,0.0,0.0,0.0,0.0,0.0,0.0,0.0,0.0,0.0,0.0,0.0,0.0,0.0,0.0,0.0,0.0,0.0,0.0,0.0,0.0,0.0,0.0,0.0,0.0,0.0,0.0,0.0,0.0,0.0,0.0,0.0,0.0,0.0,0.0,0.0,0.0,0.0,0.0,0.0,0.0,0.0,0.0,0.0,0.0,0.0,0.0,0.0,0.0,0.0,0.0,0.0,0.0,0.0,0.0,0.0,0.0,0.0,0.0,0.0,0.0,0.0,0.0,0.0,0.0,0.0,0.0,0.0,0.0,0.0,0.0,0.0,0.0,0.0,0.0,0.0,0.0,0.0,0.0,0.0,0.0,0.0,0.0,0.0,0.0,0.0,0.0,0.0,0.0,0.0,0.0,0.0,0.0,0.0,0.0,0.0,0.0,0.0,0.0,0.0,0.0,0.0,0.0,0.0,0.0,0.0,0.0,0.0,0.0,0.0,0.0,0.0,0.0,0.0,0.0,0.0,0.0,0.0,0.0,0.0,0.0,0.0,0.0,0.0,0.0,0.0,0.0,0.0,0.0,0.0,0.0,0.0,0.0,0.0,0.0,0.0,0.0,0.0,0.0,0.0,0.0,0.0,0.0,0.0,0.0,0.0,0.0,0.0,0.0,0.0,0.0,0.0,0.0,0.0,0.0,0.0,0.0,0.0,0.0,0.0,0.0,0.0,0.0,0.0,0.0,0.0,0.0,0.0,0.0,0.0,0.0,0.0,0.0,0.0,0.0,0.0,0.0,0.0,0.0,0.0,0.0,0.0,0.0,0.0,0.0,0.0,0.0,0.0,0.0,0.0,0.0,0.0,0.0,0.0,0.0,0.0,0.0,0.0,0.0,0.0,0.0,0.0,0.0,0.0,0.0,0.0,0.0,0.0,0.0,0.0,0.0,0.0,0.0,0.0,0.0,0.0,0.0,0.0,0.0,0.0,0.0,0.0,0.0,0.0,0.0,0.0,0.0,0.0,0.0,0.0,0.0,0.0,0.0,0.0,0.0,0.0,0.0,0.0,0.0,0.0,0.0,0.0,0.0,0.0,0.0,0.0,0.0,0.0,0.0,0.0,0.0,0.0,0.0,0.0,0.0,0.0,0.0,0.0,0.0,0.0,0.0,0.0,0.0,0.0,0.0,0.0,0.0,0.0,0.0,0.0,0.0,0.0,0.0,0.0,0.0,0.0,0.0,0.0,0.0,0.0,0.0,0.0,0.0,0.0,0.0,0.0,0.0,0.0,0.0,0.0,0.0,0.0,0.0,0.0,1.6827,0.0,0.0,0.0,0.0,0.0,0.0,0.0,0.0,0.0,0.0,0.0,0.0,0.0,0.0,0.0,0.0,0.0,0.0,0.0,0.0,0.0,0.0,0.0,0.0,1.9811,1.9911,2.0214,2.0239,2.0439,2.0966,0.0,0.0,0.0,0.0,0.0,2.0614,2.1192,2.1343,2.1094,2.1343,2.1895,2.2698,2.3231,2.2778,2.1493,0.0,0.0,0.0,0.0,0.0,0.0,0.0,0.0,0.0,0.0,0.0,0.0,0.0,0.0,0.0,0.0,0.0,0.0,0.0,0.0,0.0,0.0,0.0,0.0,0.0,0.0,0.0,0.0,0.0,0.0,0.0,0.0,0.0,0.0,0.0,0.0,0.0,0.0,0.0,0.0,0.0,0.0,0.0,0.0,0.0,0.0,0.0,0.0,0.0,0.0,0.0,0.0,0.0,0.0,0.0,0.0,0.0,0.0,0.0,0.0,0.0,0.0,0.0,0.0,0.0,0.0,0.0,0.0,0.0,0.0,0.0,1.6923,0.0,0.0,0.0,0.0,0.0,0.0,0.0,0.0,0.0,0.0,0.0,0.0,0.0,0.0,0.0,0.0,0.0,0.0,0.0,0.0,0.0,1.9836,1.9936,1.9962,2.0214,2.0792,2.0842,2.1219,2.2096,2.1744,0.0,0.0,0.0,2.1594,2.1493,2.1669,2.1769,2.1769,2.2272,2.3251,2.4757,2.6348,2.5594,2.2924,2.2899,0.0,0.0,0.0,0.0,0.0,0.0,0.0,0.0,0.0,0.0,0.0,0.0,0.0,0.0,0.0,0.0,0.0,0.0,0.0,0.0,0.0,0.0,0.0,0.0,0.0,0.0,0.0,0.0,0.0,0.0,0.0,0.0,0.0,0.0,0.0,0.0,0.0,0.0,0.0,0.0,0.0,0.0,0.0,0.0,0.0,0.0,0.0,0.0,0.0,0.0,0.0,0.0,0.0,0.0,0.0,0.0,0.0,0.0,0.0,0.0,0.0,0.0,0.0,2.1194,2.1597,2.192,2.192,2.192,2.1794,1.9535,1.8254,1.7825,1.7825,0.0,0.0,0.0,0.0,0.0,0.0,0.0,0.0,0.0,0.0,0.0,0.0,0.0,0.0,0.0,0.0,0.0,0.0,0.0,1.9987,2.0515,2.0591,2.0792,2.137,2.1368,2.1443,2.1594,2.1518,2.1518,2.1594,2.197,2.197,2.1493,2.2393,2.2895,2.2895,2.5335,2.6866,2.7595,2.88,2.9126,2.8599,2.6214,2.5661,2.6389,0.0,0.0,0.0,0.0,0.0,0.0,0.0,0.0,0.0,0.0,0.0,0.0,0.0,0.0,0.0,0.0,0.0,0.0,0.0,0.0,0.0,0.0,0.0,0.0,0.0,0.0,0.0,0.0,0.0,0.0,0.0,0.0,0.0,0.0,0.0,0.0,0.0,0.0,0.0,0.0,0.0,1.961,1.9685,0.0,0.0,0.0,0.0,0.0,0.0,0.0,0.0,0.0,0.0,0.0,0.0,0.0,2.2694,2.3226,2.3747,2.4048,2.4123,2.4199,2.4054,2.3678,2.3678,2.3678,2.3653,2.3276,0.0,1.9484,1.9484,0.0,0.0,0.0,0.0,0.0,0.0,0.0,0.0,0.0,0.0,0.0,0.0,0.0,0.0,0.0,0.0,0.0,0.0,0.0,0.0,0.0,2.1493,2.2272,2.2849,2.4029,2.4356,2.3427,2.3929,2.3759,2.2472,2.2619,2.2619,2.2393,2.317,2.4349,2.5904,2.8398,3.003,3.0934,3.2039,3.2566,3.2491,3.0959,2.9151,2.7253,2.6264,0.0,0.0,0.0,0.0,0.0,0.0,0.0,0.0,0.0,0.0,0.0,0.0,0.0,0.0,0.0,0.0,0.0,0.0,0.0,0.0,0.0,0.0,0.0,0.0,0.0,0.0,0.0,0.0,0.0,0.0,0.0,0.0,0.0,0.0,0.0,0.0,0.0,0.0,0.0,2.0213,2.038,1.9314,2.0099,2.0194,0.0,0.0,0.0,0.0,0.0,0.0,0.0,0.0,0.0,2.1005,2.1786,2.2329,2.2595,2.3141,2.3548,2.3863,2.4202,2.4708,2.5425,2.5425,2.5738,2.6314,2.6314,2.5259,2.3457,2.187,2.0388,1.9083,0.0,0.0,0.0,0.0,1.9058,1.9661,0.0,0.0,0.0,0.0,0.0,0.0,0.0,0.0,0.0,0.0,0.0,0.0,2.127,2.2774,2.4073,2.4983,2.6414,2.6766,2.5536,2.5686,2.4986,2.3065,2.2867,2.2867,2.2991,2.4478,2.6414,2.875,3.1235,3.3018,3.4148,3.5102,3.5705,3.5956,3.5102,3.2667,2.9126,2.8298,2.6967,0.0,0.0,0.0,0.0,0.0,0.0,0.0,0.0,0.0,0.0,0.0,0.0,0.0,0.0,0.0,0.0,0.0,0.0,0.0,0.0,0.0,0.0,0.0,0.0,0.0,0.0,0.0,0.0,0.0,0.0,0.0,0.0,0.0,0.0,0.0,0.0,0.0,0.0,2.0428,2.058,1.8642,2.0049,2.027,0.0,0.0,0.0,0.0,0.0,0.0,1.9759,2.0204,2.0821,2.1596,2.207,2.241,2.2556,2.3209,2.3709,2.4139,2.4664,2.5711,2.7103,2.7103,2.7607,2.8524,2.8524,2.7996,2.6927,2.4406,2.2472,2.1041,2.0638,2.0487,2.0487,2.0487,2.1041,2.1823,0.0,0.0,0.0,0.0,0.0,0.0,0.0,0.0,0.0,0.0,0.0,2.1295,2.2819,2.4481,2.6138,2.7745,2.7519,2.7243,2.7168,2.5259,2.3709,2.2767,2.2233,2.2209,2.2711,2.6618,2.9239,3.0482,3.3702,3.5906,3.6985,3.7563,3.8417,3.9371,3.7739,3.6031,3.4104,3.1009,2.9603,2.9227,0.0,0.0,0.0,0.0,0.0,0.0,0.0,0.0,0.0,0.0,0.0,0.0,0.0,0.0,0.0,0.0,0.0,0.0,0.0,0.0,0.0,0.0,0.0,0.0,0.0,0.0,0.0,0.0,0.0,0.0,0.0,0.0,0.0,0.0,0.0,0.0,0.0,0.0,0.0,1.7895,1.9193,0.0,0.0,0.0,0.0,2.0048,1.9862,1.9927,2.035,2.0844,2.1397,2.1954,2.3705,2.4854,2.54,2.6359,2.685,2.6872,2.732,2.7918,2.8692,2.8692,2.906,2.9704,2.9704,2.9377,2.8637,2.7002,2.5586,2.455,2.4499,2.4499,2.4499,2.4499,2.4525,2.4575,0.0,0.0,0.0,0.0,0.0,1.9811,1.9811,1.9811,1.9936,2.0339,2.1468,2.3025,2.5059,2.7394,2.9352,3.0633,3.1235,3.0783,2.9001,2.7469,2.6002,2.4608,2.3712,2.4188,2.6114,2.87,3.122,3.3753,3.6408,3.8241,3.9346,3.9898,4.0322,4.0701,3.9747,3.8793,3.7688,3.3997,3.1411,2.9628,2.7695,2.6163,0.0,0.0,0.0,0.0,0.0,0.0,0.0,0.0,0.0,0.0,0.0,0.0,0.0,0.0,0.0,0.0,0.0,0.0,0.0,0.0,0.0,0.0,0.0,0.0,0.0,0.0,0.0,0.0,0.0,0.0,0.0,0.0,0.0,0.0,0.0,0.0,0.0,1.919,2.0803,0.0,1.9157,1.9661,2.0072,2.0022,2.0199,2.0751,2.169,2.2188,2.2747,2.3507,2.4176,2.4638,2.4845,2.5153,2.5361,2.5361,2.5526,2.6088,2.7064,2.7064,2.7444,2.8117,2.8834,2.8842,2.8387,2.8562,2.7555,2.5871,2.546,2.531,2.531,2.531,2.5787,2.6414,0.0,0.0,0.0,0.0,1.9811,1.9811,1.9811,1.9811,2.0012,2.0616,2.2272,2.433,2.6776,2.9654,3.1964,3.3176,3.352,3.2616,3.0231,2.8039,2.6148,2.469,2.4666,2.5877,2.846,3.1188,3.3822,3.6335,3.8617,4.0174,4.1078,4.1254,4.1476,4.1856,4.1128,4.0701,4.0325,3.7387,3.4324,3.1311,2.9628,2.8273,2.7042,0.0,0.0,0.0,0.0,0.0,0.0,0.0,0.0,0.0,0.0,0.0,0.0,0.0,0.0,0.0,0.0,0.0,0.0,0.0,0.0,0.0,0.0,0.0,0.0,0.0,0.0,0.0,0.0,0.0,0.0,0.0,0.0,0.0,0.0,0.0,2.152,1.9991,2.1928,2.2499,2.0369,2.1029,2.1489,2.1447,2.1699,2.2305,2.332,2.3633,2.4043,2.4609,2.4629,2.4707,2.4863,2.4816,2.4816,2.4816,2.5019,2.5511,2.6334,2.674,2.7305,2.8,2.8714,2.9104,2.9237,2.9371,2.8834,2.7832,2.7243,2.7017,2.7017,2.7017,2.7494,2.8097,0.0,0.0,0.0,1.9811,1.9811,1.9811,1.9811,1.9811,2.0012,2.0641,2.2678,2.5109,2.7896,3.116,3.3822,3.5408,3.4073,3.2416,3.0733,2.6688,2.3891,2.2902,2.4965,2.7176,2.9422,3.4065,3.6983,3.809,4.0247,4.163,4.2213,4.1656,4.1982,4.2961,4.1882,4.1681,4.2162,4.1003,3.8366,3.463,3.1888,3.0708,3.0281,0.0,0.0,0.0,0.0,0.0,0.0,0.0,0.0,0.0,0.0,0.0,0.0,0.0,0.0,0.0,0.0,0.0,0.0,0.0,0.0,0.0,0.0,0.0,0.0,0.0,0.0,0.0,0.0,0.0,0.0,0.0,0.0,0.0,1.831,2.1366,2.2802,2.0327,2.2305,2.3359,2.2129,2.3125,2.4023,2.4453,2.4473,2.4668,2.5145,2.5184,2.5184,2.5184,2.5184,2.5332,2.5732,2.5732,2.5732,2.5732,2.6211,2.6523,2.6743,2.7958,2.8874,2.9466,2.9508,3.0163,3.1132,2.946,2.9472,3.0463,2.9966,2.9804,2.9804,2.9804,2.9804,2.9704,0.0,0.0,1.9811,1.9811,1.9811,1.9811,1.9811,1.9811,2.0162,2.1169,2.3527,2.6515,3.0105,3.3119,3.5378,3.6634,3.5228,3.3219,3.0783,2.7664,2.593,2.603,2.8164,3.072,3.3742,3.5912,3.7889,3.9823,4.1229,4.2062,4.2213,4.2836,4.3288,4.3539,4.2836,4.261,4.274,4.158,4.0222,3.8642,3.5433,3.2968,3.0959,0.0,0.0,0.0,0.0,0.0,0.0,0.0,0.0,0.0,0.0,0.0,0.0,0.0,0.0,0.0,0.0,0.0,0.0,0.0,0.0,0.0,0.0,0.0,0.0,0.0,0.0,0.0,0.0,0.0,0.0,0.0,2.1455,2.1636,2.0485,2.177,2.293,2.3149,2.4375,2.5011,2.466,2.4953,2.5371,2.582,2.584,2.6035,2.6465,2.6484,2.6484,2.6484,2.6484,2.6543,2.666,2.661,2.661,2.661,2.6777,2.6693,2.6486,2.6875,2.6764,2.6356,2.7177,2.75,2.7568,2.7869,2.8188,2.8588,2.9435,2.9804,2.9804,2.9804,2.9804,2.9779,0.0,1.9811,1.9811,1.9811,1.9811,1.9811,1.9811,1.9811,2.0213,2.1343,2.4136,2.7268,3.0683,3.3345,3.5303,3.6408,3.455,3.2265,2.9729,2.7656,2.7012,2.8088,0.0,3.3671,3.6461,3.8115,3.9672,4.1204,4.2082,4.2564,4.2564,4.3162,4.3589,4.379,4.3463,4.3313,4.3288,4.2635,4.1932,4.1003,3.8793,3.6584,3.4248,3.1662,3.0407,2.9829,2.7996,2.7469,2.7318,2.5234,0.0,0.0,0.0,0.0,0.0,0.0,0.0,0.0,0.0,0.0,0.0,0.0,0.0,0.0,0.0,0.0,0.0,0.0,0.0,0.0,0.0,0.0,0.0,0.0,2.2775,2.3412,2.3393,2.383,2.4416,2.5145,2.6016,2.6543,2.6543,2.6699,2.6914,2.7168,2.7031,2.7031,2.7285,2.7285,2.7285,2.7285,2.7285,2.7363,2.7539,2.7383,2.7285,2.7285,2.7285,2.707,2.666,2.7172,2.7019,2.6451,2.7049,2.7366,2.7467,2.7342,2.7612,0.0,0.0,0.0,0.0,0.0,2.9804,2.9804,0.0,1.9811,1.9811,1.9811,1.9811,1.9811,1.9811,1.9811,2.0213,2.1343,2.4362,2.7404,3.003,3.229,3.4048,3.5031,3.2742,3.0357,2.8323,2.7379,2.7754,2.9731,3.3201,3.6107,3.8241,4.035,4.1731,4.2389,4.2891,4.3062,4.3062,4.3137,4.3388,4.379,4.3865,4.389,4.389,4.389,4.3338,4.2439,4.1781,4.045,3.8542,3.4901,3.3771,3.3746,3.1185,2.9654,2.8649,2.7404,0.0,0.0,0.0,0.0,0.0,0.0,0.0,0.0,0.0,0.0,0.0,0.0,0.0,0.0,0.0,0.0,0.0,0.0,0.0,0.0,0.0,0.0,0.0,0.0,2.3998,2.5108,2.6458,2.6697,2.6716,2.6545,2.7246,2.7787,2.7787,2.8066,2.832,2.8359,2.7969,2.7806,2.7865,0.0,0.0,0.0,0.0,2.791,2.8281,2.793,2.7787,2.7787,2.7787,2.7519,2.7141,2.8197,2.8458,2.798,2.798,2.8381,2.8868,2.7256,2.7317,2.8567,2.9266,2.9297,2.909,2.9603,2.9804,2.9804,0.0,1.9811,1.9811,1.9811,1.9811,1.9811,1.9811,1.9811,2.0213,2.1343,2.401,2.649,2.8373,3.0557,3.2139,3.2792,3.116,2.9729,2.8787,2.9001,3.0303,3.2903,3.5812,3.8216,3.9998,4.1329,4.2484,4.3489,4.3589,4.3639,4.3639,4.4091,4.4116,4.3815,4.4267,4.4468,4.4468,4.4468,4.4342,4.4066,4.3062,4.1128,3.8743,3.701,3.5906,3.5006,3.3621,3.3244,3.3068,3.0633,2.9955,2.9704,2.7369,0.0,0.0,0.0,0.0,0.0,0.0,0.0,0.0,0.0,0.0,0.0,0.0,0.0,0.0,0.0,0.0,0.0,0.0,0.0,0.0,2.3565,2.4984,2.6448,2.7767,2.8225,2.818,2.7532,2.7871,2.8164,2.8164,2.8242,2.8437,2.8769,2.8398,2.832,2.8652,2.8359,2.8164,2.8164,2.8164,2.8203,2.8301,2.8203,2.8164,2.8164,0.0,0.0,2.7591,2.7779,2.7498,2.6765,2.6765,2.6605,2.638,2.6059,2.6622,2.7864,2.8668,2.9504,3.0214,2.9902,2.9804,2.9804,0.0,1.9811,1.9811,1.9811,1.9811,1.9811,1.9811,1.9811,2.0112,2.0993,2.3,2.4876,2.628,2.767,2.8825,2.9679,2.875,2.8348,2.8863,3.0231,3.224,3.5002,3.7789,3.9798,4.0902,4.2007,4.2836,4.3388,4.3388,4.3388,4.3388,4.3966,4.4367,4.4669,4.492,4.5221,4.5447,4.5171,4.4895,4.4543,4.3714,4.2559,4.1153,3.9496,3.8341,3.7487,3.6358,3.5604,3.4806,3.2918,3.1863,3.106,2.9151,2.777,2.664,0.0,0.0,0.0,0.0,0.0,0.0,0.0,0.0,0.0,0.0,0.0,0.0,0.0,0.0,2.2102,2.2976,0.0,2.4226,2.5545,2.6465,2.7532,2.875,2.9121,2.9082,2.8726,2.8809,2.8926,2.8926,2.8926,2.8926,2.8926,2.873,2.8691,2.8906,2.8516,2.8496,2.8926,2.8516,2.8398,2.8613,2.8398,2.8301,2.8301,2.8301,2.8184,2.7988,2.7988,2.7637,2.7012,2.6797,2.6465,2.6055,2.5771,2.6428,2.7589,2.7699,2.8342,2.9207,2.8864,2.9011,2.934,0.0,1.9811,1.9811,1.9811,1.9811,1.9811,1.9811,1.9811,2.0012,2.0616,2.202,2.3296,2.4199,2.4808,2.5435,2.6239,2.6424,2.7253,2.8976,3.126,3.3822,3.6757,3.9295,4.0927,4.148,4.2585,4.3187,4.3288,4.3413,4.3463,4.3463,4.3915,4.4568,4.5321,4.5447,4.5723,4.6125,4.5799,4.5372,4.4895,4.4242,4.3966,4.374,4.163,4.0501,3.9848,3.8492,3.6887,3.5357,3.4399,3.3018,3.1562,3.0708,2.9654,2.8386,2.6507,2.6024,0.0,0.0,0.0,0.0,0.0,0.0,0.0,0.0,0.0,2.1209,2.2076,2.2653,2.3453,2.4842,2.537,2.6047,2.7479,2.8002,2.8516,2.9551,2.9822,2.9824,2.9824,2.9668,2.9626,2.9626,2.9626,2.9453,2.918,2.9082,2.9082,2.916,2.8769,2.8848,2.9607,2.8828,2.8574,2.8906,2.8496,2.8301,2.8301,2.8301,2.8301,2.8301,2.8301,2.8066,2.7689,2.7109,2.666,2.623,2.583,2.6284,2.7179,2.6713,2.6855,2.7392,2.759,2.8271,2.9035,0.0,1.9811,1.9811,1.9811,1.9811,1.9811,1.9811,1.9811,2.0012,2.0616,2.1669,2.2447,2.2573,2.3045,2.3246,2.2899,2.5091,2.7429,2.9553,3.2215,3.5177,3.8492,4.03,4.1505,4.2112,4.3137,4.394,4.4443,4.4945,4.5196,4.5221,4.5271,4.5095,4.4744,4.5246,4.5522,4.5623,4.6024,4.6175,4.6024,4.497,4.4543,4.4342,4.2635,4.163,4.0824,3.8768,3.6887,3.5408,3.4781,3.3847,3.291,3.2784,3.1938,3.0523,2.8048,2.5997,2.4086,2.1976,2.0874,2.0246,2.0025,2.0024,2.0422,0.0,0.0,2.251,2.3418,2.4244,2.4874,2.5071,2.6389,2.7479,2.7669,2.8926,2.9961,3.0098,3.0488,3.0742,3.0742,3.0039,2.9626,2.9626,2.9626,2.9707,3.0019,2.9707,2.9668,3.0039,2.9648,2.9528,2.9626,2.9101,2.8867,2.8926,2.8496,2.8301,2.8301,2.8301,2.8301,2.8301,2.8301,2.8066,2.7669,2.6816,2.6211,2.5752,2.5713,2.5771,2.5917,2.5809,2.5658,2.5625,2.7148,2.8477,2.954,0.0,0.0,1.9811,1.9811,1.9811,1.9811,1.9811,1.9811,1.9886,2.0137,2.0564,2.084,2.084,2.1368,2.1594,2.1395,2.3904,2.659,2.9126,3.219,3.5403,3.8718,4.045,4.1756,4.2665,4.3087,4.3589,4.4141,4.4066,4.4016,4.4041,4.4342,4.4543,4.4644,4.5221,4.5673,4.5974,4.62,4.6301,4.62,4.507,4.4443,4.389,4.1605,4.0174,3.9195,3.7613,3.5981,0.0,0.0,3.2742,3.2139,3.2466,3.1257,2.934,2.7498,2.5755,2.4039,2.2251,2.1218,2.0648,2.0642,2.1055,2.1738,2.2969,2.3437,2.3867,2.4746,2.5605,2.6348,2.6855,2.7734,2.8555,0.0,2.9726,3.0293,3.0566,3.0527,3.0391,3.0156,2.9785,2.9822,3.0293,3.0098,3.0,3.0176,3.0039,3.0,3.0176,2.9551,2.9414,2.9922,2.9043,2.8672,2.8926,2.8496,2.8301,2.8301,2.8301,2.8301,2.8301,2.8301,2.793,2.7285,2.7168,2.6602,2.5713,2.6016,2.5977,2.5693,2.5693,2.5625,2.5526,2.6256,2.7405,2.8654,0.0,0.0,0.0,1.9811,1.9811,1.9811,1.9811,1.9811,1.9811,1.9811,1.9811,1.9811,1.9811,2.0189,2.044,2.044,2.2824,2.5427,2.8072,3.1512,3.4926,3.8266,4.0149,4.163,4.2735,4.3187,4.3564,4.379,4.3865,4.3815,4.3689,4.4242,4.4719,4.5095,4.5522,4.5949,4.6301,4.615,4.6075,4.5974,4.4694,4.374,4.2811,4.0049,3.8115,3.6734,3.5604,3.4173,0.0,0.0,3.0548,3.004,3.0735,2.9577,2.7648,2.6263,2.4612,2.3004,2.1858,2.1477,2.1478,2.1843,2.2578,2.3437,2.4316,2.4824,2.5352,2.6113,2.6855,2.7559,2.8184,2.873,2.9297,2.9922,3.0234,3.0469,3.0664,3.0312,2.9863,2.9434,2.918,2.9394,3.0254,3.0156,3.0078,3.0176,3.0098,3.0078,3.0195,2.9492,2.9375,3.0,2.9004,2.8613,2.8906,2.8496,2.8301,2.8301,2.8301,2.8301,2.8301,2.8301,2.7891,2.7207,2.7519,2.6992,2.5937,2.625,2.6133,2.5693,2.5693,2.5693,2.5693,2.5693,2.6598,2.7899,0.0,0.0,0.0,0.0,1.9811,1.9811,1.9811,1.9811,1.9811,1.9811,1.9811,1.9811,1.9811,1.9811,1.9836,1.9836,2.1866,2.413,2.6424,3.0131,3.3746,3.7086,3.9346,4.1053,4.2213,4.374,4.4317,4.379,4.5422,4.5924,4.5422,4.5974,4.625,4.625,4.6276,4.6301,4.6276,4.5748,4.5522,4.5372,4.3689,4.2384,4.105,3.8316,3.5906,3.3872,3.2742,0.0,0.0,2.8624,2.7311,2.6358,2.7392,2.7136,0.0,2.4451,2.2092,2.0017,1.9979,2.0899,2.2171,2.3398,2.4355,2.5262,2.6113,2.6641,2.707,2.7571,2.7949,2.8262,2.8281,2.8984,2.9607,2.959,3.0312,3.0723,3.0273,2.9863,2.9434,2.8984,2.8223,2.8047,0.0,2.9355,2.9766,3.0176,2.9824,2.9766,3.0176,2.9785,2.957,2.9646,2.9141,2.8906,2.8926,2.8496,2.8301,2.8301,2.8301,2.8301,2.8301,2.8301,2.8066,2.7708,2.7708,2.7219,2.6367,2.6387,2.6133,2.5693,2.5693,2.5693,2.5693,2.5693,2.6504,2.7772,0.0,0.0,0.0,0.0,0.0,1.9811,1.9811,1.9811,1.9811,1.9811,1.9811,0.0,0.0,0.0,0.0,0.0,2.1167,2.3,2.5234,2.8298,3.1361,3.4324,3.6935,3.8994,4.0501,4.143,4.2158,4.2766,4.2911,4.2911,4.2735,4.2936,4.3212,4.362,4.394,4.4292,4.4618,4.4443,4.4166,4.3639,4.1605,4.0124,3.8743,3.5228,3.2993,3.1386,0.0,0.0,0.0,2.6118,2.4822,2.3781,2.548,2.4517,2.249,2.1213,2.0615,2.0527,2.1406,2.2578,2.3887,2.5195,2.6152,2.6984,2.7519,2.7754,2.7832,2.7748,2.7559,2.7441,2.7441,2.791,2.8496,2.9043,2.9863,3.0371,3.0215,2.9844,2.9254,2.8203,2.7832,0.0,0.0,0.0,0.0,2.9726,2.9902,3.0059,3.0195,2.9805,2.9626,2.9626,2.8887,2.8496,2.8496,2.8359,2.8301,2.8301,2.8301,2.8301,2.8301,2.8301,2.8066,2.7728,2.7969,2.7441,2.6406,2.6699,2.6387,2.5693,2.5693,2.5693,2.5654,2.541,2.5757,2.6524,0.0,0.0,0.0,0.0,0.0,0.0,0.0,0.0,0.0,0.0,0.0,0.0,0.0,0.0,0.0,0.0,0.0,2.197,2.3803,2.628,2.88,3.121,3.3746,3.5705,3.6985,3.7764,3.8391,3.8969,3.9346,3.9471,3.9219,3.9821,4.045,4.1056,4.1408,4.1806,4.2308,4.1907,4.1404,4.0727,3.8517,3.6835,3.5278,3.1989,2.9955,0.0,0.0,0.0,2.3982,2.3822,2.2811,2.1812,2.2788,2.1818,2.0257,1.9871,2.0605,2.1818,2.3066,2.4473,2.5859,2.7012,2.7832,2.8379,2.8496,2.8398,2.8125,2.7559,2.6973,2.6562,2.6562,2.6777,2.7207,2.791,2.8594,2.916,2.9473,2.9023,2.8476,2.7949,2.7617,2.7285,0.0,0.0,0.0,2.9062,2.9512,2.9805,2.9961,2.9726,2.9626,2.9626,2.9043,2.8672,2.8516,2.8516,2.8437,2.8301,2.8301,2.8301,2.8301,2.8301,2.8144,2.791,2.8184,2.7656,2.6641,2.6894,2.6504,2.5693,2.5693,2.5693,2.5635,2.5234,2.5619,2.6456,0.0,0.0,0.0,0.0,0.0,0.0,0.0,0.0,0.0,0.0,0.0,0.0,0.0,0.0,0.0,0.0,0.0,0.0,2.2146,0.0,0.0,2.7821,3.0005,3.1461,3.2039,3.3144,3.3495,3.2993,3.5123,3.583,3.5307,3.6935,3.7965,3.8592,3.8592,3.8843,3.9295,3.8191,3.7387,3.6684,3.4525,3.2667,3.0984,2.8775,0.0,0.0,0.0,0.0,2.1908,2.1908,2.1336,2.0432,1.9571,1.9353,1.9551,2.0449,2.1936,2.358,2.4871,2.6495,2.8002,2.875,2.9258,2.9453,2.8984,2.8535,2.7988,2.709,2.623,2.5577,0.0,0.0,2.5771,2.6289,2.6777,2.7402,2.8242,2.7676,2.7461,0.0,0.0,0.0,0.0,0.0,0.0,2.8301,0.0,2.9141,2.9646,2.9609,2.9609,2.9609,2.9607,2.9336,2.8926,2.8906,2.8691,2.8301,2.8301,2.8301,2.8301,2.8262,2.8262,2.8262,2.8242,2.7754,2.6973,2.6973,2.6484,2.5693,2.5693,2.5742,2.5732,2.533,2.6243,2.7589,0.0,0.0,0.0,0.0,0.0,0.0,0.0,0.0,0.0,0.0,0.0,0.0,0.0,0.0,0.0,0.0,0.0,0.0,2.1069,0.0,0.0,0.0,0.0,0.0,0.0,0.0,0.0,0.0,3.239,3.2591,3.2466,3.2867,3.337,3.3897,3.3897,3.4223,3.4726,3.3997,3.337,3.2717,0.0,2.9704,2.8699,0.0,0.0,0.0,0.0,0.0,2.1908,2.1908,2.1313,2.0456,1.9566,1.9952,2.0898,2.1758,2.3242,2.491,2.6172,2.7773,2.9141,2.9355,2.9492,2.9375,2.8613,2.7871,2.7012,2.5801,2.4883,2.4102,0.0,0.0,0.0,2.5732,2.7324,0.0,2.916,2.9336,0.0,2.8809,0.0,2.8359,2.8144,2.8418,0.0,0.0,2.916,2.959,3.0019,3.0039,3.0039,3.0039,2.9414,2.9023,2.8926,2.8613,2.8398,2.8301,2.8301,2.8301,2.8281,2.7969,2.7832,2.7812,2.748,2.7051,2.6543,2.6543,2.623,2.5693,2.5693,2.6284,2.7063,2.661,2.7225,2.8361,0.0,0.0,0.0,0.0,0.0,0.0,0.0,0.0,0.0,0.0,0.0,0.0,0.0,0.0,0.0,0.0,0.0,0.0,0.0,0.0,0.0,0.0,0.0,0.0,0.0,0.0,0.0,0.0,0.0,0.0,2.8524,2.9001,2.9528,3.0055,3.0055,3.0357,3.0859,3.0281,0.0,0.0,0.0,0.0,0.0,0.0,0.0,0.0,0.0,0.0,0.0,2.1531,2.1167,2.0595,2.0663,2.1465,2.2598,2.3848,2.5156,2.6534,2.7793,2.9121,3.0098,2.9902,2.9707,2.9238,2.8008,2.707,2.6035,2.4597,2.3555,2.2812,2.2324,2.2969,0.0,0.0,0.0,0.0,2.8867,2.9219,2.9394,0.0,2.9316,0.0,2.8887,2.9062,2.9277,0.0,2.9707,2.9941,3.0176,3.0391,3.0508,3.0508,2.9844,2.9297,2.8926,2.8496,2.8301,2.8301,2.8301,2.8301,2.8281,2.8047,2.7904,2.7708,0.0,2.6953,2.6387,2.6387,2.6133,2.5693,2.5693,2.6159,2.6778,2.6614,2.7424,2.8634,0.0,0.0,0.0,0.0,0.0,0.0,0.0,0.0,0.0,0.0,1.9811,0.0,0.0,0.0,0.0,0.0,0.0,0.0,0.0,0.0,0.0,0.0,0.0,0.0,0.0,0.0,0.0,0.0,0.0,0.0,0.0,0.0,0.0,0.0,0.0,0.0,0.0,0.0,0.0,0.0,0.0,0.0,0.0,0.0,0.0,0.0,0.0,0.0,0.0,0.0,2.1136,2.1173,2.2363,2.3437,2.4531,2.6172,2.7246,2.8217,2.9391,3.0254,3.0781,3.0312,2.9805,2.8965,2.7305,2.6172,2.5,2.334,2.2445,2.1875,2.1816,2.2246,2.2891,2.3809,0.0,2.6504,2.8223,2.8516,2.8984,3.0156,2.9961,2.9746,2.9746,2.9746,2.9902,3.0254,3.0293,3.0293,3.0293,3.0664,3.0859,3.0801,3.041,2.9785,2.8926,2.8555,2.834,2.8301,2.8301,2.8301,2.8301,2.8242,2.7988,2.7578,2.7571,2.707,2.6387,2.6328,2.6113,2.5771,2.5713,2.5771,2.6011,2.6376,2.7519,2.8967,0.0,0.0,0.0,0.0,0.0,0.0,0.0,0.0,0.0,0.0,1.9811,1.9811,0.0,0.0,0.0,0.0,0.0,0.0,0.0,0.0,0.0,0.0,0.0,0.0,0.0,0.0,0.0,0.0,0.0,0.0,0.0,0.0,0.0,0.0,0.0,0.0,0.0,0.0,0.0,0.0,0.0,0.0,0.0,0.0,0.0,0.0,0.0,0.0,0.0,0.0,2.219,2.2914,2.3789,2.5176,2.666,2.7676,2.8574,2.9411,2.9941,3.0488,3.0781,3.0312,2.9355,2.8164,2.6797,2.5273,0.0,2.2383,2.1992,2.1777,2.1366,2.2285,2.3482,2.4695,2.5937,2.7383,2.9101,2.9648,3.0098,0.0,3.0703,3.0664,3.0664,3.0664,0.0,0.0,0.0,3.0762,3.0762,3.084,3.0723,3.0332,3.0234,2.9785,2.8926,2.8848,2.8633,2.8301,2.8301,2.8301,2.8281,2.793,2.7539,2.7109,2.6758,0.0,2.6367,2.5996,2.6016,2.625,2.583,2.6332,2.7389,2.8438,2.9352,3.0312,0.0,0.0,0.0,0.0,0.0,0.0,0.0,1.9811,1.9811,1.9811,1.9811,1.9811,1.9811,1.9811,1.9811,0.0,0.0,0.0,0.0,0.0,0.0,0.0,0.0,0.0,0.0,0.0,2.2819,2.3095,0.0,0.0,0.0,0.0,0.0,0.0,0.0,0.0,0.0,0.0,0.0,0.0,0.0,0.0,0.0,0.0,0.0,0.0,0.0,0.0,0.0,0.0,2.2271,2.3443,2.4687,2.6289,2.7851,2.8711,2.9258,2.9707,3.0371,3.0723,3.0723,3.0039,2.8906,2.7519,2.5762,0.0,0.0,2.1505,2.1231,2.1133,2.0918,2.1953,0.0,2.3926,2.5156,2.6602,2.8393,2.8945,2.9531,3.043,3.0742,3.0898,0.0,3.0898,3.0898,3.0898,0.0,3.0898,3.0898,3.0898,3.0684,3.0215,2.998,2.957,2.8926,2.8711,2.8496,2.8301,2.8301,2.8301,2.8281,2.8086,2.7637,2.7012,2.6797,0.0,2.6035,2.5771,2.581,2.6035,2.5771,2.6062,2.6723,2.7657,2.8633,2.9676,0.0,0.0,0.0,0.0,0.0,0.0,0.0,1.9811,1.9811,1.9811,1.9811,1.9811,1.9811,1.9811,1.9811,0.0,0.0,0.0,0.0,0.0,0.0,0.0,0.0,0.0,0.0,0.0,0.0,2.292,2.3045,0.0,0.0,0.0,0.0,0.0,2.3095,0.0,0.0,0.0,0.0,0.0,0.0,0.0,0.0,0.0,0.0,0.0,0.0,0.0,0.0,0.0,2.1608,2.2914,2.4414,2.6348,2.8144,2.8828,2.9333,2.9746,3.0527,3.082,3.0664,2.9668,2.8476,2.6953,2.4785,2.3301,2.2031,2.086,2.0605,2.0625,2.0684,2.1621,2.2578,0.0,2.4199,2.5566,2.7454,2.8027,2.8769,0.0,3.0605,0.0,3.0898,3.0898,0.0,3.0898,0.0,0.0,3.0898,3.0898,3.0684,3.0215,2.9883,2.9453,2.8926,2.8594,2.8379,2.8301,2.8301,2.8301,2.8301,2.8301,2.7871,2.7148,2.7148,0.0,0.0,2.5869,2.583,2.581,2.5732,2.5693,2.5781,2.6619,2.7702,2.897,0.0,0.0,0.0,0.0,0.0,0.0,0.0,1.9811,1.9811,1.9811,1.9811,1.9811,1.9811,1.9811,1.9811,0.0,0.0,0.0,0.0,0.0,0.0,0.0,0.0,0.0,0.0,0.0,0.0,2.2368,2.2869,0.0,0.0,0.0,0.0,0.0,0.0,2.3095,2.3095,0.0,0.0,0.0,0.0,0.0,0.0,0.0,0.0,0.0,0.0,0.0,2.0369,1.9687,2.0056,2.1016,2.1934,2.4492,2.7148,2.7226,2.8359,2.9668,3.0137,3.0566,3.0586,2.9297,2.8027,2.6504,2.4336,0.0,2.168,2.0801,2.0605,2.0723,2.1054,2.1602,2.2344,2.3535,0.0,2.5215,2.7415,2.8027,2.8769,3.0039,0.0,0.0,3.0898,3.0898,0.0,0.0,0.0,0.0,3.0898,3.0898,3.0684,3.0215,3.0156,2.9746,2.8926,2.8887,2.8672,2.8301,2.8301,2.8301,2.8301,2.8301,2.8047,2.7669,2.7669,0.0,0.0,2.6484,2.6328,2.6289,2.5898,2.5693,2.5868,2.7084,2.829,2.9511,0.0,0.0,0.0,0.0,0.0,0.0,1.9736,1.9811,1.9811,1.9811,1.9811,1.9811,1.9811,1.9811,1.9811,1.9811,0.0,0.0,0.0,0.0,0.0,0.0,0.0,0.0,0.0,0.0,2.2322,2.2322,2.2844,0.0,0.0,0.0,0.0,0.0,0.0,2.3095,2.3095,0.0,0.0,0.0,0.0,0.0,0.0,0.0,0.0,0.0,0.0,0.0,1.978,1.9424,1.9529,1.9803,1.9609,2.1562,0.0,2.6113,2.748,2.8691,2.9883,3.0527,3.0566,2.9258,2.7969,2.6445,2.4277,0.0,2.1641,2.0781,2.0605,2.0664,2.0801,2.1191,2.1738,2.2519,0.0,0.0,2.5449,2.5859,2.6719,2.8809,2.9434,0.0,0.0,0.0,3.0898,0.0,0.0,0.0,3.0898,3.0898,3.0801,3.0625,3.0098,2.9648,2.9316,2.8789,2.8457,2.8301,2.8301,2.8301,2.8301,2.8301,2.8066,2.7708,2.7383,0.0,0.0,2.6289,2.6152,2.6348,2.5849,2.5693,2.5791,2.6304,2.772,2.9442,0.0,0.0,0.0,0.0,0.0,1.9183,1.9736,1.9811,1.9811,1.9811,1.9811,1.9811,1.9811,1.9811,1.9811,1.9811,1.9811,0.0,0.0,0.0,0.0,0.0,0.0,0.0,0.0,0.0,2.2071,2.2071,2.2744,2.3095,0.0,0.0,2.3095,2.3095,0.0,0.0,0.0,0.0,0.0,0.0,0.0,0.0,0.0,0.0,0.0,0.0,0.0,0.0,0.0,0.0,0.0,1.8809,1.8203,0.0,0.0,0.0,2.6016,2.7578,2.8906,2.9863,3.0195,2.8867,2.7578,2.6094,2.4062,0.0,2.1484,2.0762,2.0605,2.0605,2.0605,2.1035,2.1523,0.0,0.0,2.2773,2.4219,2.4531,2.5391,0.0,0.0,2.8867,0.0,3.0664,0.0,0.0,0.0,0.0,3.0898,3.0898,3.082,3.0684,3.0078,2.9629,2.9375,2.8769,2.8418,2.8301,2.8301,2.8301,2.8301,2.8301,2.8125,2.7832,2.7519,0.0,0.0,2.6317,2.6152,2.6172,2.581,2.5693,2.5693,2.5693,2.7247,2.9396,0.0,0.0,0.0,0.0,0.0,0.0,1.9736,1.9811,1.9811,1.9811,1.9811,1.9811,1.9811,1.9811,1.9811,1.9811,1.9811,0.0,0.0,0.0,0.0,0.0,0.0,0.0,0.0,0.0,2.1493,2.1493,2.2569,2.3095,2.3095,2.3095,2.3095,2.3095,0.0,0.0,0.0,0.0,0.0,0.0,0.0,0.0,0.0,0.0,0.0,0.0,0.0,0.0,0.0,0.0,0.0,0.0,0.0,1.8286,1.8987,0.0,2.3711,2.6504,2.6934,2.8281,2.9333,2.8061,2.6699,2.5245,2.3491,2.2107,2.1073,2.0703,2.0605,2.0605,2.0605,2.1329,2.1875,2.1894,0.0,0.0,2.4297,2.4785,2.5439,0.0,0.0,2.7539,2.8809,3.0117,0.0,0.0,0.0,0.0,3.0898,3.0898,3.0684,3.0215,3.0195,2.9785,2.8945,2.8926,2.8711,2.8301,2.8301,2.8301,2.8301,2.8301,2.8301,2.8281,0.0,0.0,0.0,2.7012,2.6504,2.5693,2.5693,2.5693,2.5693,2.5693,2.7247,2.9396,0.0,0.0,0.0,0.0,0.0,0.0,0.0,1.9811,1.9811,1.9811,1.9811,1.9811,1.9811,1.9811,1.9811,1.9811,2.0189,0.0,0.0,0.0,0.0,0.0,0.0,0.0,0.0,0.0,2.187,2.1493,2.2569,2.3095,2.3095,2.3095,2.3095,2.3095,2.3095,2.3095,0.0,0.0,0.0,0.0,0.0,0.0,0.0,0.0,0.0,0.0,0.0,0.0,0.0,0.0,0.0,0.0,0.0,0.0,0.0,1.926,2.1444,2.4023,2.5332,2.6309,2.6699,2.5703,2.4922,2.4043,2.2598,2.1738,2.1113,2.0703,2.0605,2.0605,2.0605,2.084,2.1212,2.1797,2.2109,0.0,0.0,0.0,0.0,2.6641,2.8496,2.9824,0.0,0.0,0.0,0.0,0.0,0.0,3.0898,3.0898,3.0684,3.0215,2.9922,2.9492,2.8926,2.8633,2.8418,2.8301,2.8301,2.8301,2.8301,2.8301,2.8301,0.0,0.0,0.0,0.0,2.6504,2.6152,2.6152,2.581,2.5693,2.5839,2.6668,2.8049,2.9533,0.0,0.0,0.0,0.0,0.0,0.0,0.0,1.9811,1.9811,1.9811,1.9811,1.9811,1.9811,1.9811,1.9811,1.9811,2.0541,0.0,0.0,0.0,0.0,0.0,0.0,0.0,0.0,2.1368,2.182,2.1493,2.2569,2.3095,2.3095,2.3095,2.3095,2.3095,2.3095,2.3095,0.0,0.0,0.0,0.0,0.0,0.0,2.3095,0.0,0.0,0.0,0.0,0.0,0.0,0.0,0.0,0.0,0.0,0.0,0.0,0.0,1.9865,2.168,2.3398,2.4531,2.5011,2.4355,2.375,2.3066,2.2109,2.1406,2.0898,2.0664,2.0605,2.0605,2.0605,2.0703,2.0996,2.1543,2.1914,2.2305,0.0,0.0,0.0,2.6582,0.0,0.0,0.0,0.0,0.0,0.0,0.0,0.0,3.0898,3.0723,3.043,2.998,2.9863,2.9531,2.8926,2.8652,2.8457,2.8301,2.8301,2.8301,2.8301,2.8301,2.8301,0.0,0.0,0.0,0.0,2.6387,2.6055,2.6113,2.5791,2.5965,2.6524,2.7315,2.8634,3.0169,0.0,0.0,0.0,0.0,0.0,0.0,0.0,1.9811,1.9811,1.9811,1.9811,1.9811,1.9811,1.9811,1.9811,1.9861,0.0,0.0,0.0,0.0,0.0,0.0,0.0,0.0,2.0767,2.1245,2.1518,2.1543,2.2594,2.3095,2.3095,2.3095,2.3095,2.3095,2.3095,2.3095,2.3095,0.0,0.0,0.0,2.3095,2.3095,0.0,0.0,0.0,0.0,0.0,0.0,0.0,0.0,0.0,0.0,0.0,0.0,0.0,0.0,0.0,0.0,0.0,2.2891,2.4043,2.3652,2.2969,2.2266,2.1875,2.1192,0.0,2.0605,2.0605,2.0625,2.0644,2.0957,2.121,2.1268,2.1951,2.2519,0.0,2.373,0.0,0.0,2.8027,0.0,2.8965,0.0,0.0,0.0,0.0,0.0,3.084,3.041,2.9961,2.9531,2.9902,2.9707,2.8887,2.8867,2.8672,2.8301,2.8301,2.8301,2.8301,2.8301,2.8281,0.0,0.0,0.0,0.0,2.6523,2.6113,2.5732,2.5693,2.6476,2.7579,2.7673,2.9212,3.1223,0.0,0.0,0.0,0.0,0.0,0.0,0.0,0.0,0.0,0.0,1.9811,1.9811,1.9811,1.9811,1.9987,0.0,0.0,0.0,0.0,0.0,0.0,0.0,0.0,0.0,2.1292,2.1446,2.1694,2.2121,2.2769,2.3095,2.3095,2.3095,2.3095,2.3095,2.3095,2.3095,2.3095,2.3095,0.0,0.0,2.3095,2.3095,0.0,0.0,0.0,0.0,2.3095,2.2433,0.0,0.0,0.0,0.0,0.0,0.0,0.0,0.0,1.8422,1.8909,1.9687,0.0,2.1486,2.1388,2.1212,2.1036,0.0,2.0762,2.0605,2.0605,2.0605,2.0703,2.1016,2.1132,2.1405,2.2109,2.2383,2.2617,2.2906,0.0,0.0,2.7734,2.9375,3.0156,2.9492,0.0,0.0,0.0,0.0,3.0351,3.0351,2.9961,2.9512,2.9082,2.918,2.8965,2.8437,2.8437,2.8398,2.8301,2.8301,2.8301,2.8301,2.8301,2.8125,0.0,0.0,0.0,2.6953,2.6211,2.6035,2.6211,2.581,2.6476,2.772,2.8634,2.9897,3.1356,0.0,0.0,0.0,0.0,0.0,0.0,0.0,0.0,0.0,0.0,0.0,1.9811,1.9811,1.9811,0.0,0.0,0.0,0.0,0.0,0.0,0.0,0.0,0.0,2.187,2.187,2.187,2.202,2.2322,2.2844,2.3095,2.3095,2.3095,2.3095,2.3095,2.3095,2.3095,2.3095,2.3095,2.3095,2.3095,2.3095,0.0,0.0,0.0,0.0,0.0,2.3095,2.258,0.0,2.231,2.1322,1.9879,0.0,0.0,0.0,0.0,1.8266,1.8695,1.916,1.9959,2.0644,2.082,2.0879,2.0879,2.0879,2.0723,2.0605,2.0605,2.0605,2.0703,2.1112,2.119,2.1405,2.2109,2.2383,0.0,0.0,0.0,2.6894,2.8144,2.9473,3.0254,0.0,0.0,0.0,0.0,0.0,3.0195,3.0195,2.9609,2.916,2.8926,2.873,2.8516,2.8301,2.8301,2.8301,2.8301,2.8301,2.8301,2.8281,2.8086,2.7943,0.0,0.0,0.0,2.6699,2.623,2.6055,2.6074,2.5791,2.6476,2.7767,2.8958,3.0169,3.1356,0.0,0.0,0.0,0.0,0.0,0.0,0.0,0.0,0.0,0.0,0.0,0.0,0.0,0.0,0.0,0.0,0.0,0.0,0.0,0.0,0.0,0.0,0.0,2.2347,2.2418,2.2347,2.2347,2.2418,2.2869,2.3095,2.3095,2.3095,2.3095,2.3095,2.3095,2.3095,2.3095,2.3095,2.3095,2.3095,2.3095,0.0,0.0,0.0,0.0,0.0,0.0,0.0,0.0,2.2884,2.2094,2.0782,2.0655,0.0,0.0,0.0,0.0,0.0,1.9238,1.9999,2.0703,2.1035,2.1151,2.1171,2.1112,2.0898,2.0703,2.0703,2.0762,2.0898,2.1307,2.1385,0.0,0.0,0.0,0.0,2.4707,2.5557,2.6699,2.8203,2.9199,0.0,0.0,0.0,0.0,0.0,0.0,3.0078,3.0,2.9258,2.8828,2.8828,2.8476,2.8301,2.8301,2.8301,2.8301,2.8301,2.8301,2.8262,2.8184,2.7885,2.765,2.7493,0.0,0.0,2.6387,2.6309,2.6113,2.5791,2.5713,2.6476,2.7767,2.8958,3.0169,3.1356,0.0,0.0,0.0,0.0,0.0,0.0,0.0,0.0,0.0,0.0,0.0,0.0,0.0,0.0,0.0,0.0,0.0,0.0,0.0,0.0,0.0,2.297,2.2518,2.2493,2.297,2.2518,2.2518,2.297,2.307,2.3095,2.3095,2.3095,2.3095,2.3095,2.3095,2.3095,2.3095,2.3095,2.3095,2.3095,2.3095,0.0,0.0,0.0,0.0,0.0,0.0,0.0,0.0,2.3065,2.2463,2.1565,2.0814,0.0,0.0,0.0,0.0,0.0,1.9512,2.0176,2.0625,2.0683,2.0957,2.1093,2.0762,2.0918,2.1093,2.1093,2.1426,2.1816,0.0,2.2324,2.2461,0.0,0.0,2.4844,0.0,0.0,2.8125,2.875,0.0,0.0,0.0,0.0,0.0,0.0,0.0,2.9512,2.9141,2.8652,2.8398,2.8398,2.832,2.8301,2.8301,2.8301,2.8301,2.8301,2.8301,2.8105,2.7806,2.7748,2.7317,2.6582,0.0,2.6445,2.6367,2.5996,2.6016,2.625,2.5879,2.6476,2.7767,2.8958,3.0169,3.1356,0.0,0.0,0.0,0.0,0.0,0.0,0.0,0.0,0.0,0.0,0.0,0.0,0.0,0.0,0.0,0.0,0.0,0.0,0.0,0.0,2.3095,2.3095,2.2869,2.2844,2.3095,2.3201,2.3351,2.3602,2.3873,2.4023,2.3998,2.3722,2.3602,2.3577,2.3246,2.3095,2.3095,2.3095,2.3095,2.3095,0.0,0.0,0.0,0.0,0.0,0.0,0.0,0.0,0.0,0.0,2.2854,2.231,2.1005,0.0,0.0,0.0,0.0,0.0,1.9355,2.0096,2.0664,2.0859,2.1426,2.1816,2.1387,2.1445,2.1582,2.1582,2.1738,0.0,0.0,0.0,2.3242,2.4309,0.0,2.5918,2.7148,2.7676,2.8203,0.0,0.0,0.0,0.0,0.0,0.0,0.0,0.0,0.0,2.8926,2.8516,2.8301,2.8301,2.8301,2.8184,2.7949,2.8184,2.8301,2.8301,2.8066,2.7969,2.7988,2.7285,2.6894,2.6719,0.0,2.625,2.6035,2.6074,2.6074,2.6016,2.5771,2.6062,2.6791,2.868,3.0598,3.2326,0.0,0.0,0.0,0.0,0.0,0.0,0.0,0.0,0.0,0.0,0.0,0.0,0.0,0.0,0.0,0.0,0.0,0.0,0.0,0.0,2.3095,2.3095,2.3246,2.3296,2.3296,2.3778,2.4054,2.418,2.4575,2.4725,2.4575,2.4054,2.3803,2.3778,2.3296,2.3095,2.3095,2.3095,2.3095,2.3095,0.0,0.0,0.0,0.0,0.0,0.0,0.0,0.0,0.0,0.0,0.0,0.0,0.0,0.0,0.0,1.9063,1.8864,1.9191,1.9507,2.0096,2.0703,2.1093,2.1756,2.2305,2.209,2.2109,2.2207,2.2305,2.2324,0.0,0.0,2.3164,0.0,2.5577,2.6348,2.6934,2.7656,2.8047,2.8496,2.9141,2.9609,0.0,0.0,0.0,0.0,0.0,0.0,0.0,2.8769,2.8476,2.8301,2.8301,2.8203,2.7988,2.7728,2.7891,2.7988,2.7988,2.7773,2.7734,2.7812,2.6836,2.6504,2.6699,2.6367,2.6055,2.5713,2.6094,2.6035,2.5693,2.5693,2.5868,2.6428,2.8588,3.0777,3.2698,0.0,0.0,0.0,0.0,0.0,0.0,0.0,0.0,0.0,0.0,0.0,0.0,0.0,0.0,0.0,0.0,0.0,0.0,0.0,0.0,2.3095,2.3095,2.3653,2.3929,2.3929,2.3979,2.4255,2.4725,2.4775,2.4556,2.4054,2.3446,2.317,2.317,2.312,2.3095,2.3095,2.3095,2.3095,2.3095,2.3095,0.0,0.0,0.0,0.0,0.0,0.0,0.0,0.0,0.0,0.0,0.0,0.0,0.0,2.1219,2.0722,2.061,2.0627,2.0539,2.0566,2.0703,2.1093,2.1582,2.2031,2.2383,2.2773,2.312,2.3574,2.3652,2.3672,0.0,2.4043,2.4766,2.6113,2.7082,2.8144,2.9746,0.0,3.0039,3.0098,0.0,0.0,0.0,0.0,0.0,0.0,0.0,0.0,2.8359,2.832,2.8301,2.8301,2.791,2.7748,2.7728,2.7285,2.7109,2.7109,2.748,2.7266,2.6523,2.6426,2.6191,2.5771,2.5752,2.5713,2.5693,2.5732,2.5713,2.5693,2.5693,2.6428,2.7626,2.8912,3.0214,3.1488,0.0,0.0,0.0,0.0,0.0,0.0,0.0,0.0,0.0,0.0,0.0,2.127,2.192,0.0,0.0,0.0,0.0,0.0,0.0,2.3095,2.3095,2.3095,2.3321,2.3772,2.4481,2.4833,2.5084,2.531,2.5661,2.5561,2.4983,2.4399,2.3973,2.3678,2.3678,2.3678,2.3703,2.3998,2.3948,2.3678,2.3678,2.3421,0.0,0.0,0.0,0.0,0.0,0.0,0.0,0.0,2.3163,2.3101,2.2399,2.2008,2.1586,2.0552,2.0226,2.0209,2.0192,2.0566,2.1094,2.1523,2.1953,2.2383,2.2769,2.3393,2.3984,2.4141,2.4394,2.4512,2.4238,0.0,2.5518,2.6602,2.7715,2.8769,2.9668,2.9805,0.0,0.0,0.0,0.0,0.0,0.0,0.0,0.0,0.0,0.0,2.8301,2.8301,2.8184,2.791,2.7806,2.7454,2.6875,2.6973,2.6758,2.6181,2.666,2.6836,2.6758,2.623,2.6035,2.6133,2.581,2.5693,2.5693,2.5693,2.5693,2.5693,2.5693,2.6476,2.7673,2.8096,2.9533,3.1267,0.0,0.0,0.0,0.0,0.0,0.0,0.0,0.0,2.0489,0.0,0.0,0.0,0.0,2.2543,0.0,0.0,0.0,0.0,2.3095,2.3095,2.3095,2.3095,2.3271,2.3747,2.4531,2.5234,2.5686,2.5862,2.5946,2.5737,2.5335,2.4808,2.4356,2.4004,2.418,2.4255,2.428,2.4625,2.4575,2.4255,2.4255,2.3904,0.0,0.0,0.0,0.0,0.0,0.0,0.0,0.0,2.3218,2.3269,2.2938,2.2657,2.2287,2.1333,2.1036,2.0907,2.0307,2.0664,2.1268,2.1602,2.2207,2.2891,2.3594,2.4199,2.4785,2.5332,2.5352,2.5137,2.4707,0.0,0.0,0.0,2.8086,2.9062,2.9512,0.0,0.0,0.0,0.0,0.0,0.0,0.0,0.0,0.0,0.0,0.0,0.0,2.7969,2.7754,2.748,2.7344,2.6973,2.6387,2.6543,2.625,2.5527,2.582,2.6191,2.6582,2.5947,2.5898,2.6172,2.581,2.5693,2.5693,2.5693,2.5693,2.5693,2.5693,2.6255,2.703,2.7458,2.8912,3.0687,0.0,0.0,0.0,0.0,0.0,0.0,0.0,0.0,2.1493,2.1493,2.2418,0.0,0.0,0.0,0.0,0.0,0.0,0.0,2.3095,2.3095,2.3095,2.3095,2.3678,2.3979,2.4004,2.5034,2.5896,2.6474,2.536,2.48,2.4775,2.4255,2.4004,2.3998,2.455,2.48,2.48,2.48,2.48,2.48,2.48,2.4506,2.4004,0.0,0.0,0.0,0.0,0.0,0.0,0.0,2.258,2.2255,2.4201,2.4198,2.3502,2.3487,2.3489,2.3084,2.1126,2.0898,2.119,2.121,2.2227,2.354,2.4832,2.5125,2.5615,2.7356,2.6641,2.5557,2.5204,2.5449,0.0,2.6875,2.8086,2.9062,0.0,0.0,0.0,0.0,0.0,0.0,0.0,0.0,0.0,0.0,0.0,0.0,0.0,2.7246,2.7012,2.7012,2.6602,2.6387,2.6387,2.5957,2.5508,2.5106,2.5106,2.5293,2.5674,2.5674,2.5674,2.5674,2.5693,2.5693,2.5674,2.5674,2.5674,2.5674,2.5693,2.5693,2.582,2.7125,2.8355,2.9579,0.0,0.0,0.0,0.0,0.0,0.0,0.0,0.0,2.1219,2.197,2.2347,0.0,0.0,0.0,0.0,0.0,0.0,0.0,2.3095,2.3095,2.3095,2.3095,2.3271,2.3577,2.3979,2.4682,2.531,2.5862,2.5536,2.4665,2.3345,2.4169,2.366,2.211,2.4353,2.4995,2.4449,2.5518,2.5737,2.536,2.536,2.5059,2.4582,0.0,0.0,0.0,0.0,0.0,0.0,0.0,0.0,0.0,2.4067,2.4385,2.4342,2.3283,2.2988,2.2726,2.1052,2.0898,2.1346,2.1951,2.2871,2.4023,2.5625,2.5556,2.5439,2.6523,2.6465,2.6152,2.6016,2.6348,0.0,2.6973,2.7832,2.8516,0.0,0.0,0.0,0.0,0.0,0.0,0.0,0.0,0.0,0.0,0.0,0.0,0.0,2.709,2.6875,2.6582,2.6445,2.625,2.5937,2.5488,2.5195,2.5106,2.4746,2.4687,2.4824,2.5137,2.5273,2.5293,2.5605,2.5566,2.5273,2.5273,2.5273,2.5293,2.5557,2.5693,2.5742,2.611,2.7579,2.9442,0.0,0.0,0.0,0.0,0.0,0.0,2.0339,2.0918,2.1468,2.192,2.2343,2.2744,0.0,0.0,0.0,2.312,2.3521,0.0,0.0,2.3321,2.3346,2.312,2.3321,2.3573,2.3804,2.4312,2.4368,2.3923,2.4254,2.3739,2.2422,2.328,2.3242,2.2478,2.4444,2.5267,2.5154,2.6108,2.6298,2.5971,2.5971,2.5611,2.5134,0.0,0.0,0.0,0.0,0.0,0.0,0.0,0.0,0.0,2.3929,2.4043,2.3917,2.2976,2.252,2.207,2.0935,2.1016,2.166,2.2344,2.3418,2.4668,2.6074,2.6504,2.6699,2.707,2.7012,2.6894,2.6894,2.6953,0.0,2.7246,2.7851,2.8242,0.0,0.0,0.0,0.0,0.0,0.0,0.0,0.0,0.0,0.0,0.0,0.0,0.0,2.6602,2.6387,2.6133,2.5957,2.5742,2.5469,2.5039,2.4727,2.4597,2.4297,2.4082,2.3881,2.4531,2.4902,2.5125,2.5352,2.5312,2.5106,2.4883,2.4805,2.4844,2.5117,2.5312,2.5469,2.5469,2.7025,2.9059,0.0,0.0,1.9811,1.9861,0.0,0.0,2.0087,2.1343,2.2146,2.1694,2.2468,2.3095,0.0,0.0,0.0,2.3221,2.4073,2.4249,0.0,0.0,2.3703,2.3195,2.361,2.3754,2.349,2.3797,2.3062,2.1263,2.2199,2.2366,2.1808,2.2024,2.2731,2.3851,2.4743,2.5476,2.6129,2.6371,2.6465,2.6396,2.6515,2.6223,2.5686,2.5737,0.0,0.0,0.0,0.0,0.0,0.0,0.0,0.0,2.3904,2.3511,2.284,2.2832,2.2165,2.1386,2.0913,2.1311,2.2012,2.2559,2.4004,2.5575,2.6367,2.7754,2.873,2.8281,0.0,2.7826,2.7787,2.7402,2.7246,2.7669,2.7988,2.8086,0.0,0.0,0.0,0.0,0.0,0.0,0.0,0.0,0.0,0.0,0.0,0.0,0.0,2.5879,2.5577,2.5635,2.5234,2.5047,2.5047,2.457,2.416,2.3789,2.375,2.3516,2.312,2.3939,2.459,2.5,2.5008,2.4988,2.4969,2.4531,2.4355,2.4355,2.4394,2.4695,2.5189,2.5189,2.6685,2.8701,0.0,0.0,1.9936,2.0415,0.0,0.0,2.1669,2.2071,2.2393,2.2719,2.297,2.3095,2.3095,2.3221,0.0,2.3778,2.3597,2.3747,2.4374,0.0,2.3446,2.3803,2.3189,2.2997,2.3333,2.2708,2.1673,2.0198,2.1519,2.153,2.0403,2.2274,2.235,2.0983,2.4578,2.4969,2.3136,2.5487,2.606,2.5454,2.6636,2.6801,2.6348,2.6766,2.6314,0.0,0.0,0.0,0.0,0.0,0.0,0.0,2.4575,2.4329,2.3966,2.3895,2.3005,2.2071,2.2188,2.209,2.2227,2.3652,2.5566,2.7297,2.7773,2.8164,2.8203,2.7441,2.8008,2.8555,2.8223,2.8086,2.7949,2.7695,0.0,0.0,0.0,0.0,0.0,0.0,0.0,0.0,0.0,0.0,0.0,0.0,0.0,0.0,2.5859,2.5137,2.4863,2.5195,2.4785,2.4551,2.4551,2.4141,2.3887,0.0,2.3437,2.3179,2.312,2.3691,2.416,2.4531,2.4199,2.4062,2.4062,2.3965,2.3926,2.3965,2.4277,2.5005,2.5863,2.5863,2.7392,2.9394,0.0,0.0,0.0,0.0,0.0,0.0,0.0,0.0,2.2694,2.2719,2.2945,2.3095,2.3095,2.3346,0.0,0.0,2.4029,2.4199,2.3998,2.3948,2.3835,2.366,2.2733,2.2297,2.2383,2.2098,2.1168,1.9601,2.0564,2.0508,1.9636,2.1098,2.1458,2.0991,2.3318,2.4036,2.3562,2.5099,2.5928,2.6173,2.6991,2.7153,2.6927,2.7168,2.6766,2.6047,2.6047,0.0,0.0,0.0,0.0,0.0,0.0,0.0,2.3609,2.4065,2.3198,2.22,2.2594,2.2651,2.2974,2.4604,2.6055,2.7266,2.8105,2.8144,2.793,2.7676,2.8164,2.8555,2.834,2.8125,2.793,0.0,0.0,0.0,0.0,0.0,0.0,0.0,0.0,0.0,0.0,0.0,0.0,0.0,0.0,2.5078,2.505,2.4668,2.4531,2.4746,2.4336,2.4121,2.4121,2.3691,2.3477,2.3477,2.3198,2.3101,2.312,2.3594,2.3906,2.4102,2.3887,2.3789,2.3769,2.3574,2.3477,2.3496,2.373,2.458,2.5769,2.5769,2.7236,2.9213,0.0,0.0,0.0,0.0,0.0,0.0,0.0,0.0,0.0,2.2493,2.2819,2.3095,2.3095,2.3547,2.3703,0.0,0.0,0.0,2.3381,2.4016,2.4056,2.324,2.2331,2.1737,2.1508,2.1661,2.0968,1.9394,1.9824,1.9844,1.9512,1.9972,2.0722,2.1773,2.2113,2.301,2.4276,2.46,2.5397,2.6417,2.6659,2.6731,2.6657,2.6934,2.6706,2.6267,2.643,2.6172,2.5737,2.5737,0.0,0.0,0.0,0.0,2.3036,2.402,2.3212,2.2164,2.2891,2.3329,2.3969,2.5374,2.6055,2.668,2.7812,2.7812,2.7656,2.8008,2.8125,2.8184,2.8184,2.7832,2.7591,0.0,0.0,0.0,0.0,0.0,0.0,0.0,0.0,0.0,0.0,0.0,0.0,0.0,0.0,2.4805,2.4434,2.4277,2.4238,2.4316,2.3887,2.3672,2.3672,2.3276,2.3101,2.3101,2.3101,2.3101,2.3101,2.3516,2.3672,2.3672,2.3672,2.3672,2.3652,2.3237,2.3101,2.3144,2.3299,2.4283,2.5592,2.5808,2.7192,2.8954,0.0,0.0,0.0,0.0,0.0,0.0,0.0,0.0,0.0,0.0,2.307,2.3095,2.3095,2.317,2.3396,2.3853,2.4079,2.4186,2.4044,0.0,0.0,2.2802,2.1819,2.1508,2.1895,2.1163,2.0466,1.9824,2.0273,2.0488,2.0429,2.0978,2.106,2.0857,2.2563,2.2526,2.1318,2.301,2.3327,2.2821,2.4138,2.4406,2.4137,2.549,2.5661,2.53,2.6198,2.6449,2.6373,2.6373,2.6323,0.0,0.0,0.0,2.3574,2.4468,2.3404,2.2375,2.4068,2.4755,2.5142,2.5591,2.6055,2.6523,0.0,0.0,2.7109,0.0,2.748,2.7806,2.7806,2.7383,0.0,0.0,0.0,0.0,0.0,0.0,0.0,0.0,0.0,0.0,0.0,0.0,0.0,0.0,2.4727,2.4473,2.4414,2.3666,2.3432,2.3867,2.3457,2.3179,2.3179,2.312,2.3101,2.3101,2.3101,2.3101,2.3101,2.3159,2.3179,2.3179,2.3179,2.3179,2.3179,2.312,2.3101,2.3212,2.4168,2.5295,2.649,2.7412,2.8546,2.9685,0.0,0.0,0.0,0.0,0.0,0.0,0.0,0.0,0.0,0.0,0.0,2.2433,2.2433,2.2002,2.2068,2.3062,2.2989,2.3032,2.3363,2.2223,2.1611,2.1833,2.0962,2.0702,2.1221,2.0818,2.0507,2.0273,2.0507,2.0742,2.0937,2.1191,2.1311,2.1389,2.2227,2.2298,2.1818,2.2683,2.314,2.3351,2.4002,2.4168,2.41,2.5329,2.548,2.5123,2.6129,2.6499,2.6499,2.6499,2.6499,2.6449,2.6197,0.0,0.0,0.0,2.4927,2.4136,2.4664,2.4861,2.4916,2.496,2.5137,2.5527,2.6445,2.6465,2.6426,2.6914,2.6973,2.7012,0.0,0.0,0.0,0.0,0.0,0.0,0.0,0.0,0.0,0.0,0.0,0.0,0.0,0.0,0.0,0.0,2.418,2.3965,2.3666,2.3296,2.3179,2.3418,2.3198,2.3101,2.3101,2.3101,2.3101,2.3101,2.3101,2.3101,2.3101,2.3101,2.3101,2.3101,2.3101,2.3101,2.3101,2.3101,2.3101,2.3212,2.4339,2.5504,2.6648,2.7683,2.8806,2.9804,0.0,0.0,0.0,0.0,0.0,0.0,0.0,0.0,0.0,0.0,0.0,2.1565,2.1565,0.0,0.0,0.0,2.206,2.2154,2.249,2.1328,2.074,2.1032,2.0399,2.0234,2.0605,2.0605,2.0605,2.0605,2.0605,2.0859,2.1366,2.1366,2.168,2.2187,2.1973,2.2129,2.2486,2.2362,2.2769,2.3481,2.3411,2.3433,2.3618,2.4619,2.4853,2.4719,2.603,2.6416,2.6328,2.6596,2.66,2.6499,2.6499,2.6097,0.0,0.0,0.0,2.5308,2.4918,2.4816,2.4744,2.4404,2.449,2.4815,0.0,0.0,2.5742,0.0,2.6269,2.6191,0.0,0.0,0.0,0.0,0.0,0.0,0.0,0.0,0.0,0.0,0.0,0.0,0.0,0.0,0.0,0.0,2.3789,2.3594,2.312,2.3101,2.3101,2.3101,2.3101,2.3101,2.3101,2.3101,2.3101,2.3101,2.3101,2.3101,2.3101,2.3101,2.3101,2.3101,2.3101,2.3101,2.3101,2.3101,2.3101,2.3256,2.4681,2.5755,2.6689,2.8028,2.9067,2.9804,0.0,0.0,0.0,0.0,0.0,0.0,0.0,0.0,0.0,0.0,0.0,2.0655,2.0655,2.0623,2.0792,2.1229,2.1722,2.2028,2.2045,2.1143,2.0624,2.0644,2.0566,0.0,2.0605,2.0605,2.0605,2.0605,2.0605,2.1055,2.1855,2.1855,2.2285,2.2984,2.2246,2.1916,2.1899,2.1487,2.1311,2.1351,2.0957,2.0997,2.1451,2.2478,2.31,2.3636,2.5746,2.612,2.5803,2.6898,2.6927,2.6499,2.6499,2.6097,2.5611,0.0,0.0,0.0,2.4814,2.5177,2.5309,2.4298,2.4699,2.508,0.0,0.0,2.5165,2.5204,2.5204,0.0,0.0,0.0,0.0,0.0,0.0,0.0,0.0,0.0,0.0,0.0,0.0,0.0,0.0,0.0,0.0,0.0,2.3789,2.3594,2.312,2.3101,2.3101,2.3101,2.3101,2.3101,2.3101,2.3101,2.3101,2.3101,2.3101,2.3101,2.3101,2.3101,2.3101,2.3101,2.3101,2.3101,2.3101,2.3101,2.3101,2.3299,2.5546,2.6442,2.6771,2.891,2.974,2.9804,0.0,0.0,0.0,0.0,0.0,0.0,0.0,0.0,0.0,0.0,0.0,0.0,0.0,1.9494,1.9713,2.0727,2.1006,2.1104,2.1086,2.0799,2.0605,2.0605,2.0605,2.0605,2.0605,2.0605,2.0605,2.0605,2.0605,2.0879,2.1465,2.1465,2.1873,2.2691,2.2652,2.2539,2.2285,2.2129,2.1894,2.1641,2.1484,2.1504,2.1763,2.2713,2.3175,2.3482,2.4904,2.5738,2.6192,2.619,2.6585,2.6952,2.66,2.6348,2.6172,2.6172,2.6047,2.5809,2.5409,0.0,0.0,2.4273,2.4263,2.4361,2.392,2.4023,2.4316,2.459,2.4648,0.0,0.0,0.0,0.0,0.0,0.0,0.0,0.0,0.0,0.0,0.0,0.0,0.0,0.0,0.0,0.0,0.0,0.0,2.3257,2.3101,2.3101,2.3101,2.3101,2.3101,2.3101,2.3101,2.3101,2.3101,2.3101,2.3101,2.3101,2.3101,2.3101,2.3101,2.3101,2.3101,2.3101,2.3101,2.3101,2.3101,2.3256,2.4787,2.5839,2.6689,2.8148,2.9145,2.9804,0.0,0.0,0.0,2.003,0.0,2.0494,2.0204,2.0171,1.9846,1.8977,0.0,0.0,0.0,0.0,1.9274,2.0272,2.0516,2.0605,2.0605,2.0605,2.0605,2.0605,2.0605,2.0605,2.0605,2.0468,2.0449,2.0605,2.0449,2.0644,2.119,2.1346,2.1836,2.2539,2.2906,2.2945,2.2672,2.2578,2.2363,2.209,2.1934,2.1973,2.2173,2.2776,2.3104,2.3392,2.4433,2.5187,2.5714,2.6056,2.6431,2.6695,2.636,2.6114,2.601,2.6145,2.6197,2.6102,2.5692,0.0,0.0,0.0,2.4069,2.3929,2.3308,0.0,2.3828,2.3965,0.0,0.0,0.0,0.0,0.0,0.0,0.0,0.0,0.0,0.0,0.0,0.0,0.0,0.0,0.0,0.0,0.0,0.0,0.0,0.0,2.3101,2.3101,2.3101,2.3101,2.3101,2.3101,2.3101,2.3101,2.3101,2.3101,2.3101,2.3101,2.3101,2.3101,2.3101,2.3101,2.3101,2.3101,2.3101,2.3101,2.3101,2.3212,2.4339,2.5252,2.6088,2.7562,2.8609,2.9287,1.7435,1.8393,1.9276,1.9276,1.9944,2.0236,1.9408,1.9276,1.8965,1.8129,0.0,0.0,0.0,0.0,0.0,1.9902,2.0332,2.0605,2.0605,2.0605,2.0605,2.0605,2.0625,2.0625,2.0625,2.0176,2.0156,2.0625,2.0137,2.0333,2.119,2.166,2.207,2.25,2.2867,2.3062,2.3042,2.2695,2.2539,2.25,2.209,2.2168,2.2539,2.2539,2.275,2.3256,2.4339,2.443,2.4364,2.6477,2.6482,2.5617,2.5753,2.5433,2.5133,2.5459,2.5578,2.5611,0.0,0.0,0.0,2.4303,2.4158,0.0,2.2263,0.0,2.3613,2.3179,0.0,0.0,0.0,0.0,0.0,0.0,0.0,0.0,0.0,0.0,0.0,0.0,0.0,0.0,0.0,0.0,0.0,0.0,2.3101,2.3101,2.3101,2.3101,2.3101,2.3101,2.3101,2.3101,2.3101,2.3101,2.3101,2.3101,2.3101,2.3101,2.3101,2.3101,2.3101,2.3101,2.3101,2.3101,2.3101,2.3101,2.3101,2.3212,2.4339,2.4787,2.5083,2.7256,2.8084,2.8267,1.7832,1.8133,1.8361,1.8361,1.8563,1.863,1.8395,1.8586,1.8701,0.0,0.0,0.0,1.9102,1.9492,1.9922,2.039,2.0527,2.0605,2.0605,2.0605,2.0605,2.0605,2.0879,2.1055,2.1055,2.0898,2.0878,2.1055,2.0605,2.0546,2.0762,2.0918,2.1172,2.1561,2.2031,2.2402,2.2695,2.2847,2.2925,2.2906,2.2789,2.2808,2.2925,2.2925,2.2984,2.3144,2.3474,2.4021,2.4598,2.4839,2.5223,2.5613,2.5657,2.5852,2.5941,2.5341,2.5674,2.5915,2.4472,0.0,0.0,0.0,0.0,0.0,2.2458,2.2383,2.2559,2.3003,0.0,0.0,0.0,0.0,0.0,0.0,0.0,0.0,0.0,0.0,0.0,0.0,0.0,0.0,0.0,0.0,0.0,0.0,2.3101,2.3101,2.3101,2.3101,2.3101,2.3101,2.3101,2.3101,2.3101,2.3101,2.3101,2.3101,2.3101,2.3101,2.3101,2.3101,2.3101,2.3101,2.3101,2.3101,2.3101,2.3101,2.3101,2.3144,2.3474,2.4082,2.4957,2.6419,2.7441,2.8267,1.8008,1.8008,1.8066,1.8208,1.8247,1.834,1.8516,1.875,1.887,0.0,0.0,0.0,1.9842,2.0039,2.0293,2.0586,2.0605,2.0683,2.084,2.084,2.0918,2.1153,2.1367,2.1504,2.1504,2.1152,2.1055,2.119,2.0605,2.0429,0.0,0.0,2.0977,2.121,2.1699,2.2109,2.2539,2.273,2.2945,2.3101,2.3101,2.3101,2.3101,2.3101,2.3101,2.3101,2.3101,2.3636,2.4393,2.4366,2.4923,2.5582,2.515,2.5413,2.5744,2.5171,2.572,2.6285,0.0,0.0,0.0,2.4527,0.0,0.0,2.2757,2.2553,2.247,0.0,2.2305,0.0,0.0,0.0,0.0,0.0,0.0,0.0,0.0,0.0,0.0,0.0,0.0,0.0,0.0,2.3101,2.3101,2.3101,2.3101,2.3101,2.3101,2.3101,2.3101,2.3101,2.3101,2.3101,2.3101,2.3101,2.3101,2.3101,2.3101,2.3101,2.3101,2.3101,2.3101,2.3101,2.3101,2.3101,2.3101,2.3101,2.3101,2.3101,2.3101,2.3517,2.4296,2.5902,2.6871,2.7666,0.0,1.8047,1.813,1.8598,1.8637,1.8754,1.9219,1.9336,1.9355,0.0,1.9727,2.0137,2.0566,2.0605,2.0625,0.0,2.0683,2.082,2.1229,2.1268,2.1484,2.1875,2.1934,2.1953,2.1953,2.1231,2.0957,0.0,0.0,0.0,0.0,0.0,0.0,2.121,2.1699,2.209,2.2441,2.2539,2.275,2.3101,2.3101,2.312,2.3159,2.3159,2.3198,2.3237,2.3237,2.3535,2.3969,2.4479,2.5099,0.0,2.4481,0.0,0.0,0.0,2.5604,0.0,0.0,0.0,0.0,0.0,2.5616,0.0,2.3186,2.3163,2.3035,2.171,2.1765,0.0,0.0,0.0,0.0,0.0,0.0,0.0,0.0,0.0,0.0,0.0,0.0,0.0,2.3101,2.3101,2.3101,2.3101,2.3101,2.3101,2.3101,2.3101,2.3101,2.3101,2.3101,2.3101,2.3101,2.3101,2.3101,2.3101,2.3101,2.3101,2.3101,2.3101,2.3101,2.3101,2.3101,2.3101,2.3101,2.3101,2.3101,2.3101,2.3101,2.3101,2.3343,2.5526,2.64,2.6812,1.8422,1.8208,1.8262,1.9023,1.8867,1.8754,1.9219,1.957,1.9785,1.9785,2.0176,2.0507,2.0586,2.0605,2.0742,0.0,2.1073,2.1289,2.1738,2.1758,2.1797,2.1875,2.2207,2.2383,2.2383,2.2227,2.2012,2.1758,0.0,0.0,0.0,0.0,0.0,2.121,2.1699,2.1934,2.2051,2.2734,2.3023,2.3101,2.3101,2.3315,2.3672,2.3672,2.3867,2.416,2.416,2.4219,2.4219,2.4058,2.4145,2.43,0.0,0.0,0.0,2.3863,0.0,0.0,0.0,0.0,0.0,0.0,2.4943,0.0,2.411,2.4028,2.3853,0.0,2.2959,0.0,0.0,0.0,0.0,0.0,0.0,0.0,0.0,0.0,0.0,0.0,0.0,0.0,2.3101,2.3101,2.3101,2.3101,2.3101,2.3101,2.3101,2.3101,2.3101,2.3101,2.3101,2.3101,2.3101,2.3101,2.3101,2.3101,2.3101,2.3101,2.3101,2.3101,2.3101,2.3101,2.3101,2.3101,2.3101,2.3101,2.3101,2.3101,2.3101,2.3101,2.3256,2.4638,2.5714,2.6689,1.8247,1.8144,1.8281,1.9141,1.9102,1.918,1.9862,2.0098,2.0234,2.0234,2.0468,2.0683,2.0879,2.0898,2.1074,2.1523,0.0,0.0,0.0,2.2207,2.2285,2.25,2.2672,2.2789,2.2789,2.2617,2.2305,2.1894,0.0,0.0,0.0,0.0,0.0,0.0,2.1797,2.1992,2.2227,2.2656,2.2906,2.3101,2.3101,2.3398,2.3789,2.3789,2.4043,2.4414,2.4414,2.4414,2.4375,2.418,2.4364,0.0,2.3551,2.395,2.4602,0.0,2.4425,2.5476,0.0,0.0,0.0,2.6085,0.0,0.0,0.0,2.4807,2.4488,2.3935,2.3578,0.0,0.0,0.0,0.0,0.0,0.0,0.0,0.0,0.0,0.0,0.0,0.0,0.0,2.2519,2.2519,2.2555,2.2812,2.2984,2.3101,2.3101,2.3101,2.3101,2.3101,2.3101,2.3101,2.3101,2.3101,2.3101,2.3101,2.3101,2.3101,2.3101,2.3101,2.3101,2.3101,2.3101,2.3101,2.3101,2.3101,2.3101,2.3101,2.3101,2.3101,2.3299,2.4999,2.6005,2.673,1.8125,1.8125,1.8398,1.9258,1.9414,1.9668,2.0488,2.0605,2.0644,2.0723,2.0742,2.0859,2.1268,2.1327,2.1562,2.209,2.2051,0.0,2.2734,2.2676,2.275,2.3081,2.3101,2.3101,2.3101,2.2769,2.2422,2.2012,0.0,0.0,0.0,0.0,0.0,0.0,2.2012,2.2187,2.2519,2.2598,2.2789,2.3101,2.3101,2.3398,2.3789,2.3789,2.4043,2.4414,2.4414,2.4355,2.4297,2.4297,2.4571,2.4684,2.309,2.3476,0.0,0.0,0.0,0.0,0.0,0.0,0.0,0.0,0.0,2.7791,0.0,0.0,0.0,0.0,0.0,0.0,0.0,0.0,0.0,0.0,0.0,0.0,0.0,0.0,0.0,0.0,0.0,0.0,2.1992,2.1934,2.2031,2.2363,2.2715,2.2886,2.2964,2.2984,2.2984,2.2984,2.3062,2.3062,2.2984,2.3062,2.3101,2.3101,2.3101,2.3101,2.3101,2.3101,2.3101,2.3101,2.3101,2.3101,2.3101,2.3101,2.3101,2.3101,2.3101,2.3212,2.3627,2.5462,2.6419,2.7058,1.8539,1.8539,1.8792,1.9687,1.9844,2.0,2.0527,2.0605,2.0742,2.1113,2.1112,2.1328,2.1758,2.1816,2.2148,2.2993,2.2656,2.2793,2.3594,2.3237,2.3042,2.3101,2.3101,2.3101,2.3101,2.3042,2.2808,2.2441,2.2383,0.0,0.0,0.0,0.0,0.0,2.2441,2.2461,2.2539,2.2867,2.3042,2.3101,2.3101,2.3398,2.3789,2.3789,2.4043,2.4414,2.4414,2.418,2.3867,0.0,2.3663,2.3315,0.0,2.3129,2.328,2.3138,0.0,0.0,0.0,0.0,0.0,0.0,2.8412,0.0,0.0,0.0,2.5321,2.3903,0.0,0.0,0.0,0.0,0.0,0.0,0.0,0.0,0.0,0.0,0.0,0.0,0.0,0.0,0.0,2.2109,2.1894,2.1953,2.1992,2.2187,2.2559,2.2578,2.2578,2.2578,2.2906,2.2925,2.2578,2.2906,2.3101,2.3101,2.3101,2.3101,2.3101,2.3101,2.3101,2.3101,2.3101,2.3101,2.3101,2.3101,2.3101,2.3101,2.3101,2.3714,2.4617,2.4914,2.6232,2.7964,1.8965,1.9023,1.9199,1.9805,1.9922,2.0059,2.0546,2.0781,2.1016,2.1171,2.1465,2.1777,2.2207,2.2246,2.25,2.3105,2.2945,2.2984,2.3379,2.3198,2.3101,2.3101,2.3101,2.3101,2.3101,2.3101,2.2886,2.2519,2.2519,0.0,0.0,0.0,0.0,0.0,2.2828,2.2828,2.2847,2.3023,2.3101,2.3101,2.3101,2.3198,2.3437,2.3691,2.4043,2.4414,2.4414,2.4297,2.4121,0.0,2.3672,0.0,0.0,0.0,0.0,2.3101,0.0,0.0,0.0,0.0,0.0,0.0,0.0,0.0,2.736,0.0,2.7054,0.0,0.0,0.0,0.0,0.0,0.0,0.0,2.2938,0.0,0.0,0.0,0.0,0.0,0.0,0.0,0.0,0.0,0.0,0.0,2.1738,2.1973,2.2148,2.2383,2.2519,2.2519,2.2886,2.3003,2.2828,2.3003,2.3101,2.3101,2.3101,2.3101,2.3101,2.3101,2.3101,2.3101,2.3101,2.3101,2.3101,2.3101,2.3101,2.3101,2.3101,2.3387,2.3973,2.5294,2.6378,2.7383,1.9551,1.9531,1.9551,1.9863,2.0019,2.0234,2.0684,2.1016,2.1288,2.1522,2.1855,2.2227,2.2637,2.2891,2.3164,2.3413,2.3452,2.3452,2.3452,2.3218,2.3101,2.3101,2.3101,2.3101,2.3101,2.3101,2.2945,2.2633,2.2633,0.0,0.0,0.0,0.0,0.0,2.3101,2.3101,2.3101,2.3101,2.3101,2.3101,2.3101,2.3101,2.314,2.3496,2.3809,2.4017,2.4017,2.4017,2.4023,2.3711,2.3613,0.0,2.3198,2.3101,2.3101,0.0,0.0,0.0,2.3541,0.0,0.0,0.0,0.0,0.0,0.0,0.0,0.0,0.0,0.0,0.0,0.0,0.0,0.0,0.0,0.0,2.2502,0.0,0.0,0.0,0.0,0.0,0.0,0.0,0.0,0.0,2.121,2.1523,2.1699,2.1699,2.1992,2.2207,2.2344,2.2754,2.2925,2.2925,2.3042,2.3101,2.3101,2.3101,2.3101,2.3101,2.3101,2.3101,2.3101,2.3101,2.3101,2.3101,2.3101,2.3101,2.3101,2.3101,2.3101,2.3387,2.5652,2.6689,2.7221,2.0468,2.0176,1.9902,1.9922,2.0273,2.0703,2.1112,2.119,2.1483,2.2363,2.248,2.2613,2.3023,2.3822,2.4355,2.4375,2.4375,2.4375,2.4375,2.3549,2.3101,2.3101,2.3101,2.3101,2.3101,2.3101,2.3081,2.3081,2.3081,0.0,0.0,0.0,0.0,0.0,2.3101,2.3101,2.3101,2.3101,2.3101,2.3101,2.3101,2.3101,2.3101,0.0,2.312,2.314,2.314,0.0,0.0,2.312,2.312,0.0,0.0,0.0,0.0,0.0,0.0,0.0,0.0,0.0,0.0,2.5775,0.0,0.0,0.0,0.0,2.6627,0.0,0.0,0.0,0.0,0.0,0.0,0.0,0.0,0.0,0.0,0.0,0.0,0.0,0.0,0.0,0.0,0.0,2.1699,2.1229,2.121,2.121,2.121,2.1229,2.1424,2.1894,2.2305,2.2539,2.2539,2.2886,2.3101,2.3101,2.3101,2.3101,2.3101,2.3101,2.3101,2.3101,2.3101,2.3101,2.3101,2.3101,2.3101,2.3101,2.3101,2.3101,2.3387,2.5652,2.7157,2.8227,2.0527,2.0488,2.0352,2.0352,2.0507,2.0762,2.1132,2.1484,2.2168,2.3594,2.4023,2.459,2.5586,2.5723,2.5723,2.5723,2.5449,2.5176,2.4863,2.4297,2.3867,2.3574,2.3257,2.3101,2.3101,2.3101,2.3101,2.3101,2.3101,2.3101,0.0,0.0,0.0,0.0,0.0,2.3101,2.3101,2.3101,2.3101,0.0,0.0,2.332,2.3535,0.0,2.3101,2.3101,2.3101,2.3101,0.0,2.3101,2.3101,2.3101,2.3101,2.3101,2.3101,2.3101,2.3387,2.3731,0.0,0.0,2.4859,2.536,0.0,0.0,0.0,0.0,0.0,0.0,0.0,0.0,0.0,0.0,0.0,0.0,0.0,0.0,0.0,0.0,0.0,0.0,0.0,0.0,0.0,0.0,0.0,2.121,2.0957,2.0801,2.0801,2.1074,2.1445,2.1875,2.2305,2.2637,2.2886,2.3023,2.3101,2.3101,2.3101,2.3101,2.3101,2.3101,2.3101,2.3101,2.3101,2.3101,2.3101,2.3101,2.3101,2.3101,2.3101,2.3101,2.3256,2.4808,2.6088,2.7302,2.0546,2.0605,2.0605,2.0605,2.0742,2.0957,2.1406,2.209,2.3066,2.4473,2.5156,2.5918,2.6914,2.7051,2.7012,2.6855,2.6582,2.6113,2.5352,2.5039,2.4551,2.3828,2.3672,2.3471,2.3335,2.3179,2.3101,2.3101,2.3101,2.3101,0.0,0.0,0.0,0.0,0.0,2.3101,2.3101,2.3101,2.3101,0.0,0.0,2.3257,0.0,0.0,2.3198,2.3315,0.0,2.3101,2.3101,2.3101,2.3101,2.3101,2.3101,2.3101,2.312,2.3276,2.3379,2.3457,2.3887,2.4004,0.0,2.4885,2.5781,0.0,2.7024,0.0,2.8633,0.0,0.0,0.0,0.0,0.0,0.0,0.0,0.0,0.0,0.0,2.1093,0.0,0.0,0.0,0.0,0.0,0.0,2.1522,2.121,2.0977,2.0742,0.0,2.0996,2.1445,2.1875,2.2305,2.2672,2.3081,2.3101,2.3101,2.3101,2.3101,2.3101,2.3101,2.3101,2.3101,2.3101,2.3101,2.3101,2.3101,2.3101,2.3101,2.3101,2.3101,2.3101,2.3256,2.4382,2.5755,2.7319,2.0605,2.0625,2.0644,2.0644,2.0957,2.1346,2.1855,2.2988,2.4121,2.5067,2.5918,2.666,2.7129,2.7891,2.8223,2.7885,2.7806,2.7207,2.5888,2.5771,2.5234,2.3965,2.4258,2.4258,2.3828,0.0,0.0,0.0,0.0,0.0,0.0,0.0,0.0,0.0,2.3101,0.0,2.3101,2.3101,2.3101,2.3101,2.3101,2.3101,2.312,2.3101,2.3418,2.373,2.3257,2.3101,2.3101,2.3101,2.3101,2.3101,2.3101,2.3101,2.3179,2.3633,2.3769,2.3848,2.4297,2.4414,2.4414,2.4453,2.4937,0.0,0.0,0.0,2.6505,0.0,0.0,0.0,0.0,0.0,0.0,0.0,0.0,0.0,0.0,0.0,0.0,0.0,0.0,0.0,0.0,2.2227,2.2068,2.1249,2.119,2.1035,0.0,0.0,2.1465,2.1875,2.2305,2.2672,2.3081,2.3101,2.3101,2.3101,2.3101,2.3101,2.3101,2.3101,2.3101,2.3101,2.3101,2.3101,2.3101,2.3101,2.3101,2.3101,2.3101,2.3101,2.3256,2.4382,2.6149,2.8164,2.0605,2.084,2.1055,2.1055,2.1112,2.1444,2.2246,2.3164,2.4336,2.5859,2.707,2.8203,2.9258,2.957,2.9668,2.9551,2.8965,2.832,2.7676,2.7031,2.6406,2.5742,2.5195,2.4707,2.4258,2.3848,2.3457,2.3101,0.0,0.0,2.3101,0.0,0.0,0.0,0.0,2.3101,2.3101,2.3101,2.3101,2.3101,2.3101,2.3296,2.3594,0.0,2.3418,2.373,2.3257,2.3101,2.3101,2.3101,2.3101,2.3101,2.3101,2.3101,2.312,2.3237,2.3257,2.3413,2.4219,2.4414,2.4492,2.4824,2.5669,2.6205,0.0,0.0,0.0,0.0,0.0,0.0,0.0,0.0,0.0,0.0,0.0,0.0,0.0,0.0,0.0,2.119,0.0,0.0,2.1875,2.1699,2.1424,2.121,2.119,2.1035,2.0625,0.0,0.0,2.1875,2.2305,2.2672,2.3081,2.3101,2.3101,2.3101,2.3101,2.3101,2.3101,2.3101,2.3101,2.3101,2.3101,2.3101,2.3101,2.3101,2.3101,2.3101,2.3101,2.3101,2.3256,2.4382,2.5714,2.7098,2.0859,2.1211,2.1582,2.1717,2.2068,2.2519,2.2988,2.3633,2.4629,2.6191,2.75,2.8633,2.9531,3.0156,3.0508,3.0508,2.9863,2.9141,2.834,2.8008,2.7402,2.6426,2.5918,2.5352,2.4707,2.4102,0.0,2.3101,2.3101,2.3101,2.3101,0.0,0.0,0.0,0.0,2.3101,2.3101,2.3101,2.3198,2.3398,2.3179,2.3237,0.0,2.3198,2.3257,2.3477,2.3179,2.3101,2.3101,2.3101,2.3101,2.3101,2.3101,2.3101,2.314,2.3379,2.3418,2.3613,2.4473,2.4707,2.4805,2.5254,2.553,2.5599,2.5092,2.5174,2.5295,0.0,2.54,2.5588,0.0,0.0,0.0,0.0,0.0,0.0,0.0,0.0,0.0,0.0,2.1073,2.121,2.1309,2.1269,2.1112,2.0957,2.1093,2.1035,0.0,0.0,0.0,2.1894,2.2656,2.3086,2.3101,2.3276,2.3276,2.3101,2.3101,2.3101,2.3101,2.3101,2.3101,2.3101,2.3101,2.3101,2.3101,2.3101,2.3101,2.3101,2.3101,2.3387,2.393,2.4532,2.5504,2.673,2.1268,2.168,2.209,2.2441,2.3262,2.3906,2.4023,2.4453,2.5176,2.6328,2.7637,2.8594,2.8965,3.0137,3.0859,3.0801,3.0391,2.9629,2.8457,2.8672,2.8184,2.6699,2.6523,2.6055,2.5223,2.4316,2.3633,2.3101,2.3101,2.3101,2.3101,0.0,0.0,0.0,0.0,0.0,0.0,2.3101,2.3359,2.3672,2.3257,2.3101,2.3101,2.3101,2.3101,2.3101,2.3101,2.3101,2.3101,2.3101,2.3101,2.3101,2.3101,2.3101,2.3179,2.3652,2.3789,2.3965,2.4812,2.5067,2.5156,2.5547,2.5078,2.4492,2.4492,2.3848,2.3179,2.3179,2.3927,2.4253,0.0,0.0,0.0,0.0,0.0,0.0,0.0,0.0,0.0,0.0,0.0,0.0,2.0899,2.1074,2.1055,2.0644,2.0977,0.0,0.0,0.0,0.0,2.1894,2.3066,2.3555,2.3179,2.3535,2.3535,2.3179,2.312,2.3101,2.3101,2.3101,2.3101,2.3101,2.3101,2.3101,2.3101,2.3101,2.3101,2.3101,2.3256,2.393,2.483,2.5126,2.588,2.6976,2.1777,2.2109,2.2422,2.25,2.3516,2.4551,2.5245,2.6055,2.6641,2.6875,2.832,2.9375,2.9453,3.0312,3.0742,3.0351,2.9922,2.9434,2.8848,0.0,0.0,2.7969,2.7285,2.6504,2.5596,2.4766,2.3881,2.3101,2.3101,2.3101,2.3101,0.0,0.0,0.0,0.0,0.0,2.3101,2.3101,0.0,2.3198,2.312,2.3101,2.3101,2.3101,2.3101,2.3101,2.3101,2.3101,2.3101,2.3101,2.3101,2.3101,2.3101,2.3101,2.3179,2.3652,2.3789,2.3906,2.4394,2.4805,2.5125,2.5204,2.5078,2.5008,2.5008,2.4297,2.3672,2.3672,2.3511,2.3343,2.3144,0.0,0.0,0.0,0.0,0.0,0.0,0.0,0.0,0.0,0.0,2.1875,0.0,2.1561,2.1055,2.0644,0.0,0.0,0.0,0.0,0.0,0.0,2.2773,0.0,0.0,0.0,2.3398,2.3672,2.3257,2.3101,2.3101,2.3101,2.3101,2.3101,2.3101,2.3101,2.3101,2.3101,2.3101,2.3169,2.4125,2.4617,2.5041,2.6849,2.7643,2.7884,2.25,2.2695,2.2925,2.3418,2.4394,2.5343,2.622,2.7129,2.7519,2.707,2.793,2.8628,2.8628,2.9551,3.0117,2.9883,2.9687,2.9394,2.8945,2.873,2.8516,2.8301,2.748,2.6719,2.6094,2.498,2.4102,2.3477,2.3198,2.3101,2.3101,0.0,0.0,2.3101,0.0,2.3218,0.0,0.0,0.0,2.3457,2.3179,2.3101,2.3101,2.3101,2.3101,2.3101,2.3101,2.3101,2.3101,2.3101,2.3101,2.3101,2.3101,2.3257,2.3516,2.373,2.3945,2.416,2.4355,2.4727,2.5106,2.5106,2.5106,2.5106,2.5106,2.457,2.4121,2.4121,2.3769,2.3398,2.314,2.3541,0.0,0.0,0.0,0.0,0.0,0.0,2.2344,0.0,0.0,0.0,0.0,0.0,0.0,0.0,0.0,0.0,0.0,0.0,0.0,0.0,0.0,0.0,2.3457,0.0,2.3477,2.3457,2.3198,2.3101,2.3101,2.3101,2.3101,2.3101,2.3101,2.3101,2.3101,2.3101,2.3101,2.3212,2.4339,2.5168,2.588,2.7522,2.8466,2.8988,2.3257,2.3374,2.3647,2.4504,2.5382,2.6181,2.6914,2.7734,2.8047,2.7383,2.7656,2.793,2.793,2.8961,2.9531,2.9434,2.9434,2.9238,2.8809,2.8789,2.8633,2.8301,2.748,2.6816,2.6406,2.5098,2.4219,2.3789,2.3315,2.3101,0.0,0.0,0.0,0.0,0.0,0.0,0.0,0.0,2.3296,2.3633,2.3237,2.3101,2.3101,2.3101,2.3101,2.3101,2.3101,2.3101,2.3101,2.3101,2.3101,2.3101,2.3101,2.3335,2.3691,2.3867,2.416,2.4434,2.4531,2.4805,2.5106,2.5106,2.5047,2.498,2.5176,2.4805,2.4434,2.4531,2.4141,2.3652,2.3179,2.3101,0.0,0.0,0.0,0.0,0.0,0.0,0.0,0.0,0.0,0.0,2.0977,0.0,0.0,0.0,0.0,0.0,2.0742,0.0,0.0,0.0,0.0,2.3535,2.3237,0.0,2.3516,2.3237,2.314,2.3101,2.3101,2.3101,2.3101,2.3101,2.3101,2.3101,2.3101,2.3101,2.3101,2.3256,2.4638,2.5714,2.6648,2.7988,2.9028,2.9804,2.4141,2.4297,2.4524,2.5421,2.6328,2.6914,2.7012,2.7734,2.8262,2.8184,2.8535,2.8809,2.8809,2.9258,2.9414,2.9004,2.8984,2.8809,2.8379,2.8359,2.834,2.8301,2.748,2.6816,2.6406,2.5098,2.4219,2.3789,2.3315,2.3101,0.0,0.0,0.0,0.0,0.0,0.0,0.0,2.312,2.312,2.3159,2.312,2.3101,2.3101,2.3101,2.3101,2.3101,2.3101,2.3101,2.3101,2.3101,2.3101,2.3101,2.3101,2.312,2.3315,2.4121,2.4394,2.4512,2.4902,2.5086,2.5106,2.5106,2.4766,2.4687,2.544,2.5019,2.4531,2.4969,2.4355,2.3652,2.3179,2.3101,2.3101,0.0,0.0,0.0,0.0,0.0,2.2867,2.2441,0.0,0.0,0.0,2.2187,0.0,0.0,2.1504,0.0,0.0,0.0,0.0,2.1894,2.2734,2.3379,2.373,2.3379,2.3379,2.373,2.3276,2.3101,2.3101,2.3101,2.3101,2.3101,2.3101,2.3101,2.3101,2.3101,2.3101,2.3299,2.5484,2.64,2.6771,2.887,2.9702,2.9804,0.0,0.0,0.0,0.0,0.0,0.0,0.0,2.8066,2.8301,2.8301,2.8437,2.8535,2.8535,2.8691,2.873,2.8555,2.8535,2.8476,2.8301,2.8301,2.8301,2.8301,2.7715,2.7207,2.6777,2.5742,2.4863,0.0,0.0,0.0,0.0,0.0,0.0,0.0,0.0,2.3101,2.3101,2.3101,2.3101,2.3101,2.3101,2.3101,2.3101,2.3101,2.3101,2.3101,2.3101,2.3101,2.3101,2.3101,2.3101,2.314,2.3437,2.3711,2.3939,2.4316,2.4738,2.5137,2.4766,2.5059,2.541,2.5184,2.5137,2.5245,2.5615,2.5421,2.5206,2.543,2.498,2.4355,2.3652,2.3535,2.3437,2.314,0.0,0.0,0.0,0.0,0.0,2.2559,0.0,2.2148,0.0,0.0,0.0,0.0,0.0,0.0,0.0,0.0,0.0,2.2266,0.0,2.3179,2.3398,2.3179,2.3179,2.3398,2.3179,2.3101,2.3101,2.3101,2.3101,2.3101,2.3101,2.3101,2.3101,2.3101,2.3101,2.3343,2.561,2.6524,2.6771,2.8973,2.9804,2.9804,2.5371,0.0,2.623,0.0,2.7383,2.7598,2.8203,2.8301,2.8301,2.8301,2.8301,2.8301,2.8301,2.8301,2.8301,2.8301,2.8301,2.8301,2.8301,2.8301,2.8301,2.8301,2.7891,0.0,2.7207,2.625,2.5382,2.4758,2.4121,0.0,0.0,0.0,0.0,0.0,2.3101,2.3101,2.3101,2.3101,2.3101,2.3101,2.3101,2.3101,2.3101,2.3101,2.3101,2.3101,2.3101,2.3101,2.3101,2.3101,2.3101,2.314,2.3496,2.3887,2.4258,2.4375,2.4941,2.541,2.4785,2.5059,2.5469,2.5184,2.5312,2.5518,2.5654,2.5693,2.5654,2.5566,2.5293,2.4851,2.3945,2.3789,2.3652,2.3159,0.0,0.0,0.0,2.3101,0.0,2.2559,2.2363,2.2031,2.1444,2.1934,0.0,0.0,0.0,0.0,0.0,0.0,0.0,0.0,0.0,0.0,2.3101,2.3101,2.3101,2.3101,2.3101,2.3101,2.3101,2.3101,2.3101,2.3101,2.3101,2.3101,2.3101,2.3101,2.3101,2.3299,2.5231,2.6171,2.673,2.8609,2.9507,2.9804,2.6113,2.6387,2.6777,2.8047,2.8281,2.8281,2.8301,2.8301,2.8301,2.8301,2.8301,2.8301,2.8301,2.8301,2.8301,2.8301,2.8301,2.8301,2.8301,2.8301,2.8301,0.0,0.0,2.7728,2.7708,2.6406,2.5674,2.5674,0.0,0.0,2.3769,0.0,2.3101,2.3101,2.3101,2.3101,2.3101,2.3101,2.3101,2.3101,2.3101,2.3101,2.3101,2.3101,2.3101,2.3101,2.3101,2.3101,2.3101,2.3101,2.3101,2.3101,2.3101,2.3437,2.3887,2.4297,2.4727,2.5125,2.5106,2.5106,2.5125,2.5106,2.5125,2.5195,2.5596,2.5693,2.5605,2.5176,2.5125,2.4851,2.3945,2.3789,2.3652,2.3159,0.0,0.0,0.0,2.3101,0.0,2.2559,2.2828,2.275,2.1953,2.2637,0.0,0.0,0.0,0.0,0.0,0.0,0.0,2.2519,2.2886,0.0,2.3101,2.3101,2.3101,2.3101,2.3101,2.3101,2.3101,2.3101,2.3101,2.3101,2.3101,2.3101,2.3101,2.3101,2.3101,2.3212,2.4382,2.5504,2.6648,2.7723,2.8806,2.9804,2.6309,2.6855,2.7383,2.7793,2.8105,2.8301,2.8301,2.8301,2.8301,2.8301,2.8301,2.8301,2.8301,2.8301,2.8301,0.0,2.8301,2.8301,0.0,2.8301,2.8301,2.8301,2.8164,2.7949,2.7728,2.6973,2.6328,2.5693,0.0,0.0,0.0,2.3296,2.3101,2.3101,2.3101,2.3101,2.3101,2.3101,2.3101,2.3101,2.3101,2.3101,2.3101,2.3101,2.3101,2.3101,2.3101,2.3101,2.3101,2.3101,2.3101,2.314,2.3496,2.3867,2.4297,2.4727,2.5176,2.5449,2.5156,2.5293,2.5527,2.5527,2.5527,2.5566,2.5654,2.5693,2.5654,2.5547,2.5527,2.5352,2.4766,2.4414,2.4082,2.3652,2.3296,0.0,2.3101,0.0,2.3042,2.2906,2.2769,2.2617,2.2344,2.2559,0.0,0.0,0.0,0.0,0.0,0.0,0.0,0.0,2.3023,0.0,2.3101,2.3101,2.3101,2.3101,2.3101,2.3101,2.3101,2.3101,2.3101,2.3101,2.3101,2.3101,2.3101,2.3101,2.3101,2.3212,2.4339,2.5504,2.6648,2.7683,2.8806,2.9804,2.6602,2.7187,2.7767,2.7924,2.8125,2.8301,2.8301,2.8301,2.8301,2.8301,2.8301,2.8301,2.8301,2.8301,0.0,2.8301,2.8301,2.8301,2.8301,2.8301,2.8301,2.8301,2.8301,2.8164,2.791,2.7324,0.0,2.6161,2.5449,2.4707,2.4023,2.375,2.3569,2.3569,2.3413,2.3379,2.3379,2.3379,2.3379,2.3379,2.3379,2.3379,2.3315,2.3159,2.3101,2.3101,2.3101,2.3101,2.3101,2.3101,2.3101,2.3198,2.3828,2.4199,2.4492,2.4941,2.5391,2.5596,2.5195,2.5391,2.5654,2.5527,2.5557,2.5693,2.5693,2.5693,2.5693,2.5693,2.5693,2.5605,2.5156,2.4844,2.4473,2.3887,2.3555,2.3276,2.312,0.0,2.3101,0.0,0.0,0.0,0.0,2.2754,2.2754,0.0,0.0,0.0,0.0,0.0,0.0,2.3101,2.3101,2.3101,2.3101,2.3101,2.3101,2.3101,2.3257,2.3257,2.3101,2.3257,2.3257,2.3101,2.3101,2.3101,2.3101,2.3101,2.3101,2.3169,2.3887,2.4872,2.6005,2.7075,2.8187,2.9223,2.6934,2.7363,2.7845,0.0,2.8281,2.8301,2.8301,2.8301,2.8301,2.8301,2.8301,2.8301,2.8301,2.8301,2.8301,2.8301,0.0,0.0,2.8301,2.8301,2.8301,2.8301,2.8301,2.8301,2.8301,2.748,2.7031,2.6973,2.5684,2.4863,2.4473,2.4434,2.4414,2.4394,2.4004,2.3828,2.3828,2.3828,2.3828,2.3828,2.3828,2.3809,2.375,2.3379,2.314,2.3101,2.314,2.312,2.3101,2.314,2.314,2.3296,2.4199,2.4473,2.4551,2.498,2.541,2.5596,2.5234,2.541,2.5596,2.5215,2.543,2.5693,2.5693,2.5693,2.5693,2.5693,2.5693,2.5605,2.5195,2.5106,2.4812,2.3965,2.3789,2.3594,2.3159,2.3101,2.3101,0.0,0.0,0.0,2.3101,2.3101,2.3101,0.0,0.0,0.0,0.0,0.0,2.312,2.3101,2.312,2.314,2.314,2.314,2.3159,2.3198,2.3633,2.3613,2.3198,2.3652,2.3594,2.314,2.314,2.312,2.3101,2.3101,2.3101,2.3101,2.3101,2.38,2.4957,2.6088,2.7157,2.8267,0.0,0.0,2.7748,2.7845,2.8086,2.8301,2.8301,2.8301,2.8301,2.8301,2.8301,2.8301,2.8301,2.8301,2.8301,2.8301,2.8301,2.8301,2.8301,2.8301,2.8301,2.8301,2.8301,2.8301,2.8301,2.7773,2.7187,2.6543,2.5547,2.5067,2.4902,2.457,2.4414,2.4414,2.4316,2.4277,2.4277,2.4277,2.4277,2.4277,2.4277,2.4082,2.3809,2.4023,2.3666,2.314,2.3516,2.3418,2.314,2.3516,2.3633,2.3789,2.4648,2.4922,2.5,2.5449,2.5615,2.5674,2.5557,2.5615,2.5654,2.5605,2.5615,2.5693,2.5693,2.5693,2.5693,2.5693,2.5693,2.5654,2.5605,2.5019,2.4512,2.4297,2.3711,2.3218,2.3101,2.3101,2.3101,0.0,2.3101,2.3101,2.3101,2.3101,2.3237,0.0,0.0,0.0,2.3613,2.3633,2.3477,2.3101,2.3457,2.3633,2.3633,2.3633,2.3789,2.4075,2.4219,2.4219,2.4121,2.4219,2.4043,2.3633,2.3633,2.3437,2.3101,2.3101,2.3101,2.3101,2.3101,2.38,2.4957,2.6088,2.7157,2.8267,2.7266,2.7656,2.7949,2.7949,2.8144,2.8301,2.8301,2.8301,2.8301,2.8301,2.8301,2.8301,2.8301,2.8301,2.8301,2.8301,2.8301,2.8301,2.8301,2.8301,2.8301,2.8301,2.8301,2.8301,2.8301,2.7695,2.6953,2.6094,2.5605,2.5371,2.5371,2.5137,2.4972,2.4972,2.4805,2.4707,2.4707,2.4707,2.4707,2.4687,2.4492,2.4394,2.4355,2.4199,2.3965,2.3705,2.3984,2.3926,2.3705,2.4004,2.4082,2.4199,2.4863,2.5106,2.5156,2.5605,2.5693,2.5693,2.5693,2.5693,2.5693,2.5693,2.5693,2.5693,2.5693,2.5693,2.5752,2.5996,2.583,2.5752,2.5996,2.5312,2.4648,2.4453,2.3867,2.3379,2.312,2.3101,2.3179,2.3418,2.3437,2.3471,2.3666,2.3686,2.373,2.3789,2.3574,0.0,2.3769,2.3965,2.3867,2.3457,2.3848,2.4082,2.4082,2.4082,2.418,2.4414,2.4609,2.4609,2.4414,2.4629,2.4473,2.4082,2.4082,2.3945,2.3666,2.3516,2.3437,2.3418,2.3179,2.3474,2.4211,2.5902,2.6871,2.7602,2.7689,2.8002,2.8223,2.8281,2.8301,2.8301,2.8301,2.8301,2.8301,2.8301,2.8301,2.8301,2.8301,2.8301,2.8301,2.8301,2.8301,2.8301,2.8301,2.8301,2.8301,2.8301,2.8301,2.8301,2.8301,2.7461,2.6621,2.5791,2.5713,2.5693,2.5693,2.5693,2.5693,2.5674,2.5332,2.5176,2.5176,2.5176,2.5176,2.5137,2.4766,2.4805,2.5047,2.4336,2.4219,2.4414,2.4492,2.4473,2.4434,2.4492,2.4512,2.459,2.5039,2.5176,2.5254,2.5577,2.5732,2.5771,2.5713,2.5693,2.5713,2.5771,2.5791,2.581,2.5869,2.5888,2.5986,2.6406,2.6133,2.5957,2.6328,2.5605,2.4863,2.457,2.4043,2.3574,2.3237,0.0,2.3335,2.375,2.3848,2.4023,2.4375,2.4414,2.4297,2.4004,2.3926,2.3906,2.3984,2.4316,2.4355,2.4004,2.4336,2.4512,2.4512,2.459,2.4609,2.4609,2.5,2.498,2.4629,2.5,2.4922,2.4512,2.4453,2.4375,2.4297,2.3945,2.375,2.3652,2.3315,2.333,2.3727,2.5757,2.6652,2.7149,2.7571,2.7767,2.7871,2.8223,2.8301,2.8301,2.8301,2.8301,2.8301,2.8301,2.8301,2.8301,2.8301,2.8301,2.8301,2.8301,2.8301,2.8301,2.8301,2.8301,2.8301,2.8301,2.8301,2.8301,2.8301,2.7461,2.6777,2.6289,2.5869,2.5693,2.5693,2.5693,2.5693,2.5693,2.5615,2.5625,2.5625,2.5625,2.5625,2.5577,2.5518,2.5352,2.5145,2.5332,2.5019,2.4473,2.4844,2.4727,2.4473,2.4844,2.4961,2.5039,2.5488,2.5625,2.5596,2.5674,2.5996,2.6211,2.5791,2.5693,2.5771,2.6191,2.6289,2.6387,2.6738,2.6816,2.6836,2.6914,2.6582,2.6309,2.6387,2.5371,2.4609,2.4922,2.3984,2.3296,2.3652,0.0,2.3711,2.3789,2.4102,2.4336,2.4414,2.4414,2.4551,2.4891,2.4531,2.4473,2.4891,2.4988,2.4941,2.491,2.4988,2.4961,2.4961,2.5332,2.5479,2.5479,2.5557,2.5557,2.5479,2.5557,2.5391,2.4988,2.457,2.4219,2.3887,2.3828,2.3574,2.3218,2.3574,2.4319,2.5333,2.6159,2.7351,2.8661,2.765,2.7851,2.8066,2.8262,2.8301,2.8301,2.8301,2.8301,2.8301,2.8301,2.8301,2.8301,2.8301,2.8301,2.8301,2.8301,2.8301,2.8301,2.8301,2.8301,2.8301,2.8301,2.8301,2.8086,2.7617,2.7226,2.6699,2.6035,2.5791,2.5693,2.5693,2.5693,2.5693,2.5693,2.5693,2.5693,2.5693,2.5693,2.5693,2.5674,2.5469,2.5391,2.543,2.5391,2.5273,2.5156,2.5352,2.5293,2.5109,2.5352,2.543,2.5469,2.5615,2.5693,2.5693,2.5693,2.583,2.6055,2.6074,2.5869,2.5732,2.5996,2.6211,2.6445,2.6641,2.6855,2.709,2.7324,2.7031,2.6719,2.6719,2.5644,2.4824,2.5086,2.3984,0.0,2.4043,2.4121,2.4297,2.4785,2.5215,2.5566,2.5801,2.582,2.5801,2.5781,2.5586,2.5469,2.543,2.543,2.543,2.543,2.543,2.543,2.543,2.5625,2.5693,2.5693,2.5693,2.5693,2.5693,2.5693,2.5577,2.541,2.4961,2.4805,2.4805,2.4336,2.4141,2.4225,2.4871,2.5478,2.6168,2.7716,2.8774,2.9522,2.7395,2.7715,2.8027,2.8125,2.8223,2.8301,2.8301,2.8301,2.8301,2.8301,2.8301,2.8301,2.8301,2.8301,2.8301,2.8301,2.8301,2.8301,2.8301,2.8301,2.8301,2.8301,2.8301,2.793,2.7187,2.707,2.6641,2.5849,2.5732,2.5693,2.5693,2.5693,2.5693,2.5693,2.5693,2.5693,2.5693,2.5693,2.5693,2.5654,2.5371,2.543,2.5654,2.5352,2.543,2.5693,2.5693,2.5693,2.5693,2.5693,2.5752,2.5849,2.5849,2.5908,2.5986,2.5986,2.5986,2.6044,2.6328,2.6152,2.5869,2.5966,2.6289,2.6582,2.6797,2.709,2.7402,2.7754,2.7461,2.7168,2.7168,2.6113,2.5254,2.5352,0.0,2.3686,2.4563,2.4727,2.4972,2.5801,2.6269,2.666,2.6992,2.7012,2.6875,2.6562,2.6543,2.6387,2.6005,2.5986,2.5947,2.5898,2.5849,2.5888,2.5986,2.5986,2.5947,2.5849,2.5849,2.5791,2.5693,2.5693,2.5693,2.5674,2.5254,2.5273,2.5527,2.4844,2.4707,2.5024,2.6036,2.661,2.7125,2.9064,3.0025,3.0458,2.6406,2.6816,2.7246,2.7689,2.8027,2.8301,2.8301,2.8301,2.8301,2.8301,2.8301,2.8301,2.8301,2.8301,2.8301,2.8301,2.8301,2.8301,2.8301,2.8301,2.8301,2.8301,2.8301,2.8086,2.7689,2.7226,2.6797,2.6348,2.5937,2.5693,2.5693,2.5693,2.5693,2.5693,2.5693,2.5693,2.5693,2.5693,2.5693,2.5693,2.5654,2.5654,2.5693,2.5654,2.5654,2.5693,2.5693,2.5693,2.5693,2.5693,2.5996,2.6348,2.6348,2.6602,2.6914,2.6914,2.6914,2.6836,2.6484,2.6367,2.6426,2.6816,2.6953,2.7187,2.7969,2.8184,2.8203,2.8242,2.791,2.7669,2.7669,2.6562,2.582,2.623,0.0,0.0,2.546,2.5596,2.5771,2.6289,2.6719,2.6973,2.7012,2.7012,2.7012,2.6973,2.6973,2.6953,2.6914,2.6914,2.6738,2.6348,2.6348,2.6523,2.6914,2.6914,2.6719,2.6348,2.6348,2.6133,2.5693,2.5693,2.5693,2.5674,2.5254,2.5125,2.5165,2.5039,2.4805,2.4585,2.6238,2.7554,2.87,2.9503,3.073,3.1939,2.6699,2.6914,2.7246,2.793,2.7969,2.7988,2.8262,2.8301,2.8301,2.8301,2.8301,2.8301,2.8301,2.8301,2.8301,2.8301,2.8301,2.8301,2.8301,2.8301,2.8301,2.8301,2.8301,2.8086,2.7728,2.75,2.7207,2.6777,2.6348,2.6133,2.6133,2.5859,2.5693,2.5693,2.5693,2.5693,2.5693,2.5693,2.5693,2.5693,2.5693,2.5693,2.5693,2.5693,2.5693,2.5693,2.5693,2.5693,2.5693,2.5693,2.6035,2.6387,2.6387,2.668,2.707,2.7344,2.7422,2.7383,2.7226,2.6973,2.6816,2.6973,2.7226,2.75,2.7832,2.8105,2.8301,2.8301,2.8164,2.7969,2.7767,2.7051,2.6582,2.6758,0.0,2.5499,2.6356,2.6523,2.6699,2.7129,2.7559,2.7812,2.7812,2.7812,2.7812,2.7812,2.7812,2.7695,2.7441,2.7168,2.707,2.7168,2.6914,2.6738,2.6621,2.6621,2.6543,2.6387,2.6113,2.5849,2.5693,2.6016,2.5996,2.5674,2.5566,2.5488,2.5469,2.5176,2.5137,2.5425,2.7615,2.8763,2.9376,3.1182,3.2201,3.2717,2.6562,2.6719,2.7051,2.7773,2.7773,2.7865,2.8223,2.8301,2.8301,2.8301,2.8301,2.8301,2.8301,2.8301,2.8301,2.8301,2.8301,2.8301,2.8301,2.8301,2.8301,2.8301,2.8301,2.8164,2.7871,2.7787,2.7519,2.7226,2.6797,2.6523,2.6387,2.6074,2.581,2.5693,2.5693,2.5693,2.5693,2.5693,2.5693,2.5693,2.5693,2.5693,2.5693,2.5693,2.5693,2.5693,2.5693,2.5771,2.5937,2.5937,2.6328,2.6797,2.6797,2.707,2.748,2.7773,2.7871,2.7871,2.7871,2.7637,2.7383,2.7246,2.7441,2.7748,2.7885,2.8086,2.8301,2.8301,2.8301,2.8203,2.791,2.75,2.7226,2.7226,2.6602,2.6387,2.7109,2.7226,2.7383,2.7812,2.8125,2.8301,2.8301,2.8301,2.8301,2.8301,2.8301,2.8164,2.7871,2.7578,2.75,2.7708,2.75,2.7226,2.6797,2.6797,2.6719,2.6582,2.6426,2.6269,2.6103,2.6309,2.623,2.5937,2.5752,2.5693,2.5674,2.541,2.5449,2.5965,2.8448,2.9396,2.967,3.2196,3.3111,3.3111,2.5693,2.6094,2.6523,2.6953,2.7383,2.7865,2.8223,2.8301,2.8301,2.8301,2.8301,2.8301,2.8301,2.8301,2.8301,2.8301,2.8301,2.8301,2.8301,2.8301,2.8301,2.8301,2.8301,2.8301,2.8301,2.7943,2.7728,2.7728,2.7226,2.6797,2.6406,2.6387,2.6152,2.5693,2.5693,2.5693,2.5693,2.5693,2.5693,2.5693,2.5693,2.5693,2.5693,2.5693,2.5693,2.5693,2.5693,2.6016,2.6387,2.6387,2.6953,2.7728,2.7728,2.7949,2.8301,2.8301,2.8301,2.8301,2.8301,2.8301,2.8184,2.7826,2.7728,2.7826,2.8203,2.8301,2.8301,2.8301,2.8301,2.8301,2.8301,2.7949,2.7728,2.7728,2.7305,2.7168,2.7669,2.7728,2.7832,2.8242,2.8301,2.8301,2.8301,2.8301,2.8301,2.8301,2.8301,2.8301,2.8301,2.8301,2.8105,2.7728,2.8066,2.8086,2.7728,2.7728,2.7441,2.7031,2.7461,2.7441,2.6992,2.6582,2.6387,2.6367,2.5937,2.5693,2.5693,2.5693,2.5693,2.5965,2.8402,2.9418,2.967,3.2152,3.3068,3.3111,2.6473,2.6504,2.6719,2.7734,2.7773,2.7865,2.8223,2.8301,2.8301,2.8301,2.8301,2.8301,2.8301,2.8301,2.8301,2.8301,2.8301,2.8301,2.8301,2.8301,2.8301,2.8301,2.8301,2.8301,2.8301,2.8164,2.8105,2.8105,2.7676,2.7402,2.7317,2.666,2.6328,2.6191,2.583,2.5693,2.5693,2.5693,2.5693,2.5693,2.5693,2.5693,2.5693,2.5693,2.5693,2.5732,2.6094,2.6269,2.6426,2.6738,2.7207,2.7767,2.8008,2.8184,2.8301,2.8301,2.8301,2.8301,2.8301,2.8301,2.8262,2.8144,2.8105,2.8144,2.8262,2.8301,2.8301,2.8301,2.8301,2.8301,2.8301,2.8184,2.8105,2.8105,2.7988,2.7949,2.8086,2.8105,2.8144,2.8281,2.8301,2.8301,2.8301,2.8301,2.8301,2.8301,2.8301,2.8301,2.8301,2.8301,2.8242,2.8105,2.793,2.7845,2.7728,2.7728,2.7441,2.7012,2.7148,2.6992,2.6602,2.707,2.6953,2.6406,2.6562,2.6239,2.5693,2.5693,2.5693,2.5868,2.7484,2.8634,2.9579,3.1178,3.2326,3.3111,2.6559,2.6699,2.6934,2.7871,2.7832,2.7865,2.8223,2.8301,2.8301,2.8301,2.8301,2.8301,2.8301,2.8301,2.8301,2.8301,2.8301,2.8301,2.8301,2.8301,2.8301,2.8301,2.8301,2.8301,2.8301,2.8301,2.8301,2.8301,2.8047,2.7885,2.7708,2.6953,2.6543,2.6367,2.5937,2.5693,2.5693,2.5693,2.5693,2.5693,2.5693,2.5693,2.5693,2.5693,2.5791,2.6035,2.6289,2.6602,2.6934,2.7187,2.7559,2.7949,2.8203,2.8301,2.8301,2.8301,2.8301,2.8301,2.8301,2.8301,2.8301,2.8301,2.8301,2.8301,2.8301,2.8301,2.8301,2.8301,2.8301,2.8301,2.8301,2.8301,2.8301,2.8301,2.8301,2.8301,2.8301,2.8301,2.8301,2.8301,2.8301,2.8301,2.8301,2.8301,2.8301,2.8301,2.8301,2.8301,2.8301,2.8301,2.8301,2.8301,2.8047,2.791,2.791,2.791,2.7695,2.7285,2.7441,2.7383,2.7148,2.75,2.7434,2.6894,2.6797,2.6465,2.5977,2.5752,2.6014,2.6572,2.7814,2.905,3.0259,3.1512,3.2413,3.3111,2.6234,2.6816,2.7207,2.7637,2.7767,2.7904,2.8242,2.8301,2.8301,2.8301,2.8301,2.8301,2.8301,2.8301,2.8301,2.8301,2.8301,2.8301,2.8301,2.8301,2.8301,2.8301,2.8301,2.8301,2.8301,2.8301,2.8301,2.8301,2.8301,2.8105,2.7767,2.7246,2.6816,2.6426,2.5957,2.5693,2.5693,2.5693,2.5693,2.5693,2.5693,2.5693,2.5693,2.5693,2.6016,2.6387,2.6426,2.6973,2.7728,2.7767,2.7969,2.8301,2.8301,2.8301,2.8301,2.8301,2.8301,2.8301,2.8301,2.8301,2.8301,2.8301,2.8301,2.8301,2.8301,2.8301,2.8301,2.8301,2.8301,2.8301,2.8301,2.8301,2.8301,2.8301,2.8301,2.8301,2.8301,2.8301,2.8301,2.8301,2.8301,2.8301,2.8301,2.8301,2.8301,2.8301,2.8301,2.8301,2.8301,2.8301,2.8301,2.8301,2.8301,2.8301,2.8301,2.8301,2.8086,2.7728,2.8086,2.8281,2.8223,2.7871,2.7748,2.7669,2.6836,2.6484,2.6406,2.5977,2.6488,2.7783,2.8841,3.0033,3.1356,3.2525,3.2982,3.3111,2.7046,2.7513,2.7656,2.8086,2.8164,2.8184,2.8281,2.8301,2.8301,2.8301,2.8301,2.8301,2.8301,2.8301,2.8301,2.8301,2.8301,2.8301,2.8301,2.8301,2.8301,2.8301,2.8301,2.8301,2.8301,2.8301,2.8301,2.8301,2.8301,2.8242,2.8144,2.7383,2.6973,2.6836,2.6025,2.5693,2.5693,2.5693,2.5693,2.5693,2.5693,2.5693,2.5693,2.5693,2.6016,2.6426,2.6758,2.7226,2.7767,2.8047,2.8223,2.8301,2.8301,2.8301,2.8301,2.8301,2.8301,2.8301,2.8301,2.8301,2.8301,2.8301,2.8301,2.8301,2.8301,2.8301,2.8301,2.8301,2.8301,2.8301,2.8301,2.8301,2.8301,2.8301,2.8301,2.8301,2.8301,2.8301,2.8301,2.8301,2.8301,2.8301,2.8301,2.8301,2.8301,2.8301,2.8301,2.8301,2.8301,2.8301,2.8301,2.8301,2.8301,2.8301,2.8301,2.8301,2.8086,2.7728,2.8086,2.8125,2.7865,2.8047,2.7988,2.7708,2.7513,2.7207,2.6836,2.6426,2.695,2.8082,2.801,2.9326,3.1223,3.1488,3.2239,3.3111,2.6262,2.7372,2.8027,2.8262,2.8301,2.8301,2.8301,2.8301,2.8301,2.8301,2.8301,2.8301,2.8301,2.8301,2.8301,2.8301,2.8301,2.8379,2.8574,2.8398,2.8379,2.8574,2.8398,2.8301,2.8301,2.8301,2.8301,2.8301,2.8301,2.8301,2.8281,2.7637,2.7324,2.7305,2.6641,2.6298,2.6298,2.6298,2.623,2.6055,2.6055,2.6055,2.6035,2.5771,2.6269,2.6992,2.7012,2.7422,2.7988,2.8223,2.8301,2.8301,2.8301,2.8301,2.8301,2.8301,2.8301,2.8301,2.8301,2.8301,2.8301,2.8301,2.8301,2.8301,2.8301,2.8301,2.8301,2.8301,2.8301,2.8301,2.8301,2.8457,2.8516,2.832,2.8457,2.8594,2.8594,2.8418,2.8359,2.8574,2.8418,2.8301,2.8301,2.8301,2.8301,2.8301,2.8301,2.8301,2.8301,2.8301,2.8301,2.8301,2.8301,2.8301,2.8301,2.8301,2.8184,2.7969,2.8184,2.8184,2.7969,2.8184,2.8184,2.7949,2.7806,2.7539,2.7285,2.6875,2.7598,2.9046,2.9141,3.0536,3.2523,3.2767,3.3291,3.3822,2.5201,2.7031,2.8301,2.8301,2.8301,2.8301,2.8301,2.8301,2.8301,2.8301,2.8301,2.8301,2.8301,2.8359,2.8398,2.8398,2.8398,2.8574,2.9004,2.8633,2.8555,2.8906,2.8574,2.8359,2.8301,2.8301,2.8301,2.8301,2.8301,2.8301,2.8281,2.7871,2.7728,2.7708,2.7207,2.7012,2.7012,2.7012,2.6816,2.6504,2.6504,2.6504,2.6465,2.6094,2.666,2.7669,2.7266,2.7637,2.8301,2.8301,2.8301,2.8301,2.8301,2.8301,2.8301,2.8301,2.8301,2.8301,2.8301,2.8301,2.832,2.8379,2.8398,2.8418,2.8496,2.8398,2.832,2.8379,2.8398,2.8418,2.8496,2.8789,2.8926,2.8574,2.8809,2.9023,2.9023,2.873,2.8633,2.8984,2.8652,2.8379,2.8301,2.8301,2.8301,2.8301,2.8301,2.8301,2.8301,2.8301,2.8301,2.8301,2.8301,2.8301,2.8301,2.8301,2.8301,2.8301,2.8301,2.8301,2.8301,2.8301,2.8301,2.8281,2.793,2.7826,2.7787,2.7542,2.8541,3.0309,3.1002,3.2392,3.4098,3.455,3.468,3.465,2.5683,2.7239,2.8301,2.8301,2.8301,2.8301,2.8301,2.8301,2.8301,2.8301,2.8301,2.8301,2.8301,2.8613,2.8828,2.8828,2.8828,2.9023,2.9453,2.9082,2.8867,2.8926,2.8867,2.8672,2.8301,2.8301,2.8301,2.8301,2.8301,2.8301,2.8281,2.7871,2.7728,2.7708,2.7207,2.7012,2.7012,2.7012,2.6973,2.6934,2.6934,2.6934,2.6914,2.6855,2.7187,2.7708,2.765,2.7891,2.8301,2.8301,2.8301,2.8301,2.8301,2.8301,2.8301,2.8301,2.8301,2.8301,2.8301,2.8301,2.8379,2.875,2.8828,2.8926,2.9316,2.8828,2.8398,2.8769,2.8828,2.8945,2.9316,2.9434,2.9473,2.9414,2.9453,2.9492,2.9492,2.9434,2.9414,2.9473,2.9101,2.8691,2.832,2.8301,2.8301,2.8301,2.8301,2.8301,2.8301,2.8301,2.8301,2.8301,2.8301,2.8301,2.8301,2.8301,2.8301,2.8301,2.8301,2.8301,2.8301,2.8301,2.8301,2.8281,2.8223,2.8203,2.827,2.9044,3.0092,3.1367,3.2276,3.3441,3.4625,3.4655,3.468,3.468,2.4675,2.6717,2.8301,2.8301,2.8301,2.8301,2.8301,2.8301,2.8301,2.8301,2.8301,2.8301,2.8301,2.8457,2.8574,2.8574,2.8789,2.9004,2.9199,2.9023,2.8926,2.8926,2.8691,2.8476,2.8301,2.8301,2.8301,2.8301,2.8301,2.8301,2.8281,2.8105,2.8008,2.8008,2.7812,2.7734,2.7734,2.7734,2.7598,2.7383,2.7383,2.7383,2.7344,2.7109,2.7422,2.8008,2.8008,2.8125,2.8301,2.8301,2.8301,2.8301,2.8301,2.8301,2.8301,2.8301,2.8301,2.8301,2.8301,2.8457,2.8691,2.8867,2.9101,2.9336,2.9531,2.9277,2.9062,2.9238,2.9277,2.9336,2.9531,2.9766,2.9844,2.9665,2.9766,2.9922,2.9922,2.9726,2.9626,2.9626,2.9394,2.9121,2.8691,2.8867,2.8809,2.832,2.8516,2.8535,2.8301,2.8301,2.8301,2.8301,2.8301,2.8301,2.8301,2.8301,2.8301,2.8301,2.8301,2.8301,2.8301,2.8301,2.8301,2.8301,2.8301,2.8301,2.8388,2.9549,3.0608,3.1663,3.3168,3.4504,3.5604,3.5257,3.5378,3.5604]}]]